GFSSGP_sfc_30mbdewp_000.txt.gz
Dewpoint
41 32 29 21 11 9 7 7 9 30 46 51 50 48 51 55 49 42 60 60 62 64 66 67 68 68 69 69 69 69 70 69 69 68 67 66 64 63 66 64 62 61 60 61 63 64 65 67 66
42 28 15 15 9 8 10 17 37 42 52 53 52 52 53 55 60 60 56 59 62 64 65 67 68 68 69 69 70 70 70 69 69 68 67 66 66 66 65 64 62 60 60 62 62 61 64 65 64
32 16 7 12 11 11 15 20 46 50 51 46 53 55 55 57 61 60 58 60 64 64 65 67 67 67 68 68 68 69 70 70 69 69 68 68 66 66 66 64 60 61 60 61 61 63 63 63 62
23 9 7 12 16 16 19 33 47 47 46 51 54 52 55 58 61 60 60 63 62 63 64 66 66 66 67 66 66 66 67 68 68 67 68 67 66 65 65 64 62 62 62 62 62 63 64 65 64
10 6 5 7 13 19 26 30 35 39 42 45 48 51 53 59 61 60 61 62 60 62 63 65 65 65 66 66 66 66 66 67 68 68 67 67 66 65 62 61 63 62 63 62 62 62 61 62 62
6 5 4 3 6 4 14 24 34 36 40 46 48 50 52 60 60 60 61 60 61 62 63 63 64 64 65 65 65 65 66 66 66 67 67 66 65 65 64 63 63 62 63 63 62 63 62 62 61
2 2 2 1 -0 0 2 6 12 20 28 36 49 48 54 58 61 61 61 61 62 63 63 62 62 63 62 63 63 64 65 66 65 65 65 65 65 64 63 62 61 60 60 60 60 60 61 62 61
5 3 1 0 -1 -2 1 8 11 13 24 42 45 45 50 57 60 62 63 62 61 62 62 61 61 60 60 61 62 63 64 65 65 63 62 62 63 62 61 59 59 59 60 59 59 58 58 58 57
7 4 2 0 -0 4 9 8 12 17 31 25 40 46 46 57 59 61 62 62 61 61 61 60 60 59 57 58 61 62 63 64 65 63 62 61 59 58 58 58 58 59 59 58 58 58 57 55 54
8 5 7 8 6 8 12 9 8 16 29 36 41 46 54 57 58 59 60 60 60 60 61 60 60 59 57 56 59 60 61 63 64 63 61 59 58 57 57 58 57 58 57 57 57 55 54 50 50
15 9 13 14 11 10 15 16 15 14 21 34 29 44 55 56 55 58 59 60 60 61 62 61 61 61 59 58 59 59 59 60 62 63 62 60 59 57 58 56 57 56 56 54 55 55 55 54 53
13 15 15 16 17 17 16 17 15 14 13 24 37 47 54 56 54 54 56 57 57 59 61 62 62 62 61 60 60 59 59 59 60 60 60 59 58 56 56 56 56 57 56 55 55 55 55 55 54
18 18 19 19 18 17 18 17 16 17 18 17 33 48 54 56 55 53 53 55 54 56 58 57 58 59 58 58 58 58 59 59 60 60 59 58 57 55 55 56 56 57 56 56 55 52 49 47 48
22 22 21 21 20 21 20 19 18 17 18 17 34 43 52 55 55 51 50 50 52 52 52 54 56 57 55 52 53 53 56 57 58 57 57 56 57 56 55 55 56 55 55 54 49 45 43 43 45
23 19 19 19 20 20 19 15 14 18 15 16 21 39 45 50 51 47 45 48 48 47 47 51 54 55 54 51 50 49 50 50 51 52 53 52 54 56 56 55 56 55 53 48 47 45 42 40 39
17 16 13 18 20 17 14 15 15 14 18 20 16 29 41 45 44 40 37 42 45 42 43 50 52 53 53 52 51 51 49 48 46 47 49 50 53 53 51 51 52 53 50 47 47 38 34 35 36
16 10 13 15 23 25 21 18 17 17 23 23 19 20 31 32 28 28 32 37 39 39 41 47 48 50 49 49 50 50 49 48 46 45 47 49 50 50 46 45 46 47 44 40 43 35 35 34 33
14 12 17 17 21 25 24 23 25 25 24 23 19 20 23 25 26 30 30 30 32 36 41 42 43 47 45 42 41 40 38 38 41 41 42 46 48 48 47 45 44 43 40 38 37 34 36 35 33
18 18 20 21 23 25 25 25 20 20 20 19 19 20 24 27 29 30 31 32 34 37 37 35 37 37 36 34 34 34 33 33 34 36 38 40 44 47 47 45 44 44 41 39 37 36 34 34 36
18 19 16 22 24 26 25 22 17 21 21 23 24 27 27 27 28 29 31 32 34 34 33 30 29 30 30 32 32 33 32 32 32 33 34 35 37 41 45 45 42 42 42 40 38 36 34 34 35
20 17 19 21 25 26 24 19 20 20 23 24 25 26 28 27 27 28 28 29 29 30 30 30 30 30 31 33 33 33 33 33 33 32 32 33 35 37 42 43 43 41 41 40 39 37 35 33 35
21 20 24 24 26 21 24 17 21 22 20 23 23 24 25 27 29 29 28 28 28 29 30 31 33 34 35 35 35 35 34 34 34 35 35 36 37 36 37 42 44 41 40 40 40 38 37 34 33
24 28 28 27 26 24 24 19 21 22 20 20 23 24 26 26 26 26 27 28 31 33 34 38 37 36 36 36 36 35 32 35 37 37 37 38 38 38 37 38 39 41 39 39 38 37 36 32 31
29 28 25 27 25 21 24 22 21 23 22 23 25 26 27 27 28 30 32 35 36 36 36 36 35 35 36 36 33 32 32 33 33 33 35 37 38 36 35 38 38 37 35 33 31 30 28 29 30
29 24 16 18 17 19 26 22 21 25 25 25 25 26 28 29 31 30 33 35 35 35 36 36 36 36 37 35 31 32 33 33 32 32 34 35 35 32 33 33 34 35 36 37 37 36 36 36 36
28 28 22 14 18 21 26 21 23 28 27 26 27 32 33 34 36 36 35 35 35 36 36 37 37 37 38 35 30 33 34 34 33 33 33 33 33 33 36 37 37 36 38 38 38 37 38 38 38
28 27 29 26 25 25 25 27 27 30 30 30 31 31 31 32 33 34 36 36 36 37 37 37 37 38 39 37 31 34 34 34 32 31 32 33 32 36 37 37 37 37 38 39 36 35 33 35 35
29 30 25 27 22 19 23 24 24 28 28 31 30 30 32 33 34 35 36 37 38 37 38 38 38 38 39 33 34 34 33 33 33 31 31 31 34 37 37 36 34 34 32 32 34 35 36 36 35
29 29 29 29 29 25 24 23 30 29 29 30 31 34 34 34 33 34 36 38 38 38 38 39 38 38 39 32 34 33 32 32 31 30 31 32 35 33 30 30 30 29 31 32 33 33 32 29 29
32 29 28 22 22 27 26 24 30 30 31 31 32 34 35 36 35 35 37 38 39 38 38 39 38 39 34 34 33 33 29 26 28 29 30 30 27 27 27 27 27 28 27 28 28 26 25 24 22

GFSSGP_sfc_30mbdewp_003.txt.gz
Dewpoint
39 31 30 22 13 13 11 14 12 42 47 51 51 46 51 55 48 44 61 59 63 66 67 68 69 68 68 67 68 68 69 69 68 68 67 65 65 66 66 65 63 62 61 62 63 62 65 67 67
39 23 19 17 11 13 22 24 25 48 52 53 53 54 53 53 60 58 58 61 62 65 67 67 68 69 69 69 69 69 70 69 69 68 67 66 66 66 67 65 62 61 60 61 62 64 63 64 63
30 14 12 15 14 13 28 33 49 52 51 51 52 55 55 55 60 57 59 60 63 64 66 67 68 68 68 69 70 70 71 70 69 69 68 68 67 66 67 64 61 62 62 62 63 63 65 66 66
21 11 12 21 18 16 32 43 51 49 47 53 53 50 55 59 60 61 57 60 61 62 65 67 67 68 68 68 68 68 69 69 68 68 68 67 67 66 65 64 64 63 63 63 63 63 62 63 65
11 11 16 22 22 26 30 38 49 43 44 48 49 51 53 59 61 58 59 61 58 60 64 65 66 67 67 67 67 66 66 67 68 68 67 67 66 65 63 62 63 63 63 63 64 63 62 61 61
6 10 16 19 17 10 25 33 38 39 45 49 51 51 53 60 59 59 60 60 59 59 62 63 66 66 66 66 66 66 66 67 66 66 67 67 66 65 65 64 63 62 61 62 62 63 64 64 64
4 6 4 5 4 3 8 7 26 36 39 36 49 47 54 59 59 60 60 59 60 61 62 63 62 63 64 64 64 65 65 66 65 65 65 65 65 64 63 62 61 60 61 61 60 61 61 61 60
6 6 2 1 0 -0 1 10 12 20 32 43 48 43 51 57 60 61 60 59 60 61 61 61 61 60 60 61 62 63 64 65 64 63 62 62 62 61 61 58 59 60 60 60 59 59 58 58 58
10 4 1 -1 -0 4 9 8 12 23 37 30 36 49 48 58 61 61 61 59 59 60 60 60 60 58 58 59 61 62 63 65 64 62 61 60 59 59 58 59 58 59 59 59 58 57 56 53 54
8 6 7 7 5 10 12 8 8 17 27 33 40 45 55 59 60 59 60 58 58 58 59 59 60 59 57 56 60 61 61 63 64 63 62 60 60 59 59 59 59 58 58 57 57 56 55 51 51
15 9 13 13 9 13 15 16 14 16 20 27 28 44 56 59 60 59 59 58 58 59 59 59 60 60 58 56 59 59 59 61 62 64 63 61 61 61 60 59 58 58 58 56 56 56 57 57 57
15 15 16 16 17 16 14 17 15 15 13 19 34 49 56 56 58 59 59 59 59 60 60 61 61 61 62 61 60 59 59 59 60 61 62 62 61 60 59 58 57 58 58 58 57 58 56 55 55
19 19 19 19 17 17 19 17 18 17 18 18 32 50 55 56 55 58 59 59 59 59 60 61 62 62 63 62 61 60 60 59 60 61 61 61 59 59 58 57 57 58 58 58 57 54 46 44 44
22 22 21 21 21 22 20 20 19 18 18 17 28 44 53 56 56 55 54 55 56 56 58 60 59 60 60 57 59 58 58 60 60 60 61 61 59 58 57 57 57 57 57 57 56 47 42 42 44
22 15 18 20 21 19 18 17 15 17 17 16 16 35 50 55 57 55 54 53 53 55 55 56 57 58 58 55 53 52 52 53 55 56 58 58 58 57 57 57 57 57 57 57 51 46 45 42 42
16 15 13 18 23 24 18 17 19 18 20 21 23 14 39 51 54 53 50 46 49 51 52 53 54 55 56 55 54 53 52 52 51 50 51 52 53 54 55 55 55 55 57 55 51 47 41 36 38
16 6 12 16 24 25 24 21 23 25 26 26 24 19 26 40 40 34 34 39 46 48 48 50 53 53 53 52 52 52 52 51 51 50 48 49 51 52 53 52 51 53 52 52 50 45 41 34 35
13 12 16 16 20 26 25 24 25 22 22 24 22 21 24 32 31 31 32 34 40 45 45 49 49 50 51 48 45 42 42 42 43 43 44 46 47 50 51 50 50 50 47 47 46 43 40 35 34
17 17 19 20 23 26 26 23 20 22 23 21 22 23 23 26 30 32 33 35 37 41 43 44 42 44 43 38 37 36 36 36 37 37 38 40 40 44 47 47 48 49 47 45 45 43 40 37 38
18 18 16 21 24 26 25 21 22 23 25 27 28 28 29 29 30 32 35 36 39 39 42 39 36 36 35 35 36 37 37 37 36 38 39 39 39 39 40 44 44 44 45 46 46 44 40 38 38
21 17 19 21 24 26 23 20 23 22 24 25 27 29 29 29 30 31 32 36 36 36 35 34 35 37 38 38 37 37 37 37 35 33 33 34 39 39 40 40 41 43 44 43 44 45 42 38 37
20 22 27 25 25 21 24 16 23 23 21 24 25 26 28 29 30 30 31 32 33 35 39 40 39 38 37 38 35 35 33 32 34 34 33 35 37 39 39 40 40 41 42 43 43 44 43 42 38
26 29 28 27 26 24 25 19 23 24 23 23 25 26 27 29 30 32 34 38 38 39 39 39 38 38 39 36 35 35 36 36 36 35 33 34 36 38 38 38 39 39 40 40 41 42 42 40 40
30 28 26 27 26 21 24 21 23 24 24 25 26 28 30 31 32 33 38 37 37 39 40 40 38 38 40 37 35 37 38 38 37 35 33 33 34 36 36 36 37 37 36 37 37 37 37 36 35
30 23 17 19 19 18 25 22 22 27 26 26 27 32 35 37 37 37 36 36 37 38 39 38 38 38 39 40 35 37 39 38 36 34 33 34 33 34 35 36 37 36 37 37 37 38 38 38 37
29 27 22 11 16 21 26 21 25 30 30 30 33 33 33 34 36 37 37 37 38 38 39 39 38 38 40 41 36 38 39 36 35 34 35 34 33 34 37 36 36 38 38 38 39 39 38 36 36
28 28 29 26 25 26 24 27 28 29 29 31 31 32 33 34 35 36 37 38 40 39 40 40 39 38 40 41 37 38 37 35 35 34 33 33 35 36 37 38 37 36 36 36 35 34 33 34 35
29 31 25 28 20 18 22 24 23 27 28 30 29 33 35 35 34 35 36 38 40 40 40 41 40 38 40 40 36 36 35 34 33 31 33 34 36 37 35 31 30 30 30 31 31 31 33 33 33
30 28 29 29 29 25 23 21 29 28 29 29 30 34 35 36 36 35 36 37 39 40 39 40 40 39 39 36 36 35 34 31 29 31 33 34 34 32 30 30 31 32 33 32 31 31 30 27 27
31 28 27 22 21 27 26 23 28 30 29 30 30 33 35 36 36 36 37 38 40 40 39 40 41 39 37 36 35 35 30 27 30 31 33 35 34 32 31 30 33 33 31 31 28 26 24 21 19

GFSSGP_sfc_30mbdewp_006.txt.gz
Dewpoint
37 28 29 24 14 19 22 26 36 43 43 48 47 43 45 50 45 44 57 57 54 60 64 65 68 69 69 68 68 68 68 69 68 68 66 65 66 67 66 64 63 62 61 62 63 64 64 65 65
28 21 20 17 12 13 22 30 33 41 47 47 47 47 44 47 54 55 55 56 55 60 63 64 68 69 69 69 69 69 69 69 68 67 67 67 66 67 66 63 62 62 62 63 63 64 65 65 65
27 19 13 13 12 16 21 29 42 45 47 47 46 49 49 47 51 51 54 53 55 58 61 65 68 68 69 70 70 70 70 69 69 68 68 67 67 66 65 64 63 63 63 63 64 63 63 64 66
19 13 19 13 15 26 27 36 40 43 47 47 41 43 52 56 53 54 55 53 52 54 57 64 67 67 68 68 68 68 68 68 68 67 67 67 66 65 62 63 63 63 64 63 63 63 62 62 62
11 13 17 16 20 29 34 39 42 39 42 44 45 43 48 57 60 56 56 53 50 51 55 56 66 66 66 66 66 66 67 67 67 67 67 66 66 65 64 64 64 64 63 62 63 64 64 64 64
9 19 14 15 23 30 35 40 37 34 39 43 41 41 47 59 56 56 56 52 50 52 56 56 63 65 65 66 65 65 66 66 66 66 66 66 65 64 64 63 62 62 61 61 61 61 62 62 62
11 13 11 14 19 22 24 30 29 30 32 34 40 35 51 56 55 56 53 51 52 52 54 56 56 60 64 64 64 65 65 65 64 64 64 65 65 63 63 62 61 61 61 60 60 60 60 60 59
8 7 7 9 7 5 7 11 21 22 28 43 40 31 42 51 57 57 53 52 52 54 53 56 58 57 57 57 62 63 64 65 63 63 61 62 62 61 60 58 59 60 59 59 58 58 57 58 58
10 2 0 1 2 4 8 7 12 26 32 35 36 36 44 54 58 57 55 53 53 54 57 58 57 57 57 55 58 60 62 63 63 62 61 60 57 57 56 57 58 59 58 58 57 56 54 52 54
7 2 3 3 6 5 7 6 11 18 19 22 31 43 51 57 57 56 54 51 53 54 57 58 59 58 58 54 57 57 57 57 59 60 61 58 59 59 58 58 58 57 56 55 55 56 55 53 46
12 5 7 8 10 8 7 8 10 9 10 14 19 35 51 54 55 53 52 48 52 54 56 57 60 61 59 53 55 53 53 55 57 61 62 60 60 58 57 56 54 54 55 51 52 52 50 52 50
12 14 11 11 13 11 9 13 12 11 8 17 23 34 46 50 48 48 47 47 49 52 55 58 59 61 61 55 53 53 54 53 55 56 61 59 57 56 56 54 52 51 51 53 51 51 53 48 45
13 17 19 17 16 17 18 16 18 16 14 18 27 40 43 44 45 46 46 45 47 52 56 59 60 60 58 59 54 55 56 53 55 55 55 58 55 54 53 51 49 49 49 50 51 50 46 40 38
22 20 21 21 21 22 20 19 19 17 19 18 23 34 40 42 42 44 46 48 50 53 55 60 61 59 55 54 56 53 52 51 51 50 50 55 56 52 49 47 45 45 45 47 48 47 44 40 38
22 19 20 21 21 21 19 16 14 17 18 19 18 24 36 41 40 41 43 47 48 50 53 58 59 54 54 52 51 48 45 48 46 46 48 51 51 48 48 45 45 44 45 48 50 50 46 42 37
15 15 11 21 22 24 22 13 17 24 24 19 24 22 32 40 42 42 44 48 51 51 53 56 54 50 50 49 48 47 46 47 46 46 47 49 50 50 49 45 45 44 46 45 46 46 43 41 37
12 4 8 16 23 24 22 16 21 22 22 24 23 24 22 35 44 48 51 50 47 47 51 54 52 43 45 48 47 48 49 46 41 42 41 42 45 46 47 45 44 46 45 44 44 44 43 41 37
9 8 12 12 18 21 21 20 20 22 23 25 26 25 21 30 42 41 38 37 41 47 52 51 46 46 48 47 45 41 41 40 39 38 38 39 40 42 43 43 45 46 46 45 43 43 43 40 39
16 14 14 15 23 26 25 19 20 23 23 24 24 23 26 32 34 34 35 37 42 49 49 46 45 42 40 37 36 35 36 36 37 38 40 41 40 40 41 40 41 42 42 43 46 45 44 44 41
17 15 14 20 24 27 23 20 20 23 25 27 26 26 28 29 30 33 36 39 41 43 43 40 37 38 37 36 38 39 40 38 39 37 38 37 35 35 35 37 38 38 39 40 41 43 44 44 43
20 18 22 22 24 26 23 21 20 22 25 26 27 28 28 28 29 32 35 37 39 39 39 38 39 39 40 38 37 36 36 36 35 35 34 34 34 34 35 36 37 38 38 36 38 40 40 40 41
19 25 27 25 23 17 25 15 23 21 22 24 26 28 29 29 30 31 33 37 38 41 40 39 39 38 38 39 37 38 36 35 36 36 34 34 32 33 34 35 37 37 37 37 37 35 37 39 38
26 30 28 27 24 24 23 17 23 24 22 24 26 29 30 31 33 35 36 37 39 40 41 41 39 39 39 38 39 37 37 37 36 35 33 30 29 31 33 36 37 38 37 37 39 40 40 41 40
30 28 28 28 27 23 24 21 22 24 25 25 28 32 34 35 33 36 37 37 38 40 41 40 38 38 39 39 38 39 40 38 35 32 30 29 30 30 32 36 37 38 38 37 37 39 40 40 39
27 24 20 24 23 21 24 21 25 26 27 29 31 33 35 37 37 36 36 36 38 40 40 38 38 36 38 39 37 37 36 36 34 32 30 31 30 30 33 37 37 36 37 36 37 37 37 38 38
28 27 25 18 19 19 23 17 24 28 30 31 32 33 34 34 36 35 35 36 39 40 40 40 38 36 36 36 35 34 37 37 34 33 33 32 32 34 37 37 36 36 37 37 38 37 37 36 37
27 27 30 28 28 27 21 25 28 28 28 29 30 32 33 34 34 34 35 36 39 40 40 41 39 36 36 37 38 39 39 36 35 33 33 32 34 34 36 37 35 31 32 32 33 34 35 34 33
29 31 25 24 22 13 11 15 17 27 28 29 29 31 33 33 34 34 35 35 38 39 41 41 40 39 39 39 38 38 36 35 33 32 32 33 35 36 33 31 31 31 33 35 35 35 34 33 32
29 29 28 26 26 19 17 13 27 26 27 28 29 30 32 34 34 35 36 36 37 40 40 39 40 40 39 38 36 35 35 33 32 32 33 34 34 32 31 30 32 33 35 37 37 34 32 26 25
31 28 27 21 20 25 25 21 27 28 28 30 30 31 33 35 35 35 36 37 39 40 39 39 39 37 37 34 33 34 33 32 32 33 34 34 34 34 34 35 36 36 36 32 30 29 26 22 20

GFSSGP_sfc_30mbdewp_009.txt.gz
Dewpoint
38 32 25 24 15 15 23 28 32 34 37 42 39 39 38 43 46 46 52 51 57 60 62 65 69 69 69 68 68 68 68 68 67 67 65 66 67 67 65 64 63 62 62 63 63 64 65 66 65
28 20 22 18 13 13 21 24 29 34 37 37 36 35 36 41 49 50 48 50 57 59 61 65 69 70 69 68 69 69 69 68 67 67 67 67 67 66 65 63 63 63 64 64 64 64 64 65 66
35 21 15 11 12 13 21 25 33 36 37 37 36 37 39 42 45 46 48 51 55 58 62 66 68 69 70 70 70 69 69 68 68 68 67 67 67 66 64 63 63 63 64 64 63 63 62 62 62
21 12 15 11 18 21 23 31 33 35 38 38 33 37 47 45 45 47 48 49 51 53 59 66 67 68 68 68 68 68 68 68 67 67 67 66 66 63 62 63 64 64 64 63 63 64 64 64 63
15 13 13 13 20 24 29 31 33 33 34 34 33 34 45 53 49 47 46 45 46 46 51 60 65 66 66 66 65 66 67 67 67 67 66 66 65 64 64 64 63 62 61 61 61 62 62 63 63
11 15 13 15 20 28 31 33 31 28 31 31 32 36 45 51 48 48 45 43 44 48 50 52 61 64 65 65 65 65 66 66 66 66 66 65 64 64 63 62 61 61 61 60 60 60 61 61 61
12 16 14 17 20 21 25 27 24 22 26 26 29 33 45 46 48 47 44 42 42 47 50 51 53 58 62 63 63 64 65 65 64 64 64 64 63 63 62 61 60 60 60 59 59 58 58 59 59
10 12 11 12 14 13 14 16 22 22 25 27 28 27 39 46 48 47 44 43 44 47 50 52 52 52 53 59 62 63 64 64 63 62 61 62 62 61 59 59 59 59 58 58 57 56 56 55 57
8 6 4 4 3 3 5 5 8 16 23 25 27 36 37 49 50 47 44 43 47 48 52 53 52 52 51 49 56 59 61 62 62 61 60 60 57 55 56 57 57 58 57 57 56 55 53 53 54
6 3 2 2 3 3 3 3 6 15 19 16 25 31 43 48 49 47 43 43 47 50 50 55 55 54 52 47 52 52 51 53 55 56 57 55 56 56 55 57 58 58 57 56 56 56 55 54 47
6 5 4 4 3 -0 -1 1 4 6 8 13 20 29 42 45 45 46 45 44 45 49 49 53 59 56 53 49 49 49 49 50 52 55 57 55 55 54 53 52 52 51 55 49 52 50 49 50 48
8 7 6 5 5 5 3 5 6 6 6 12 17 31 40 44 44 45 44 42 45 47 46 53 58 55 54 51 49 49 49 50 50 53 54 53 52 51 51 49 48 46 45 47 47 48 48 48 43
6 8 8 6 7 8 12 9 13 7 10 14 21 32 38 42 42 42 43 43 44 45 46 50 56 53 50 51 51 51 51 50 52 50 50 51 51 50 49 47 46 44 44 44 45 45 45 43 41
12 14 16 16 17 17 16 14 16 15 14 13 18 26 33 36 38 39 41 42 43 43 47 50 54 52 48 49 50 50 48 46 46 45 46 49 49 49 47 45 44 43 42 43 44 46 47 44 40
17 15 17 18 19 18 18 14 13 16 17 16 15 20 29 34 35 38 41 43 44 44 45 50 53 50 47 49 48 44 43 45 43 43 45 47 47 47 48 46 45 43 44 45 44 44 44 44 43
14 14 13 18 19 21 19 14 14 18 19 17 21 18 23 31 33 36 39 41 42 43 44 48 51 48 46 45 45 43 43 44 44 42 43 45 46 46 46 45 44 45 47 45 44 43 43 43 41
12 9 5 16 19 19 18 14 18 21 20 19 19 20 21 26 34 37 38 40 42 42 44 47 52 42 43 45 44 45 44 43 39 39 39 42 42 43 44 44 44 48 46 47 46 45 44 42 43
7 4 5 6 17 14 13 14 18 21 21 21 20 20 21 23 33 39 44 41 41 42 45 47 49 40 43 44 45 40 39 40 39 39 40 42 41 43 43 42 43 44 43 43 44 46 45 47 45
10 9 9 12 19 19 20 16 19 23 22 24 23 23 23 24 37 41 39 39 43 48 48 47 44 45 42 39 38 36 36 37 39 39 41 41 40 38 37 36 37 38 37 40 43 44 43 45 45
16 13 13 16 20 22 20 17 20 22 25 24 24 26 30 33 33 35 38 39 42 45 46 43 41 39 38 38 39 41 41 39 39 39 38 37 38 37 36 35 35 35 36 39 41 42 42 42 43
19 17 21 20 21 20 21 19 19 22 24 25 27 27 28 29 31 34 37 40 41 41 40 40 40 40 40 39 38 38 37 37 36 37 37 37 37 34 33 33 35 37 38 36 39 39 39 39 40
19 23 24 22 19 16 20 15 20 21 23 25 28 28 28 29 30 32 36 38 41 42 41 40 40 39 39 40 39 39 38 37 38 38 37 36 33 31 31 32 34 37 38 38 37 35 40 40 38
25 28 25 24 21 19 18 13 22 20 21 24 27 29 30 32 34 35 36 38 40 42 42 41 40 39 40 39 40 39 40 40 39 38 36 35 31 32 31 31 34 37 36 37 38 38 38 38 37
28 27 26 27 23 19 21 18 21 22 24 25 29 31 33 33 35 36 37 37 40 42 42 41 39 38 40 41 41 40 41 39 36 35 33 31 32 31 31 32 36 37 37 37 36 37 38 39 39
25 24 22 23 21 21 23 16 24 25 26 27 30 32 34 36 36 35 36 36 38 39 40 40 38 38 38 39 39 37 36 37 36 34 33 32 30 30 33 35 36 36 35 36 39 41 39 39 39
25 26 26 17 18 18 21 13 23 27 30 30 30 32 33 34 35 35 36 37 37 38 39 41 41 39 37 38 38 39 38 37 36 35 33 32 32 33 34 36 36 36 37 36 36 36 37 36 37
26 25 26 27 28 25 16 19 26 28 28 28 29 31 32 32 33 33 34 35 36 38 39 40 41 39 39 39 39 39 38 36 35 34 33 32 33 33 33 34 33 34 34 37 36 36 36 36 36
29 28 26 24 22 13 10 9 19 27 26 28 27 28 29 31 32 33 34 35 36 37 38 39 40 39 38 39 38 36 35 35 33 32 32 32 33 33 33 33 33 34 37 36 36 35 34 35 34
27 27 26 21 23 19 14 14 24 22 25 26 27 28 30 31 33 33 34 35 37 37 39 39 39 39 37 36 35 35 34 33 32 31 31 34 35 34 35 36 36 36 35 36 37 34 33 33 33
29 26 24 22 18 22 24 21 25 25 25 26 27 29 31 32 33 33 34 36 37 38 38 37 38 37 35 34 32 31 31 31 30 31 33 34 33 35 35 35 35 34 36 36 34 33 31 27 26

GFSSGP_sfc_30mbdewp_012.txt.gz
Dewpoint
38 32 30 25 22 17 14 27 32 34 36 36 38 36 40 46 48 46 50 55 62 63 65 67 69 69 69 69 69 69 69 68 67 67 67 67 67 66 64 64 64 64 64 64 64 65 64 64 65
31 31 21 22 20 16 19 28 30 34 34 31 35 33 40 43 48 47 50 57 60 63 65 68 70 69 69 69 69 69 68 67 67 67 67 67 67 66 65 63 63 64 64 63 63 63 62 62 62
41 30 19 18 16 13 22 30 35 32 31 33 34 43 40 41 45 46 52 56 63 65 66 68 70 70 70 70 70 69 69 68 68 68 67 67 66 64 63 63 64 64 63 63 63 64 64 64 63
29 22 14 13 13 21 24 32 32 32 36 34 36 39 42 44 45 47 51 54 56 62 65 67 67 68 68 68 69 69 68 67 67 67 67 66 64 63 64 64 64 62 62 61 62 62 63 63 64
30 20 13 15 21 25 29 30 30 34 33 32 33 42 45 46 44 44 46 48 50 58 62 64 65 66 66 66 66 67 67 67 67 66 66 65 64 64 63 63 62 61 60 60 60 60 61 61 61
19 13 12 14 22 27 29 29 32 36 32 28 33 42 46 45 43 42 42 44 45 54 58 59 63 64 64 64 65 66 66 66 66 66 65 64 64 63 62 61 61 60 60 59 59 58 58 59 59
20 17 13 19 22 25 29 28 23 22 26 26 31 39 44 44 44 41 41 42 47 48 51 55 59 60 62 62 64 65 65 64 63 63 64 63 63 62 61 60 60 59 58 58 57 56 56 56 57
15 12 12 18 16 17 18 21 22 22 24 24 28 32 39 46 45 42 41 42 45 50 51 54 57 59 60 61 62 63 63 63 62 61 61 62 62 61 59 59 58 57 57 56 55 54 52 54 54
11 8 12 10 12 7 8 7 11 17 23 24 33 32 44 46 45 42 41 42 45 49 52 52 52 52 59 59 60 62 62 62 62 61 60 60 61 61 59 56 56 56 56 56 56 55 54 53 53
7 7 4 3 3 3 3 3 5 15 19 20 31 40 48 47 46 43 41 42 46 50 51 55 54 53 51 48 57 61 59 61 61 60 59 60 57 57 55 56 58 57 57 57 57 57 57 57 54
7 5 4 3 5 1 1 1 4 10 10 15 24 32 45 47 46 44 41 42 47 50 50 57 57 55 53 51 49 53 54 53 56 59 57 58 55 58 57 58 59 59 58 57 57 56 56 52 51
7 6 5 4 2 1 -2 2 1 5 9 14 23 31 43 42 43 44 43 43 45 49 49 58 57 55 54 54 53 54 54 51 55 54 56 56 55 55 53 52 49 50 48 49 50 49 51 51 47
6 5 5 3 3 6 10 7 10 6 11 15 24 34 40 43 43 44 44 44 44 47 49 55 56 54 55 52 54 54 53 53 54 52 53 53 53 53 53 51 50 49 48 47 48 48 49 49 47
7 7 6 7 11 11 10 10 14 13 11 12 20 31 37 41 42 43 43 42 44 46 50 56 57 52 51 52 52 53 50 52 51 50 49 51 51 51 52 50 50 49 48 49 48 47 49 50 48
11 11 13 15 16 15 13 15 12 15 14 13 14 21 31 35 37 39 41 42 43 43 47 54 57 51 50 51 51 51 46 46 47 48 48 48 49 50 51 50 49 50 51 50 49 49 47 47 47
11 13 12 15 16 19 17 14 13 16 15 16 16 16 21 31 34 38 41 42 43 44 52 60 54 51 49 51 47 47 49 47 46 48 46 48 47 47 49 49 49 51 51 51 50 49 48 47 46
12 9 12 17 16 18 16 15 14 17 18 19 18 20 19 22 33 36 39 40 42 43 47 50 53 50 47 48 47 47 46 46 45 42 47 45 45 47 47 47 49 49 49 49 48 47 49 48 47
11 6 6 6 15 12 10 13 17 20 20 20 19 18 22 22 28 37 38 41 43 45 44 51 52 48 46 49 47 45 43 43 44 45 44 44 46 43 44 43 44 46 44 44 45 46 46 46 46
10 8 7 14 18 16 13 16 18 21 21 23 23 24 24 35 41 41 42 42 46 47 49 50 49 45 44 44 43 43 43 42 43 43 42 41 43 42 42 41 41 41 41 43 43 43 42 43 44
13 11 11 15 18 15 18 14 19 22 24 24 25 27 34 35 36 39 44 48 47 46 45 44 43 42 42 42 43 43 43 42 41 44 43 43 42 40 38 39 40 41 41 42 43 44 42 41 41
17 15 22 20 20 19 17 18 19 22 25 26 27 29 31 33 36 38 41 43 44 44 42 42 42 42 43 43 42 41 41 41 41 41 41 42 41 39 38 37 40 40 41 40 41 42 41 41 41
19 25 23 20 18 15 17 13 19 22 24 26 28 29 30 31 32 36 41 43 43 43 43 42 41 40 42 42 41 41 40 41 42 44 43 42 38 39 37 36 39 40 42 40 42 40 41 41 40
24 26 23 22 20 18 17 17 21 22 23 26 29 30 32 34 35 37 39 41 43 44 44 42 40 40 41 42 42 42 44 44 43 42 41 39 39 37 36 37 39 41 40 41 42 40 42 42 40
27 26 24 24 23 21 18 19 26 23 25 27 30 32 34 34 36 36 38 40 42 43 43 42 40 39 40 42 43 40 39 40 40 40 38 37 36 36 36 38 39 40 41 41 42 42 41 40 40
24 24 23 26 21 22 24 18 26 26 26 28 31 33 35 36 37 36 36 37 39 40 41 41 42 41 40 39 40 42 42 41 39 38 37 36 35 36 36 38 39 39 39 39 39 40 40 39 39
25 24 27 21 23 22 20 14 24 28 30 30 31 32 33 35 35 35 35 36 37 38 39 41 41 41 40 41 41 43 41 39 38 38 36 36 35 36 37 38 37 39 40 39 39 38 38 37 37
26 24 23 26 29 23 15 24 27 28 28 28 29 29 31 32 33 33 35 36 36 37 39 41 40 41 41 41 40 40 39 39 37 35 36 35 37 36 36 37 37 38 38 38 37 37 36 37 37
26 25 23 26 21 16 12 14 25 27 27 30 26 27 29 30 32 34 35 36 38 39 40 42 41 40 39 39 38 37 37 37 35 35 35 36 36 35 35 36 37 37 37 37 37 38 38 36 35
25 24 26 22 23 20 17 16 20 22 25 26 27 27 30 31 32 34 36 37 39 40 40 41 39 39 38 37 36 35 35 34 34 34 35 35 35 35 34 34 33 33 34 37 37 37 37 34 32
25 24 24 24 20 24 25 20 25 25 26 29 28 28 31 34 35 35 37 38 37 37 39 38 38 37 36 35 34 32 33 32 32 33 32 32 32 33 31 30 29 28 29 28 29 30 29 29 29

GFSSGP_sfc_30mbdewp_015.txt.gz
Dewpoint
32 31 33 28 21 21 16 25 35 35 31 41 45 47 48 48 47 47 62 64 66 67 68 69 69 69 70 70 70 69 69 68 67 68 68 67 66 65 64 64 64 64 64 63 63 63 62 62 62
37 30 31 23 20 18 22 34 31 29 33 42 42 44 45 45 49 56 60 63 66 67 69 69 69 69 70 70 69 69 68 68 68 68 67 67 66 64 63 64 65 64 63 63 63 63 63 63 64
37 32 22 20 18 16 28 32 29 30 34 40 41 43 44 45 49 55 64 66 67 68 69 70 70 70 70 70 69 69 69 68 68 68 67 65 63 63 64 65 65 63 62 62 62 62 62 63 63
32 27 17 12 12 17 32 32 32 34 36 41 41 43 44 47 50 58 64 65 66 67 68 69 69 69 69 69 69 68 67 67 67 67 66 64 64 64 64 63 62 61 60 60 60 60 61 61 61
35 25 15 14 16 31 30 31 35 34 36 45 45 42 42 47 50 53 61 62 63 64 65 66 66 67 67 67 67 67 67 67 66 66 65 64 64 63 63 62 61 60 60 59 58 57 58 58 59
22 17 13 13 28 30 29 33 34 36 33 45 45 42 41 43 44 46 55 58 61 62 63 64 65 65 65 65 65 65 65 66 66 65 65 64 63 63 62 61 60 59 58 57 56 56 54 55 56
21 19 15 13 20 27 25 23 26 35 31 44 46 42 42 41 42 43 49 56 56 58 58 61 62 62 62 63 64 64 63 63 63 63 63 62 63 62 61 59 59 57 56 55 54 53 53 54 54
19 16 11 12 20 17 20 15 22 23 21 34 44 42 42 41 41 43 46 49 51 53 56 57 59 60 61 62 62 62 62 61 60 61 62 61 61 60 60 59 58 56 55 55 54 53 54 55 53
17 9 8 9 14 13 12 10 9 23 26 39 39 44 45 43 41 40 44 46 50 52 54 56 57 58 59 59 60 61 61 61 60 61 61 61 61 60 59 59 57 56 56 56 56 56 55 56 55
12 9 6 3 8 4 5 4 6 19 22 41 45 45 44 43 41 40 41 44 50 51 53 53 54 59 56 56 59 60 62 61 61 61 61 60 60 61 59 58 57 57 57 58 57 57 57 57 56
9 4 2 2 3 3 4 6 9 18 18 35 45 45 44 44 43 42 41 45 50 51 55 55 53 53 53 55 57 60 60 61 61 60 57 55 58 57 55 58 58 58 58 57 57 56 56 55 53
5 5 3 2 4 3 0 1 1 9 12 27 44 47 46 46 45 42 42 45 49 51 56 56 54 53 53 54 55 54 53 56 56 56 55 54 55 52 52 49 48 50 49 52 51 49 47 49 49
5 4 3 2 5 10 8 5 8 11 17 25 40 45 46 46 45 44 43 43 48 51 57 56 54 53 52 54 54 53 53 51 55 52 51 52 54 50 51 51 50 49 49 48 47 46 46 48 47
8 4 2 1 11 11 9 10 13 11 14 27 37 43 42 43 43 44 44 44 47 50 57 56 56 55 52 54 53 52 51 51 52 49 51 51 51 50 51 50 50 49 50 51 49 48 49 50 50
12 8 7 10 14 13 14 14 13 14 11 17 29 39 41 43 43 44 44 44 47 49 59 59 58 56 53 51 50 51 43 47 49 48 48 49 50 49 51 50 50 50 52 50 50 50 50 48 48
9 13 12 15 17 15 13 11 14 14 14 14 18 20 33 41 42 43 42 44 48 56 59 60 60 57 55 53 50 49 48 46 47 50 50 48 48 47 46 46 46 48 49 49 48 48 48 48 47
12 10 15 14 17 20 17 15 16 16 15 15 16 16 19 30 37 40 41 43 46 52 58 57 57 56 55 53 48 48 45 44 45 46 45 46 44 43 42 41 41 45 43 44 45 45 45 43 43
11 11 16 16 15 13 10 11 19 20 20 20 20 23 20 37 41 45 47 49 50 52 57 58 58 56 51 48 47 45 44 45 45 44 44 44 42 41 40 40 42 40 41 41 41 41 42 43 43
12 12 16 17 17 15 14 15 22 24 23 25 32 36 38 41 46 47 47 49 50 49 49 47 46 44 45 42 41 41 41 42 43 42 43 41 40 39 39 40 40 42 41 41 41 42 41 41 41
14 18 20 18 17 14 15 18 23 26 27 30 33 36 38 41 43 44 45 45 45 44 43 43 42 42 43 43 44 43 43 43 42 42 44 44 42 40 38 38 40 40 42 41 40 39 41 42 42
22 22 22 20 20 19 18 20 23 26 28 29 31 35 36 39 41 43 43 43 43 42 41 41 40 41 42 42 41 41 41 41 43 44 42 42 39 37 37 38 39 40 41 39 39 41 41 40 41
24 27 25 21 20 16 17 18 22 25 27 30 32 34 35 38 41 42 42 42 42 43 41 41 41 41 41 41 42 41 44 43 43 42 42 39 38 36 38 38 39 40 40 39 42 43 42 41 40
26 26 24 23 22 22 19 19 21 27 28 29 31 33 35 37 39 41 42 43 43 42 41 41 41 41 42 42 42 43 39 40 42 41 38 37 36 37 37 37 38 39 41 41 41 41 40 40 39
25 27 27 26 25 22 24 22 26 27 28 30 32 34 35 36 37 39 41 42 43 43 42 41 41 41 42 43 41 40 41 40 39 38 36 35 37 37 36 39 39 40 40 40 41 41 40 39 39
26 27 25 24 24 24 29 25 29 29 29 31 34 35 36 36 37 37 40 41 42 42 42 42 42 41 42 42 43 41 40 39 38 35 35 34 35 35 37 38 39 38 39 39 38 38 38 38 37
28 26 22 22 20 21 17 23 27 29 31 32 34 34 36 36 36 35 36 36 39 39 41 41 41 41 41 41 41 40 39 39 37 34 34 34 37 36 36 36 37 38 38 38 38 37 37 37 37
27 21 23 27 29 24 23 27 28 28 29 30 30 32 34 35 35 35 37 38 40 41 41 41 41 40 40 38 38 37 39 36 34 34 36 36 36 34 35 37 37 37 37 37 37 37 37 37 37
23 24 24 24 19 17 18 26 28 29 32 32 28 30 31 34 36 38 38 38 38 40 41 40 39 38 38 39 37 36 36 36 35 36 34 34 34 34 34 34 34 34 34 35 36 36 35 35 35
25 26 25 24 24 19 18 18 27 31 33 31 30 32 35 35 35 37 38 38 38 38 39 39 38 37 37 35 35 33 33 34 34 34 33 32 33 32 33 31 30 27 28 28 30 31 33 33 30
25 25 26 21 22 27 25 22 27 31 31 32 32 34 34 34 36 37 38 37 36 36 36 35 35 36 36 35 34 32 34 31 31 31 31 31 30 31 32 26 23 23 22 23 22 23 25 24 23

GFSSGP_sfc_30mbdewp_018.txt.gz
Dewpoint
32 29 32 28 20 21 17 27 36 39 43 47 48 47 48 49 47 47 63 65 67 68 69 69 69 70 70 70 70 70 69 68 68 67 67 66 65 64 64 64 64 64 63 62 62 62 62 63 63
35 29 30 24 20 18 28 31 39 41 43 45 45 48 51 54 60 62 62 66 67 68 68 69 70 70 70 69 69 68 68 67 67 67 67 65 64 63 64 65 64 62 61 60 60 60 60 61 62
35 31 22 19 19 17 29 29 35 39 42 42 43 45 46 55 60 61 64 67 68 68 68 69 69 70 69 69 69 69 69 68 68 67 65 64 63 64 64 63 62 60 59 59 58 58 59 60 60
32 25 18 13 12 14 30 31 39 41 43 44 44 46 47 54 59 64 66 67 68 68 69 69 69 70 70 69 68 68 68 68 67 66 64 64 64 63 62 62 60 59 58 57 56 56 57 58 58
34 22 14 13 25 32 32 34 37 39 44 43 43 43 47 61 64 65 65 66 66 67 68 68 68 69 69 68 67 67 67 67 66 65 65 64 63 62 61 60 60 59 58 57 56 56 55 56 56
21 17 12 28 34 29 31 34 37 44 42 43 44 45 45 60 61 62 63 64 65 65 66 66 66 66 67 66 66 65 65 65 65 65 65 63 63 62 61 60 59 57 55 55 54 53 55 55 55
19 18 14 14 30 30 24 28 36 44 45 43 42 42 42 50 57 59 60 61 62 63 63 64 64 64 64 64 63 63 64 64 64 64 63 62 62 61 60 59 58 56 55 54 53 54 54 55 54
20 16 13 12 30 27 18 22 28 38 41 44 42 39 40 44 51 56 57 56 58 59 61 61 62 62 62 62 62 62 61 62 62 62 61 61 61 61 60 59 58 56 56 55 55 55 55 55 55
18 15 10 14 15 17 12 22 26 35 42 42 41 40 41 43 48 50 50 52 53 55 57 59 59 59 60 61 61 61 61 61 61 61 61 61 61 60 60 60 57 57 57 57 57 58 58 57 56
18 11 9 8 11 11 6 19 18 36 42 44 43 42 41 43 45 46 47 49 51 53 55 56 56 56 58 58 61 60 61 61 61 61 61 61 60 60 59 59 58 59 58 58 59 59 59 58 56
12 6 2 5 8 5 5 9 17 36 40 43 41 41 40 40 42 44 46 49 51 53 55 56 58 56 55 56 59 59 61 61 61 61 61 60 60 60 59 58 58 57 55 56 55 55 53 53 53
6 5 2 5 3 4 4 7 11 18 34 44 42 42 41 40 40 41 43 48 51 53 53 54 57 57 54 55 57 58 59 60 60 59 56 55 53 52 51 49 50 50 49 49 50 48 47 47 49
4 3 2 10 10 5 3 2 8 13 37 45 44 44 43 42 41 41 42 46 51 54 54 54 53 53 54 54 55 55 55 57 56 53 53 54 51 50 51 50 51 50 51 50 49 49 49 49 49
7 2 1 5 11 12 8 12 12 14 37 46 45 45 45 44 43 43 43 43 51 55 55 55 54 54 53 53 53 53 52 54 53 51 51 51 52 50 50 49 49 48 50 50 49 49 49 49 49
5 5 6 9 11 10 15 14 11 15 36 46 46 46 46 46 46 44 44 43 50 56 56 54 55 54 54 53 52 50 47 53 49 49 51 50 51 50 47 45 42 45 46 45 46 47 45 44 44
10 11 9 13 14 15 11 9 14 15 27 40 43 43 44 44 44 44 45 45 51 58 55 57 58 55 54 52 51 50 46 48 49 50 50 48 47 45 43 40 40 44 42 43 43 43 41 42 43
14 8 12 14 17 15 15 15 16 13 21 29 34 35 37 41 45 48 48 53 58 57 57 58 58 55 54 53 50 49 46 46 48 47 47 44 43 42 41 40 41 42 41 42 42 40 42 40 40
9 12 15 14 16 19 16 16 19 16 15 18 26 41 45 46 47 49 50 54 58 58 58 58 58 57 55 50 47 46 46 46 45 44 43 42 42 41 40 41 41 42 41 41 41 40 39 39 41
14 17 16 17 17 14 16 22 24 28 35 37 42 44 44 43 44 46 47 47 48 48 49 48 49 48 50 44 43 43 43 42 43 44 43 43 40 39 39 39 39 41 42 41 40 40 39 40 42
19 17 17 18 18 14 19 24 28 31 34 39 41 42 42 42 42 44 45 46 47 47 46 42 42 43 43 43 45 44 44 44 44 44 41 39 38 38 38 38 39 40 39 38 39 40 41 42 41
26 21 21 20 21 19 23 22 28 30 33 35 38 40 42 42 42 42 43 43 42 41 40 39 40 41 42 42 41 42 43 44 43 43 39 38 37 38 37 38 38 39 40 41 41 42 41 40 41
24 27 24 22 19 7 18 19 24 30 32 34 37 40 42 42 43 42 42 42 41 41 41 41 41 40 41 41 41 41 42 41 42 40 38 37 38 37 37 39 39 40 42 41 41 41 41 40 39
25 26 24 23 22 23 20 20 24 30 31 33 36 39 41 41 41 42 42 42 42 41 41 41 41 41 42 42 42 42 39 41 40 39 36 36 37 37 38 38 39 39 40 39 41 40 39 40 38
25 27 29 27 26 22 26 23 25 27 29 32 35 37 39 40 41 42 42 43 42 42 41 41 41 41 42 43 42 40 41 39 37 36 34 36 36 37 36 37 38 38 38 37 38 38 38 38 37
26 28 23 23 23 22 29 27 28 30 31 34 35 36 36 38 39 40 41 42 42 42 42 43 42 43 43 43 41 40 39 37 35 35 34 35 36 36 34 37 38 38 38 37 37 37 37 37 35
26 25 22 21 18 19 26 25 28 32 35 36 36 36 36 36 37 39 39 40 41 41 42 42 40 39 40 41 39 39 39 37 36 35 35 37 35 34 35 36 37 37 37 37 37 37 37 37 35
26 23 26 26 28 22 25 27 28 31 32 33 33 35 35 36 38 39 39 40 40 40 40 40 39 39 39 38 37 37 39 37 36 35 37 35 34 33 33 35 35 36 35 36 36 35 34 35 34
21 25 23 23 16 16 20 26 26 30 31 30 31 34 36 37 37 37 37 38 40 41 40 39 38 37 38 37 36 35 36 37 36 36 35 34 33 33 33 32 32 30 28 29 30 30 31 33 30
24 25 26 25 24 18 18 20 26 32 32 30 33 34 35 36 38 38 37 36 36 36 34 34 35 35 37 35 35 34 33 35 36 35 34 33 33 33 31 32 26 24 23 23 23 24 26 24 23
25 26 25 19 20 25 23 22 31 31 31 32 34 34 36 37 37 37 37 36 34 33 31 31 32 33 35 35 35 33 33 33 33 33 33 33 32 32 31 27 22 23 22 22 22 23 24 22 22

GFSSGP_sfc_30mbdewp_021.txt.gz
Dewpoint
32 29 32 27 19 21 16 18 38 40 45 48 49 49 51 55 50 47 62 65 68 68 69 69 70 70 70 69 69 69 68 67 67 67 66 65 64 63 64 64 63 60 59 59 59 58 59 59 61
31 31 28 23 19 16 28 35 40 43 46 46 47 51 53 56 61 62 63 67 68 68 68 69 70 70 70 70 69 68 67 67 67 66 65 63 63 64 63 62 60 59 58 57 56 56 57 58 59
37 30 19 19 19 16 27 37 42 44 45 43 44 45 52 58 61 61 65 67 68 67 68 69 69 69 69 69 69 68 68 68 67 65 63 63 64 63 61 61 60 58 56 55 54 54 56 56 57
32 24 17 14 14 17 29 37 41 43 43 45 47 48 49 58 61 64 66 67 67 68 69 69 69 69 69 69 69 68 68 67 66 65 64 64 63 61 60 60 59 57 55 54 54 54 55 55 55
31 20 14 13 17 25 32 40 41 41 42 43 45 46 53 63 65 66 67 67 66 67 68 69 69 69 68 68 67 67 67 66 66 65 64 63 62 61 60 59 58 57 56 55 55 56 56 55 55
20 16 12 31 32 32 36 39 44 43 43 46 49 48 51 64 64 65 66 65 66 67 67 68 68 68 68 67 66 66 65 65 65 64 64 63 62 61 60 58 57 56 55 54 54 55 56 56 56
18 15 13 26 33 30 36 32 42 42 43 43 45 46 56 60 63 64 65 65 66 66 65 66 66 66 65 64 64 64 64 64 63 64 64 63 62 61 60 58 57 56 55 54 55 56 55 56 56
21 16 14 14 34 32 28 27 42 44 43 43 43 48 54 54 60 61 62 63 63 63 63 62 63 63 62 63 62 62 62 62 62 63 62 61 61 60 60 59 58 57 55 56 56 57 57 57 57
19 16 11 29 33 37 36 27 30 41 41 43 42 46 54 54 57 56 56 57 58 59 59 60 60 61 61 61 61 61 61 61 62 61 61 60 60 60 59 60 58 58 57 57 58 59 59 59 57
20 14 12 19 32 37 29 37 40 42 43 41 40 44 49 53 52 49 49 50 53 54 56 58 59 59 59 59 60 60 61 61 61 60 61 60 60 60 59 59 60 60 59 59 59 58 58 56 55
16 11 4 5 16 17 20 30 32 42 41 40 39 44 46 49 47 44 46 47 48 52 55 57 57 57 57 57 59 59 60 60 60 60 60 60 60 59 60 58 56 53 51 52 51 50 49 49 50
14 8 5 5 10 6 12 13 36 28 40 41 40 43 45 46 46 46 47 49 50 52 54 55 56 55 55 57 58 58 59 60 60 60 59 57 54 53 51 50 51 50 51 50 49 49 49 49 49
9 3 7 7 6 4 4 5 11 18 43 41 40 41 42 43 45 46 48 49 51 53 54 55 57 56 54 55 57 57 58 59 59 58 56 55 51 50 51 50 49 48 49 49 47 47 47 45 45
7 3 6 10 9 6 7 11 13 25 44 41 40 39 40 41 42 43 46 48 51 53 54 55 56 55 54 54 56 56 57 57 57 54 53 54 51 51 49 46 44 44 46 45 46 45 43 42 43
5 4 5 10 10 11 15 13 13 29 44 42 41 41 41 41 41 41 42 47 51 53 54 55 55 55 54 53 53 53 53 55 54 51 51 52 51 48 45 41 41 44 44 44 43 42 41 40 41
11 11 7 11 13 15 9 2 14 35 45 43 43 44 45 45 45 45 45 44 51 55 56 59 57 56 54 53 52 48 49 50 50 51 49 47 45 43 41 41 42 43 43 42 41 41 39 39 39
13 8 11 13 15 14 12 13 15 28 45 44 41 42 44 46 48 50 51 48 55 57 58 58 58 57 57 54 50 47 47 47 47 45 44 43 42 41 41 42 42 42 42 41 41 39 40 37 37
8 10 13 11 15 17 14 16 23 17 30 31 43 44 45 46 48 53 57 57 57 57 58 58 58 56 51 47 46 46 45 44 44 43 42 41 40 40 39 39 40 40 38 38 38 38 39 39 40
14 15 15 16 17 16 22 27 31 36 38 41 43 44 44 45 46 48 50 52 52 53 55 55 55 51 45 45 43 43 43 44 45 43 40 39 39 38 38 38 38 39 38 39 40 40 40 41 42
18 16 17 19 19 22 27 29 34 38 41 43 42 42 43 44 46 47 48 49 52 50 48 43 43 43 43 43 46 47 47 46 44 39 38 38 38 38 37 37 38 39 39 40 40 41 40 41 41
25 20 20 19 20 24 25 28 31 34 38 41 42 42 42 43 44 46 47 46 44 41 41 41 41 42 43 44 44 44 44 45 42 39 37 38 38 38 39 39 39 40 41 40 41 40 39 38 39
22 27 23 21 17 19 21 23 27 32 36 39 41 42 41 42 44 43 41 40 40 40 40 39 40 41 42 42 41 41 40 41 42 39 37 38 38 38 39 39 39 40 39 39 41 40 39 38 37
25 27 23 23 21 21 21 23 25 32 34 37 39 41 43 42 42 41 40 40 40 41 41 41 41 42 42 42 42 43 41 41 39 37 36 37 38 38 38 37 37 36 37 37 37 38 37 38 37
25 28 29 30 26 20 26 22 25 29 33 36 38 40 41 41 41 42 42 42 42 42 42 42 43 43 43 43 42 41 40 38 36 35 35 35 38 37 36 37 37 37 37 36 36 37 36 36 36
27 28 23 22 22 22 26 25 26 29 32 35 37 39 40 41 41 42 42 42 42 42 42 41 41 42 41 41 39 39 38 37 36 35 35 36 37 36 33 37 37 37 37 36 37 36 36 36 35
24 26 23 21 21 19 26 25 27 32 34 36 37 37 37 37 39 40 40 40 40 41 40 40 39 38 40 39 38 38 38 37 36 36 36 35 36 34 34 35 37 37 37 36 37 37 35 35 34
26 23 27 26 26 22 26 27 32 35 35 35 35 36 36 38 39 39 40 40 39 39 39 39 38 39 38 38 38 38 38 38 36 36 36 36 35 34 33 34 35 34 35 33 35 34 31 32 33
23 27 21 22 14 16 22 25 27 31 32 34 34 36 37 37 37 37 38 39 40 38 37 36 36 36 37 38 37 36 37 38 38 36 36 36 34 34 33 33 33 31 28 27 27 26 27 30 25
24 24 25 26 24 16 17 24 26 30 32 31 35 36 37 37 37 36 36 37 36 34 33 32 33 33 36 36 36 36 34 34 35 36 35 34 33 34 33 33 33 25 24 23 23 23 26 24 23
26 25 23 15 18 24 21 18 28 33 31 34 34 35 37 37 36 36 35 35 34 32 31 31 29 27 31 34 34 32 33 34 33 34 34 34 33 33 32 30 28 25 23 23 22 22 24 22 21

GFSSGP_sfc_30mbdewp_024.txt.gz
Dewpoint
39 33 31 27 17 19 13 16 38 41 46 50 53 51 53 57 50 46 64 66 67 68 69 69 70 70 69 69 69 68 66 67 66 66 65 64 64 64 63 61 59 58 56 56 56 56 56 56 58
31 30 27 24 16 12 24 26 42 46 48 50 50 53 52 55 60 62 63 67 67 68 69 69 70 70 70 69 68 67 66 66 66 65 63 64 64 62 60 60 59 57 55 54 53 54 54 55 56
36 30 19 19 19 14 22 39 44 45 45 44 44 48 55 57 61 62 66 67 67 68 69 69 69 70 69 69 68 68 68 67 65 64 63 64 61 60 59 59 59 55 53 54 54 54 54 55 57
32 23 16 14 12 16 26 42 44 43 45 47 45 46 52 61 61 64 67 67 67 68 69 69 69 69 69 68 68 68 68 67 65 64 63 62 60 59 59 58 57 55 55 56 56 56 56 56 57
26 18 12 13 23 26 25 42 43 42 43 46 45 44 54 63 65 66 67 67 65 67 68 68 68 68 68 68 68 68 67 66 65 65 64 62 60 59 58 58 57 56 56 56 56 57 58 57 58
19 16 12 31 31 33 39 42 43 43 44 44 49 50 55 64 64 65 66 65 66 66 67 68 68 68 68 68 67 67 66 65 65 65 64 62 61 60 59 58 57 56 56 57 57 57 57 58 58
17 13 13 32 32 31 33 42 43 45 44 46 47 52 59 62 64 65 64 65 65 66 67 67 68 67 67 66 66 65 64 64 64 64 63 63 61 60 59 58 57 56 56 57 58 58 59 59 58
20 15 14 25 33 34 33 38 45 44 43 44 51 52 56 59 63 64 64 64 64 65 65 65 66 65 64 64 63 63 63 63 62 63 62 61 60 60 60 59 58 58 58 58 59 59 59 59 58
19 15 12 28 34 36 36 31 37 42 42 43 42 54 57 61 62 61 61 61 62 62 62 62 62 62 61 61 62 63 62 62 61 62 61 60 59 59 59 60 60 60 60 60 60 59 57 54 53
20 15 13 30 37 37 33 32 40 41 42 40 47 53 58 59 60 60 59 59 58 58 58 59 60 59 59 60 61 60 61 61 61 61 61 60 59 59 59 60 59 57 53 55 54 52 50 49 50
18 15 12 26 35 37 34 32 36 42 41 40 48 53 56 57 56 55 54 53 51 54 56 57 58 58 58 58 59 59 60 60 60 60 59 60 59 59 59 54 51 50 51 49 49 48 49 48 48
14 13 6 7 30 31 27 27 41 38 38 41 50 53 53 54 50 49 47 48 49 52 52 56 57 56 57 57 58 58 59 60 60 60 60 59 56 54 50 50 50 50 49 48 48 47 46 44 44
16 10 8 7 9 20 17 23 37 29 42 41 48 48 49 49 46 44 44 46 48 50 52 54 56 55 55 56 58 58 59 59 59 59 57 55 52 51 50 49 47 47 46 46 45 43 42 41 41
12 4 7 9 5 5 11 10 15 25 42 41 45 45 47 47 45 45 47 48 50 51 53 55 56 56 54 55 56 56 57 58 58 55 54 53 51 50 47 43 44 43 44 44 43 41 40 39 39
6 2 7 10 10 12 14 11 12 37 41 40 42 43 43 43 44 45 46 48 51 53 55 55 56 55 55 54 55 56 54 56 53 52 52 51 49 43 41 42 42 43 43 41 41 40 39 37 38
10 10 3 9 12 14 8 5 13 43 40 40 40 41 43 46 46 46 44 45 52 55 56 58 58 57 56 54 53 50 50 51 50 48 46 44 43 42 42 41 41 42 41 40 39 38 38 37 37
12 8 11 12 15 14 9 11 24 36 43 42 42 43 45 47 49 53 53 46 55 58 57 57 58 56 57 57 51 48 47 46 44 43 42 41 41 40 39 40 41 41 39 38 38 37 39 37 40
5 10 11 11 15 17 16 28 34 32 41 42 44 45 46 46 48 54 55 57 58 58 58 58 58 57 56 49 48 46 44 44 44 42 42 39 40 40 40 39 39 39 38 39 40 39 40 40 41
14 14 13 16 17 27 32 34 37 40 41 42 44 44 45 47 48 51 53 55 56 57 57 57 58 56 46 46 44 43 42 45 45 40 40 40 39 38 37 38 38 40 39 40 41 40 40 40 41
18 16 17 20 22 28 32 33 36 40 42 42 43 45 46 48 50 50 52 53 54 55 55 54 54 50 45 46 47 47 48 46 41 39 39 38 38 38 38 37 38 39 38 38 39 39 38 39 40
24 18 20 19 25 27 28 29 34 38 41 42 43 43 45 48 49 50 51 51 48 44 42 43 44 43 45 47 47 45 45 43 39 37 37 38 38 37 37 38 39 39 39 37 40 39 38 37 38
20 26 23 20 20 19 23 21 30 36 39 40 41 43 44 45 47 45 43 40 40 40 41 41 42 42 43 42 41 42 42 42 41 38 37 37 37 38 38 38 38 37 37 37 38 39 38 37 36
25 27 24 23 22 20 23 22 26 36 38 39 40 41 42 44 42 40 39 40 40 41 41 41 42 42 42 43 43 42 41 39 37 36 36 36 37 38 38 37 36 36 36 36 36 36 36 37 35
27 28 28 29 25 18 25 21 23 32 35 38 40 41 42 42 41 41 41 41 41 42 42 42 42 43 43 42 41 40 39 37 36 36 36 37 37 39 36 37 36 37 36 35 35 36 35 35 35
29 26 22 22 22 20 26 25 23 30 34 37 39 40 41 41 41 41 41 42 42 42 42 42 42 41 41 40 39 39 39 38 37 36 36 35 36 37 34 36 37 36 36 36 36 36 35 34 34
24 27 22 20 22 22 26 25 27 32 33 37 39 39 39 40 42 42 42 41 41 40 39 39 38 39 39 39 38 38 38 37 37 36 36 36 36 36 34 34 37 37 36 36 36 36 35 33 32
26 21 27 25 26 21 25 27 32 35 35 36 37 37 38 39 40 40 40 40 40 39 39 38 38 38 38 38 38 38 38 38 38 38 37 36 36 35 33 33 34 34 34 35 33 34 31 29 29
25 28 20 21 10 10 22 25 26 32 33 35 35 36 37 38 39 39 39 39 39 38 36 35 35 35 37 39 38 36 36 35 34 36 36 36 36 34 34 33 33 34 33 31 28 27 26 27 28
25 24 25 25 23 13 13 21 28 32 34 34 35 37 37 37 37 38 39 38 35 33 32 32 31 30 34 36 36 33 31 32 33 34 35 35 35 34 34 34 33 32 28 27 25 24 24 26 24
26 25 22 12 15 23 20 17 28 31 34 34 35 37 37 37 36 35 35 34 33 31 31 29 27 29 33 32 27 28 31 34 34 33 33 34 33 34 34 31 32 33 33 26 23 23 24 24 22

GFSSGP_sfc_30mbdewp_030.txt.gz
Dewpoint
41 26 20 28 20 16 18 21 35 45 49 51 52 50 50 53 50 49 62 63 65 65 64 65 68 69 69 68 68 68 67 66 65 65 65 63 61 60 59 60 58 56 54 53 54 56 56 57 57
21 24 26 22 12 12 15 19 36 48 49 48 48 49 48 51 59 62 61 65 65 65 64 63 68 69 69 69 69 67 66 65 64 64 63 60 60 59 58 58 58 58 55 54 56 56 56 57 58
29 24 20 15 9 10 16 36 44 45 45 47 48 51 50 52 60 61 64 66 65 65 63 65 68 69 69 68 68 67 67 66 65 64 60 59 58 57 57 59 60 59 56 56 57 56 55 56 57
19 21 18 13 10 14 31 42 43 44 42 44 51 46 56 59 60 64 66 66 65 64 64 67 69 68 68 68 68 67 67 66 65 63 60 57 57 57 58 60 60 58 58 58 58 58 58 58 57
24 18 14 13 14 16 34 44 45 43 45 41 43 47 52 61 63 66 66 65 65 64 64 66 67 67 68 68 68 67 66 66 65 63 61 58 57 58 59 60 60 59 59 59 59 60 60 60 59
15 17 12 14 25 29 33 44 43 41 41 43 43 43 56 63 63 65 66 65 64 64 64 65 67 67 68 68 68 66 65 66 65 64 62 60 59 60 59 59 59 60 60 60 60 60 60 60 59
15 12 15 26 31 36 38 44 41 37 38 42 45 47 59 62 64 65 64 63 64 64 64 65 64 66 68 67 66 65 65 65 64 64 62 61 60 60 60 61 61 61 61 61 59 57 57 57 57
19 15 26 30 30 34 42 41 38 37 38 47 50 46 56 61 63 64 63 64 65 65 65 64 62 62 62 62 64 64 64 64 63 63 61 60 59 59 58 60 61 60 61 59 56 54 53 52 53
22 13 20 31 32 38 41 39 40 41 43 46 47 51 56 63 64 63 63 64 64 65 65 63 60 60 59 57 61 62 63 63 62 61 60 58 55 55 55 59 57 58 58 57 55 52 48 47 46
18 14 13 24 34 34 35 37 38 42 43 43 51 58 62 63 63 61 62 62 63 64 65 62 60 60 58 54 56 56 55 57 58 58 58 57 59 58 57 55 55 54 53 51 49 46 43 42 41
18 15 16 30 36 37 36 38 40 39 41 42 45 59 60 61 62 60 61 61 62 62 59 60 60 58 54 53 54 54 57 58 59 60 60 61 60 59 55 51 51 51 50 46 44 42 42 44 41
18 17 17 34 35 31 34 37 38 38 38 42 47 58 61 60 61 59 59 57 55 53 53 54 56 57 56 53 54 57 57 59 59 60 62 60 59 57 52 50 50 48 46 45 43 42 43 41 40
18 15 14 24 31 26 32 34 35 38 40 45 53 56 56 54 55 54 52 50 49 48 50 52 54 55 56 57 58 59 59 60 61 61 60 58 55 55 51 49 46 45 44 43 43 42 40 39 38
18 13 9 12 25 32 32 33 37 36 44 50 53 52 50 47 45 46 46 45 46 48 52 54 53 55 56 57 58 60 60 60 61 60 60 58 55 53 50 47 45 44 44 43 41 41 40 39 38
12 8 9 9 16 28 31 27 23 36 43 47 48 48 48 46 44 42 41 42 45 50 54 55 56 56 56 58 58 56 55 57 59 59 58 57 53 50 48 46 45 45 43 41 40 39 39 39 38
7 8 6 12 16 17 27 17 26 39 41 45 47 48 48 46 43 41 42 42 46 50 55 57 58 58 58 57 57 58 57 57 57 56 54 50 48 48 47 46 44 42 40 40 40 40 40 37 36
9 7 6 11 18 17 20 13 29 39 39 40 44 45 44 44 46 49 48 44 47 52 57 57 58 58 57 57 57 57 55 53 53 49 48 48 47 46 44 42 42 41 40 41 39 36 33 32 32
10 9 4 7 17 13 17 24 29 38 39 39 41 43 43 45 48 52 51 49 52 55 57 58 58 58 57 56 56 53 52 49 46 45 47 45 44 44 42 42 43 40 38 35 35 34 32 30 30
9 10 10 15 27 20 19 26 30 38 40 40 41 43 44 45 50 54 55 55 55 57 58 58 58 58 56 55 51 48 47 46 47 44 44 43 42 41 42 40 39 37 36 36 35 33 30 29 31
12 11 17 21 26 27 27 29 33 37 40 41 41 42 44 47 51 54 55 55 56 56 57 58 57 57 56 53 50 47 46 46 44 42 43 42 41 41 40 39 37 35 33 35 34 33 30 27 29
20 17 19 18 26 28 27 27 31 36 40 42 44 44 46 49 51 53 54 55 56 56 57 56 56 55 52 49 49 48 48 44 41 41 40 41 41 39 40 38 35 34 33 31 34 33 31 29 28
18 24 22 23 19 14 24 12 29 35 37 41 43 45 48 50 52 53 54 55 55 55 56 55 52 48 48 49 46 46 42 42 44 42 41 40 40 38 36 35 37 37 35 35 33 30 33 30 28
24 25 23 21 19 20 20 16 26 36 35 40 45 48 50 50 50 50 49 49 48 50 52 53 50 46 46 46 45 45 44 43 41 40 39 39 38 39 37 37 38 38 37 35 34 33 33 30 28
29 26 26 24 22 16 17 19 11 29 32 39 44 46 48 46 46 43 42 41 42 44 47 48 45 44 45 45 46 44 43 40 37 36 33 31 32 34 35 39 39 39 37 36 34 34 33 31 29
29 24 15 18 17 14 25 20 12 25 33 39 42 41 45 42 40 39 40 39 41 44 45 45 43 43 44 44 41 39 37 35 31 32 31 33 32 32 31 36 38 38 37 37 35 33 33 31 29
24 22 14 7 12 14 26 19 21 30 32 38 41 39 42 40 39 39 39 40 42 43 44 43 42 41 41 39 37 36 35 34 33 35 36 31 29 30 34 37 35 34 35 34 33 33 32 32 30
25 20 28 26 27 23 17 23 27 32 32 36 39 38 39 38 39 40 41 42 43 43 43 42 39 37 36 37 35 36 37 37 34 29 29 29 31 29 27 30 30 31 31 32 33 32 32 31 29
27 27 22 24 18 10 10 15 13 29 31 35 38 38 37 37 39 41 41 43 43 42 42 39 35 34 36 35 37 36 34 28 26 27 27 26 26 26 25 25 25 28 30 31 33 32 29 30 29
26 24 24 22 23 10 6 4 26 27 31 33 37 37 37 38 39 41 42 42 41 39 36 34 32 32 33 33 34 31 26 26 26 25 25 26 27 26 25 27 28 28 29 31 31 31 30 27 26
27 24 21 14 16 24 22 9 23 30 33 33 36 37 38 39 40 41 41 40 37 34 33 32 30 30 31 30 27 25 24 24 24 25 25 27 27 27 28 30 30 29 30 31 33 30 26 26 24

GFSSGP_sfc_30mbdewp_033.txt.gz
Dewpoint
45 37 20 18 20 21 19 19 22 40 44 49 48 47 48 54 53 47 58 63 62 61 62 64 69 69 69 68 68 67 66 66 65 65 64 61 60 59 59 59 58 56 54 57 56 56 57 57 57
28 14 12 18 16 13 12 16 40 48 52 48 49 49 48 50 57 59 60 63 63 62 62 63 69 69 69 69 68 67 66 65 64 63 61 60 59 58 57 59 60 57 57 56 54 54 54 55 56
26 13 17 15 15 11 12 34 44 44 45 47 47 48 47 53 59 60 61 64 64 63 62 65 68 69 69 69 68 67 66 65 64 61 59 58 57 57 59 61 60 59 58 57 57 56 55 55 56
18 9 17 16 15 13 17 40 41 39 42 44 46 46 51 57 57 62 64 65 63 63 64 67 68 68 68 68 68 66 66 66 64 61 59 57 57 59 60 61 60 59 58 58 58 58 58 58 57
18 14 9 14 15 14 18 41 41 45 43 42 44 49 49 53 59 62 63 64 64 64 66 66 67 67 68 68 67 66 66 66 64 61 59 58 58 59 60 60 60 59 59 59 59 59 59 59 58
10 10 11 12 14 24 24 42 43 41 38 37 38 45 50 56 55 59 63 65 65 66 65 65 66 66 68 68 67 66 66 66 64 62 61 59 59 60 59 60 60 60 60 60 58 58 58 58 57
12 10 9 12 28 33 27 39 43 39 37 35 39 40 54 57 58 64 63 65 65 66 65 64 64 67 67 66 65 65 65 65 64 63 62 61 61 61 61 61 61 61 61 58 57 57 57 56 53
10 12 12 17 30 36 34 37 40 37 40 48 45 48 46 59 63 60 62 61 64 64 64 64 64 61 63 62 64 64 64 64 63 61 60 59 58 57 59 59 58 60 59 57 56 51 50 52 47
17 13 11 28 36 37 39 39 39 37 37 41 47 45 53 61 61 60 62 62 63 63 62 60 57 58 57 58 61 62 63 63 61 59 59 58 53 55 56 56 58 58 57 54 50 46 43 43 46
13 8 9 30 41 45 36 33 36 38 39 42 47 51 60 62 60 60 60 60 61 62 57 56 56 56 54 50 54 53 56 55 56 56 56 56 56 58 54 53 55 53 51 48 44 42 43 44 42
13 12 19 18 29 32 34 34 33 34 38 39 42 56 60 60 60 59 59 60 61 60 53 55 57 56 49 51 51 52 56 56 56 58 59 60 56 57 56 51 51 51 51 48 45 44 43 44 43
14 14 17 23 33 35 28 33 29 39 40 40 49 59 60 59 59 58 58 59 57 53 54 54 55 53 51 50 51 53 55 57 58 59 60 58 58 56 53 48 48 49 46 47 44 44 44 43 42
17 16 17 30 31 30 34 33 35 38 40 40 54 57 57 55 54 56 53 51 51 49 49 50 52 53 54 53 55 56 58 60 61 61 60 56 56 57 53 50 47 47 45 45 45 44 43 43 41
16 16 21 26 28 27 30 30 39 35 37 44 50 51 50 49 47 47 46 47 46 46 48 50 51 53 56 56 58 59 59 59 59 60 61 60 58 58 52 50 47 46 47 46 43 43 42 42 41
15 14 18 21 23 27 30 24 27 35 38 41 42 42 40 40 40 41 42 43 45 47 51 51 54 56 57 59 56 55 55 55 57 59 60 59 58 54 51 51 49 46 44 43 42 42 42 41 38
12 11 12 16 17 26 27 19 29 34 36 38 39 39 38 37 36 38 39 42 46 49 51 54 54 56 58 55 53 55 59 58 58 58 57 54 53 51 48 49 46 44 43 43 43 40 38 36 35
10 12 10 11 13 19 26 27 28 34 35 38 40 42 41 41 38 38 39 40 45 51 54 55 56 58 58 58 58 57 57 56 56 53 52 51 48 48 46 44 44 44 43 42 40 38 36 34 32
12 12 10 8 14 18 17 15 24 32 31 35 39 41 42 41 41 46 45 42 44 51 56 56 58 58 57 57 57 56 55 53 51 48 47 47 45 46 45 45 45 43 40 39 39 38 34 30 27
15 11 6 10 17 12 12 11 20 29 31 33 37 40 41 43 46 50 48 46 49 54 56 57 58 58 57 55 53 52 51 48 48 46 46 46 45 44 44 42 41 41 37 39 38 34 31 29 29
11 8 13 15 17 18 10 12 24 28 30 31 34 38 41 43 47 50 51 52 52 55 56 57 58 58 55 54 52 50 48 47 46 45 45 44 43 43 41 42 39 38 36 33 32 34 33 30 29
11 12 14 13 18 19 19 17 24 31 34 36 36 37 39 42 46 50 51 53 55 55 56 57 57 57 54 51 49 48 48 47 44 44 43 43 43 41 40 39 38 36 33 30 33 33 32 29 29
15 21 17 18 18 14 21 11 19 28 32 37 39 40 40 42 47 50 52 54 55 56 57 56 55 53 51 48 46 45 42 41 42 42 42 42 41 40 38 36 36 36 35 34 33 31 32 31 28
23 22 21 19 15 20 17 11 28 28 27 33 36 40 43 46 48 50 52 54 54 54 53 52 51 48 47 47 46 46 43 45 44 43 43 42 41 40 36 36 37 36 35 34 34 34 33 31 29
25 23 23 21 16 15 12 14 13 24 25 30 37 41 44 47 49 49 49 49 48 51 52 51 46 45 46 46 46 45 45 43 40 38 35 31 30 30 32 33 34 35 34 34 33 33 32 31 32
23 20 16 17 14 13 19 16 12 16 27 29 39 43 46 47 46 43 42 40 43 47 49 49 44 44 45 46 45 45 42 38 34 32 30 32 30 29 28 31 33 32 32 31 31 35 34 33 33
21 17 17 11 8 9 21 11 15 25 29 33 40 42 45 44 42 39 38 38 41 44 44 43 43 43 44 44 40 37 33 32 31 33 32 28 28 29 30 29 29 30 30 29 30 32 34 33 34
20 19 23 20 28 18 8 11 25 29 30 32 38 40 42 41 39 37 38 39 41 43 44 43 43 42 42 38 35 35 34 34 31 29 28 27 28 25 23 26 25 25 25 27 28 30 33 33 32
25 24 18 18 17 11 6 6 14 24 25 31 36 38 40 39 38 38 38 40 42 43 44 44 42 39 37 34 34 35 35 31 27 27 27 27 26 26 26 25 25 26 27 27 27 28 31 32 34
25 21 19 20 21 14 6 8 15 19 24 29 33 37 38 39 38 39 40 42 43 43 44 42 38 34 33 33 35 34 30 27 27 26 26 25 26 26 25 25 26 27 26 26 30 30 32 30 29
25 22 22 17 14 18 23 11 18 21 23 29 31 35 38 38 37 39 41 42 43 43 41 38 34 31 33 33 31 32 28 25 25 25 24 26 27 26 25 26 27 27 28 30 31 30 27 28 27

GFSSGP_sfc_30mbdewp_036.txt.gz
Dewpoint
44 44 38 22 15 20 19 18 37 45 48 50 48 49 53 54 54 51 61 61 61 60 65 67 69 69 68 69 68 68 67 65 65 63 63 62 61 60 61 60 59 59 56 55 54 55 55 55 55
31 30 16 9 15 15 14 38 41 48 52 55 51 47 49 54 57 60 61 61 61 61 62 66 69 69 69 68 68 67 65 65 63 62 61 60 59 60 60 60 60 59 56 55 54 53 53 54 54
37 23 9 12 14 14 13 40 42 44 48 53 49 47 50 55 59 60 63 62 61 60 63 67 68 69 69 68 67 66 66 64 62 61 59 58 59 60 60 62 61 59 57 56 56 56 56 57 56
21 17 7 14 15 15 30 41 39 40 44 45 46 46 49 57 57 61 65 62 62 61 65 68 67 69 68 68 67 67 66 63 62 60 59 59 60 61 61 62 61 59 58 58 58 58 58 58 56
18 14 4 8 12 14 17 41 41 45 46 42 44 48 46 54 61 63 64 64 63 66 66 66 67 68 68 67 66 67 65 63 62 61 61 60 60 60 61 62 61 60 59 58 58 58 58 57 55
12 11 10 10 11 28 26 44 45 44 49 37 43 43 46 55 58 60 64 64 64 65 65 66 67 68 67 67 66 66 65 64 62 61 61 61 61 61 61 62 61 61 59 57 58 58 57 54 49
12 9 7 9 11 20 31 43 45 43 41 37 37 47 53 51 59 62 64 65 66 65 64 65 66 67 66 65 65 65 65 64 63 62 62 62 61 61 61 61 61 60 58 57 55 54 54 53 48
9 10 10 11 10 31 39 47 49 48 42 46 50 36 48 58 62 59 59 63 63 64 65 64 65 65 63 63 64 64 63 62 60 59 59 58 58 59 59 57 60 59 57 54 48 46 46 47 46
13 9 11 11 24 39 41 44 44 39 39 43 46 52 56 61 60 58 59 61 62 63 64 63 62 62 62 63 63 63 63 60 59 58 59 58 56 58 57 56 58 57 54 48 43 41 43 46 45
12 13 10 21 43 40 44 49 35 35 34 38 50 59 60 57 56 58 59 60 61 61 62 60 62 60 58 55 60 60 60 58 57 57 57 59 59 56 55 53 54 52 49 47 42 42 44 46 45
13 12 12 19 42 45 43 41 35 35 34 39 45 58 60 59 60 59 59 58 59 60 60 59 58 58 53 53 56 57 58 59 59 59 60 60 60 57 55 53 52 53 52 52 47 48 47 47 47
11 12 11 23 43 43 42 37 37 37 36 42 54 58 59 57 57 58 59 59 56 54 56 57 56 55 53 54 54 57 59 59 61 60 60 59 60 58 55 55 54 51 51 48 50 49 47 45 45
11 14 16 32 32 32 32 36 42 39 37 49 57 58 56 54 56 56 58 57 52 53 55 55 55 55 54 54 60 60 60 62 61 61 61 61 60 59 56 53 52 51 51 48 45 45 44 46 45
14 18 28 30 25 29 36 41 43 41 44 52 55 54 52 49 51 53 50 50 50 50 53 54 55 56 56 60 60 60 61 61 60 60 61 60 58 58 57 52 50 49 46 46 45 46 47 45 43
18 15 22 22 25 30 42 37 30 34 44 47 47 47 46 45 47 46 47 48 47 48 51 52 55 57 61 60 58 57 56 57 59 60 60 59 57 54 53 51 49 46 46 47 47 45 43 41 40
17 16 17 21 19 28 35 34 29 32 37 40 40 41 41 42 42 43 45 45 47 49 50 54 56 60 58 56 55 57 59 58 58 59 57 54 52 51 51 48 48 47 47 46 45 42 41 39 38
14 13 11 17 16 24 31 29 29 30 35 36 37 36 35 36 38 40 43 45 48 51 53 55 59 59 57 57 58 59 58 57 56 54 53 51 50 49 48 47 48 48 46 44 42 42 40 36 34
16 15 16 11 11 15 26 25 25 27 33 36 37 37 38 36 35 38 40 43 48 53 55 56 59 60 59 59 58 57 55 55 54 52 50 48 47 48 48 47 47 46 43 42 42 41 38 35 34
19 17 12 11 12 12 24 20 19 23 28 35 38 40 40 40 42 44 44 44 47 56 57 58 59 59 58 57 54 53 53 51 50 49 48 48 48 46 45 46 45 43 42 40 40 38 37 36 36
18 15 18 12 12 11 12 10 15 21 24 30 37 39 41 42 44 49 48 46 49 57 57 59 58 58 57 56 54 54 51 50 49 49 48 47 46 45 45 43 42 41 39 37 38 38 37 35 35
13 12 18 16 13 10 15 7 17 22 23 25 33 37 40 42 46 49 49 51 53 57 58 59 58 58 57 55 53 51 50 49 46 47 46 46 45 44 41 41 39 39 38 37 38 37 36 34 34
13 23 20 16 15 13 22 16 16 22 25 26 29 33 37 40 45 49 51 52 54 58 58 59 58 57 57 53 49 48 48 46 45 46 46 45 43 42 40 38 38 39 39 39 39 36 38 35 34
21 23 22 15 14 21 18 20 24 24 27 30 35 36 37 39 43 47 51 53 56 58 58 58 58 56 54 49 48 49 47 47 46 46 45 45 45 43 41 38 39 40 40 40 39 39 39 37 35
26 23 20 19 17 22 25 24 22 25 27 31 33 37 39 41 46 48 51 54 55 57 57 58 56 50 49 48 48 47 47 44 44 43 42 39 36 35 36 36 37 37 37 37 37 37 38 36 36
19 17 18 24 26 17 15 15 22 27 31 42 35 36 40 45 46 48 50 52 53 54 54 51 47 46 48 47 47 48 46 41 37 35 34 34 33 32 34 34 34 34 34 34 35 35 37 37 36
29 13 18 21 27 22 19 14 17 25 26 30 37 41 44 46 48 48 48 47 48 50 51 49 46 45 46 47 46 44 39 36 33 37 35 32 31 32 32 30 31 31 31 31 32 35 35 36 36
17 17 20 21 27 20 14 6 27 26 26 28 38 41 43 44 45 44 42 43 45 47 48 47 44 44 46 45 41 38 36 35 35 36 32 31 31 28 30 30 30 29 30 32 32 32 33 35 35
22 21 20 16 13 14 10 9 25 24 23 28 36 39 42 43 43 40 39 41 43 45 46 46 45 44 45 40 39 37 38 36 35 30 30 29 28 28 29 29 28 29 30 31 31 33 33 34 35
23 20 18 15 21 19 16 13 14 17 21 26 31 39 40 42 41 39 39 40 43 45 46 46 45 43 40 37 37 37 36 33 30 30 29 27 28 28 28 27 28 29 29 32 31 33 32 31 31
22 23 20 22 16 19 23 21 17 18 19 26 28 34 39 41 40 39 39 41 42 44 45 45 44 40 37 36 38 36 33 33 31 29 28 28 28 29 28 27 27 29 29 29 29 31 31 29 28

GFSSGP_sfc_30mbdewp_039.txt.gz
Dewpoint
44 45 45 34 18 20 19 21 46 49 49 53 53 55 55 56 54 51 63 63 66 68 69 69 69 69 69 69 68 67 66 64 63 62 62 62 61 61 62 61 60 58 55 53 53 52 53 53 55
36 35 38 24 10 12 16 29 45 48 51 53 49 51 55 56 60 61 60 63 65 67 68 68 69 69 69 68 67 66 64 63 62 61 61 62 61 61 62 62 60 59 56 55 54 54 55 55 56
41 36 21 9 9 10 15 39 43 50 52 49 46 48 53 57 60 62 62 62 65 65 67 68 69 68 68 67 67 65 64 63 62 61 61 61 60 61 61 62 60 59 56 56 56 55 54 53 52
30 21 16 6 11 15 15 41 44 46 46 47 46 48 51 59 59 63 64 63 62 65 67 68 68 68 68 67 66 64 63 62 61 62 62 61 61 61 61 62 61 58 57 57 56 55 53 51 50
24 21 8 6 8 18 39 44 45 44 43 45 47 46 51 56 63 65 65 65 65 66 67 66 66 67 67 67 65 64 63 62 62 63 62 62 60 60 61 62 61 59 57 56 56 56 53 52 52
24 16 12 9 9 14 44 45 44 43 44 45 48 46 50 58 63 65 66 66 66 65 64 63 64 66 67 66 65 64 63 62 63 62 62 62 62 62 62 62 61 59 57 57 56 55 53 49 48
21 13 11 9 8 36 47 49 45 44 42 42 46 49 52 55 63 65 64 66 65 64 62 63 66 65 66 66 64 63 62 63 62 62 62 61 61 61 61 61 60 58 56 52 51 50 50 47 45
18 12 9 9 9 42 46 48 49 43 41 46 51 49 50 59 60 63 63 64 63 64 63 65 64 64 64 64 63 62 61 61 60 59 59 59 59 59 57 59 60 57 54 48 44 44 47 49 45
18 13 10 9 26 40 48 44 47 49 43 47 54 55 59 57 60 61 61 61 61 63 63 63 62 62 63 63 63 61 60 58 58 58 58 58 59 59 57 56 57 54 51 46 41 42 46 47 47
14 13 12 18 38 41 45 44 46 44 40 52 50 60 59 56 55 58 59 58 58 60 63 63 62 61 61 61 61 61 59 57 57 57 58 57 58 57 53 55 54 52 50 45 42 44 48 46 46
14 12 13 26 42 43 44 42 45 43 41 45 51 57 56 56 56 58 58 57 57 59 61 62 61 59 56 58 59 59 58 56 57 57 57 58 59 57 54 54 54 53 52 50 49 47 46 44 46
12 13 14 39 42 40 40 40 38 38 41 52 54 57 55 58 57 58 59 57 58 60 60 59 60 56 54 57 57 57 58 59 59 60 61 59 60 59 56 52 54 54 51 47 46 45 45 46 45
13 11 33 41 42 41 39 37 34 36 53 58 57 58 58 58 58 58 59 59 57 58 56 56 57 52 53 56 59 59 61 61 61 61 59 57 56 57 55 53 50 48 47 44 44 46 45 43 41
13 13 29 38 39 39 36 39 35 35 45 55 53 56 57 56 56 56 57 58 57 55 54 55 54 54 58 61 61 61 61 61 61 61 59 58 57 54 51 49 48 45 45 47 46 44 42 40 40
23 17 28 32 37 36 31 32 37 40 47 53 54 54 54 55 56 55 54 52 54 54 54 54 54 59 60 59 57 57 57 59 59 60 59 56 55 52 51 48 45 45 46 46 43 41 41 39 38
18 18 19 20 35 37 31 31 35 36 46 51 51 49 48 52 54 51 51 50 51 52 53 54 57 59 57 56 57 58 58 58 59 58 54 51 51 50 49 47 46 47 48 45 43 41 39 36 35
19 14 15 19 32 33 29 28 30 40 46 46 46 44 44 43 46 48 47 48 50 51 53 55 59 57 56 57 58 57 57 57 57 55 52 50 50 48 46 47 47 46 45 42 41 40 38 35 34
18 16 16 17 29 30 27 26 28 31 37 38 40 38 39 40 43 44 47 48 51 53 54 59 58 57 57 57 57 57 56 56 54 53 51 48 48 49 49 48 45 45 43 42 41 39 38 36 36
23 22 19 18 17 28 25 22 25 28 35 37 36 36 36 37 40 43 44 50 52 55 56 59 57 58 57 57 57 55 54 53 51 50 48 48 48 47 48 47 46 43 40 38 39 38 36 35 36
26 25 18 18 13 22 24 22 24 24 28 37 38 39 37 41 41 43 44 51 53 55 59 59 58 58 57 57 56 54 52 50 49 48 49 48 46 46 44 42 41 40 37 38 37 37 36 36 34
24 21 19 18 14 11 16 19 19 22 26 33 39 41 41 43 44 46 46 53 56 56 58 58 58 57 56 57 55 53 50 50 48 48 47 45 45 44 42 41 39 38 38 36 37 36 37 34 34
19 21 22 23 19 13 21 16 20 21 22 25 37 40 42 42 49 48 48 53 56 58 58 59 58 57 56 57 52 49 48 47 46 46 46 45 42 41 41 40 39 39 39 38 39 38 38 36 34
22 24 23 23 20 20 20 19 22 21 25 25 28 35 41 43 49 49 50 52 58 58 59 59 59 58 57 57 50 48 48 47 48 47 45 44 42 42 41 41 40 38 38 38 38 36 38 38 36
25 24 24 29 25 19 17 19 23 22 22 28 30 36 37 41 49 50 51 56 58 59 59 58 57 57 57 52 50 48 48 45 45 45 45 45 44 38 36 36 35 35 34 33 34 35 35 36 36
27 22 21 19 21 21 26 24 22 26 26 28 31 34 39 45 48 51 54 55 56 56 56 57 57 55 51 48 49 48 46 44 43 42 37 35 33 35 33 31 31 32 32 32 32 32 33 35 36
23 25 23 17 21 23 27 22 23 27 29 33 33 35 42 46 48 52 53 54 55 55 56 57 55 48 48 48 47 43 37 35 37 35 34 32 33 32 30 31 30 29 30 31 31 31 32 34 36
22 21 25 27 31 26 24 17 26 27 32 36 37 39 45 47 48 50 51 52 54 54 52 48 47 47 47 47 43 37 37 36 36 35 32 33 31 31 30 29 29 29 30 31 30 33 34 35 35
23 23 21 22 16 17 17 16 24 26 29 36 40 43 45 46 47 46 46 48 49 49 50 48 46 46 47 43 37 36 36 35 36 32 31 31 30 29 29 28 28 28 29 31 32 32 32 33 33
23 21 20 20 23 18 18 13 20 23 27 30 40 42 44 44 45 43 42 45 46 47 47 47 46 46 43 39 37 38 36 35 31 31 32 30 30 29 28 28 27 27 29 31 30 31 31 31 30
23 26 27 19 17 22 22 19 18 19 25 27 30 41 43 44 43 41 40 43 44 45 46 46 46 43 39 38 38 36 34 33 31 32 31 29 29 30 28 28 27 29 31 28 28 30 30 28 28

GFSSGP_sfc_30mbdewp_042.txt.gz
Dewpoint
52 49 42 34 18 20 18 20 37 47 49 52 56 56 56 58 54 48 61 63 67 68 69 69 69 69 69 68 68 66 64 62 61 62 62 62 62 61 61 60 59 57 54 54 54 53 54 55 56
39 40 37 25 10 10 13 19 32 48 51 51 49 54 56 56 60 61 62 66 66 68 68 68 69 69 68 68 66 65 62 61 62 62 62 63 62 60 60 60 59 58 55 54 52 52 53 54 56
40 35 25 15 8 8 11 36 46 50 52 49 47 52 56 57 61 60 64 66 66 67 67 68 68 68 68 67 65 64 63 62 63 63 62 62 60 59 60 61 60 58 55 53 51 52 53 55 55
30 23 18 8 8 12 13 31 48 49 47 47 49 50 54 58 61 62 64 66 66 66 67 68 68 68 67 66 65 63 62 63 63 63 62 61 60 60 60 61 60 58 55 52 52 52 53 53 55
24 20 14 5 6 15 44 45 47 44 44 46 46 48 54 59 64 63 64 65 66 66 67 67 67 67 66 65 64 63 63 64 64 63 63 61 59 59 60 60 59 58 55 54 53 51 52 53 53
24 17 12 10 14 44 46 49 46 44 45 46 46 48 52 63 63 64 65 65 65 64 63 64 64 65 65 64 63 63 63 64 63 63 62 62 61 61 60 59 59 58 56 55 54 51 50 52 51
21 19 12 11 11 32 45 49 46 45 43 46 48 49 54 59 63 64 64 64 63 65 64 64 63 65 64 64 63 63 63 63 63 63 62 62 62 61 61 59 57 55 52 52 51 50 49 49 49
22 16 11 9 8 27 44 48 49 43 41 49 52 50 50 58 62 63 62 61 60 61 61 63 62 62 64 63 62 62 63 62 61 60 60 60 60 60 60 59 57 54 50 48 49 50 49 48 47
18 15 13 12 19 38 47 44 46 48 46 56 58 56 58 60 61 61 61 60 59 60 61 63 61 63 63 63 62 62 61 60 60 59 59 59 59 57 58 57 55 52 49 45 48 50 49 46 47
15 13 13 15 37 39 45 46 43 43 50 54 55 57 59 59 59 58 58 58 57 58 60 62 62 62 62 60 60 59 59 58 58 58 58 58 58 57 55 56 55 52 50 48 50 49 47 47 46
16 13 13 21 37 42 44 43 46 43 41 48 52 54 55 57 57 56 58 57 58 58 59 62 62 61 60 59 60 58 57 57 56 56 56 57 59 56 55 56 55 53 53 48 46 46 46 45 42
13 13 13 33 43 43 41 42 40 42 42 48 55 56 54 57 57 54 54 56 57 59 61 62 60 59 58 58 58 57 56 57 56 57 58 58 58 55 52 51 52 53 48 46 46 46 44 42 40
12 15 30 42 42 41 40 39 39 50 54 55 56 54 54 56 56 54 53 55 55 55 57 60 59 56 56 57 57 57 58 59 61 59 59 60 58 57 55 53 49 47 46 46 45 42 41 40 37
24 25 38 39 39 39 36 38 33 47 56 56 55 54 55 56 58 57 56 56 56 56 58 60 58 54 55 57 58 58 61 62 60 58 56 57 56 53 49 47 45 46 47 46 43 41 39 38 35
26 29 37 38 38 31 33 30 35 47 54 54 55 56 57 57 58 57 57 55 55 57 58 57 56 55 59 60 60 60 60 60 60 59 58 56 53 51 49 46 45 46 46 43 41 40 37 35 34
22 28 32 35 35 31 29 25 34 39 51 50 51 55 56 56 57 58 58 55 56 56 54 55 58 59 59 58 58 58 58 58 58 55 54 53 51 50 48 45 46 47 46 43 41 39 36 34 34
20 15 19 30 32 30 31 26 30 37 47 51 51 52 54 55 55 55 56 56 55 54 53 56 59 58 57 57 57 57 57 57 56 53 51 51 50 49 46 47 47 46 43 42 41 38 36 34 34
18 18 17 18 30 32 28 27 28 39 42 50 50 48 49 53 54 54 53 54 53 53 53 59 57 57 57 57 56 56 56 55 55 53 50 50 49 48 48 46 45 44 43 41 41 37 37 36 35
25 22 21 24 26 29 28 23 27 36 44 47 47 43 45 49 51 51 50 51 52 52 56 58 56 56 56 55 54 54 54 53 53 52 50 48 49 49 48 46 43 41 38 38 39 37 35 35 35
25 24 23 22 21 28 26 23 25 29 39 42 44 40 41 45 46 47 48 50 51 54 57 57 56 56 56 55 55 54 54 52 51 50 48 48 48 47 44 43 40 38 38 37 37 36 36 36 35
24 24 23 21 20 16 25 21 21 25 28 38 39 39 39 41 43 44 48 50 52 56 58 57 57 56 56 56 55 53 51 50 49 48 48 48 47 44 43 41 40 38 38 36 37 37 36 34 35
22 24 25 21 22 17 19 14 20 22 23 34 39 38 38 40 43 44 50 50 53 57 58 58 57 56 56 56 55 52 49 48 48 47 47 46 45 43 42 41 39 39 39 39 40 39 38 37 36
24 24 24 23 23 21 20 16 19 23 21 23 36 40 40 42 44 46 51 52 54 58 58 58 58 57 55 56 54 51 49 49 47 47 46 44 42 42 42 41 40 39 38 36 34 34 35 38 36
27 26 27 30 26 18 22 22 19 21 20 23 27 37 41 43 45 46 52 55 56 58 58 58 58 57 57 56 53 51 49 48 47 46 45 43 44 39 38 36 36 34 33 33 33 32 32 33 35
26 24 20 18 18 17 27 24 22 23 25 24 29 34 38 43 49 50 54 56 57 58 58 58 58 57 57 56 52 50 49 47 47 46 45 43 37 35 34 33 33 32 31 31 31 30 31 32 34
27 24 19 15 16 20 28 22 24 27 28 28 30 32 40 42 49 51 54 56 57 58 58 58 57 56 55 52 50 49 46 45 44 42 40 37 35 33 33 32 31 30 31 30 31 33 34 35 34
25 22 26 26 30 24 25 22 25 29 31 33 36 37 44 47 51 52 54 55 56 56 57 57 57 53 50 49 44 41 41 40 37 35 36 35 34 32 32 30 29 29 29 31 33 33 32 33 33
26 24 21 24 15 18 18 19 23 25 28 35 36 37 45 48 50 52 53 54 55 55 54 54 54 50 49 45 41 39 39 39 37 37 35 33 32 32 31 29 28 28 29 33 31 30 31 31 32
24 21 21 23 22 17 18 13 19 27 31 35 36 39 45 47 48 50 51 52 53 53 50 48 48 48 46 40 39 39 40 39 37 36 33 32 32 32 33 32 27 27 29 32 30 30 31 30 30
29 25 24 18 16 23 20 17 23 26 29 37 39 42 45 47 47 47 49 50 50 50 48 46 46 47 43 39 37 38 38 35 34 33 32 33 32 33 33 29 27 29 30 29 28 29 30 29 28

GFSSGP_sfc_30mbdewp_045.txt.gz
Dewpoint
52 48 41 31 19 19 16 18 22 39 48 54 56 55 55 58 52 46 62 64 68 68 69 69 69 69 68 67 66 64 62 60 59 61 63 63 62 61 60 59 59 58 56 55 54 55 60 62 62
43 43 31 18 11 10 10 17 20 38 50 53 51 54 56 56 60 61 62 67 68 69 68 68 68 68 68 67 65 63 60 60 61 62 62 61 60 61 61 60 59 57 56 54 53 52 55 60 62
39 32 26 19 9 7 10 17 42 49 53 50 50 54 56 57 60 61 65 66 68 68 68 68 68 68 67 66 64 62 62 63 63 63 61 61 59 59 60 60 59 56 55 53 53 53 54 58 60
30 25 16 9 7 10 13 34 44 49 48 49 51 49 56 60 62 63 66 67 67 67 67 67 67 67 66 65 64 63 64 63 63 63 62 60 59 59 60 60 58 57 55 53 53 54 55 55 57
24 19 15 6 6 20 43 47 48 44 46 48 48 52 54 62 63 65 65 66 66 67 67 67 66 66 66 64 63 63 64 64 64 63 62 61 60 59 60 60 59 57 55 53 54 56 56 55 54
23 17 12 11 11 35 46 48 46 45 48 48 49 49 55 63 63 64 65 65 66 66 65 65 64 64 64 64 63 64 64 64 64 63 62 61 61 60 60 59 58 57 56 54 53 53 53 54 53
20 19 13 11 11 15 44 49 44 43 43 45 49 49 55 60 63 64 64 64 64 63 63 63 62 63 64 64 64 64 64 64 64 63 62 62 61 60 59 58 56 55 55 54 52 51 51 50 49
22 18 13 10 8 11 42 47 49 46 43 52 53 49 52 59 61 60 60 59 59 61 61 61 59 61 63 62 63 63 63 63 63 63 62 61 61 60 58 56 55 53 52 54 52 52 50 51 51
18 17 14 13 13 21 46 44 48 52 54 55 57 56 58 60 60 58 58 58 57 58 60 59 60 62 62 61 62 62 63 63 62 61 60 60 60 59 56 55 53 51 52 54 53 51 49 48 49
18 14 14 15 19 35 45 45 45 48 52 52 54 58 60 59 59 57 56 56 56 56 58 59 57 53 60 60 61 61 61 60 59 59 59 58 57 55 57 57 56 52 52 54 51 50 47 42 41
17 14 14 15 30 40 44 45 45 46 46 52 53 54 57 57 57 57 56 56 56 57 58 60 58 62 61 59 60 59 58 57 57 57 57 58 57 55 56 55 53 52 49 46 46 44 42 40 39
17 15 14 23 42 42 42 42 40 42 43 52 55 55 55 55 56 56 56 56 56 56 57 60 61 62 60 59 59 58 56 56 56 56 57 58 56 52 52 51 52 48 46 46 44 43 41 38 36
13 14 33 35 42 41 41 40 46 51 52 55 55 55 55 56 56 55 56 56 56 56 57 61 61 60 58 58 58 57 56 57 59 58 58 58 57 53 52 52 50 46 46 44 42 41 38 36 33
24 36 41 41 40 40 37 41 41 52 55 55 54 54 56 55 54 53 54 55 55 58 59 60 60 58 57 56 57 57 59 60 59 58 59 59 57 55 52 47 46 46 46 43 41 38 35 34 32
26 35 38 38 36 32 35 33 40 51 53 53 53 53 56 55 53 52 54 54 55 55 57 59 59 56 55 56 57 59 61 60 57 57 57 56 54 51 47 46 46 47 44 41 40 37 35 33 33
21 32 31 36 36 32 28 27 40 52 52 52 52 52 54 56 55 55 55 55 55 55 57 59 59 55 56 58 59 59 60 59 58 56 55 53 51 49 46 46 46 46 43 42 39 36 35 34 32
20 21 26 33 35 32 30 25 36 50 50 51 55 55 56 55 57 57 56 55 54 56 57 57 57 57 58 58 58 59 58 58 56 54 53 52 50 48 46 46 48 45 43 41 39 37 35 33 32
21 18 22 30 30 33 30 27 32 42 50 48 53 54 55 56 56 57 57 57 54 56 55 56 58 57 57 57 57 56 56 56 54 52 51 51 49 47 47 47 45 43 42 41 39 37 37 35 33
25 23 22 23 24 30 29 27 29 38 47 48 50 51 54 54 56 56 57 56 56 55 55 58 57 57 57 56 55 54 53 54 53 52 50 50 48 49 46 45 44 42 39 39 37 36 35 35 35
25 22 21 22 23 30 29 27 25 36 40 46 49 48 49 53 54 55 55 55 54 53 56 57 57 56 56 55 54 54 53 53 52 51 50 48 49 48 46 43 41 39 38 37 36 36 36 36 35
24 23 22 22 23 27 24 24 23 25 36 45 47 47 46 50 52 54 51 52 52 53 55 56 56 56 56 55 54 53 51 51 50 49 47 48 48 48 45 42 40 38 37 36 36 36 36 34 35
23 25 24 24 23 18 22 17 21 22 28 39 45 44 43 46 50 52 50 50 51 52 55 56 56 56 56 55 54 52 50 49 49 48 47 48 47 44 42 41 40 39 39 38 40 38 38 37 34
24 26 25 24 23 21 21 17 17 23 23 29 38 42 41 43 46 48 48 49 51 53 56 56 57 56 56 55 55 53 51 49 48 47 47 46 45 43 43 41 40 40 38 35 34 34 35 37 35
27 25 26 29 25 19 21 21 19 20 21 24 31 40 39 41 44 45 48 50 51 55 57 57 57 56 55 55 55 54 52 49 47 46 46 44 42 41 40 38 36 34 34 32 31 31 31 32 34
26 24 20 17 19 17 25 24 22 23 23 23 24 33 40 41 44 46 49 50 53 56 57 57 57 57 57 55 55 54 52 49 48 47 46 43 38 36 35 34 33 32 32 33 31 31 32 34 34
26 24 20 14 15 16 28 21 21 27 30 29 28 31 39 43 46 48 51 53 55 56 57 57 57 57 57 57 55 53 51 49 48 47 45 41 37 35 34 34 34 34 31 31 31 33 35 34 33
26 23 25 25 29 23 22 24 24 27 33 34 33 33 37 42 47 49 52 55 56 56 57 57 58 58 57 56 54 51 48 46 44 43 42 39 36 35 36 36 33 31 31 32 33 34 32 32 32
27 26 21 24 15 14 19 19 20 25 24 34 36 36 42 45 49 51 53 55 57 57 57 57 57 56 54 51 48 48 46 42 41 41 38 35 36 38 36 32 33 33 33 32 34 31 31 31 32
24 23 22 23 21 15 16 17 18 26 26 29 34 37 45 47 50 51 53 54 56 56 56 57 56 53 51 46 43 43 42 40 40 38 37 37 37 34 34 38 35 33 30 32 31 30 31 31 30
26 24 22 18 17 24 22 18 22 23 28 33 33 39 45 47 48 51 52 53 54 54 54 54 53 51 48 43 42 42 41 40 39 37 36 35 34 37 39 36 32 29 30 31 30 29 30 29 28

GFSSGP_sfc_30mbdewp_048.txt.gz
Dewpoint
52 43 40 26 18 18 14 15 20 25 46 55 57 56 54 57 52 46 63 64 68 68 69 69 69 68 67 65 64 63 62 62 61 62 63 62 61 60 60 60 60 59 59 62 63 62 61 62 64
44 42 29 17 11 10 8 16 17 33 51 50 52 54 56 55 59 60 62 67 68 68 68 68 68 67 66 65 63 61 61 61 62 62 61 61 61 61 60 60 60 58 58 58 61 63 64 64 64
37 29 25 16 9 6 9 13 35 51 52 49 51 55 57 56 60 61 65 67 68 67 68 68 68 67 65 64 62 62 62 63 63 62 60 60 61 61 60 59 59 58 56 54 56 60 62 61 61
31 25 15 10 6 9 10 25 44 49 48 49 50 51 57 62 62 64 66 68 67 67 67 67 67 66 64 63 63 63 63 64 63 62 61 61 60 60 60 59 58 58 56 53 52 56 57 57 58
22 19 14 9 6 10 35 46 48 45 48 49 50 52 55 62 65 65 66 67 67 67 67 67 66 65 64 64 64 64 64 64 63 62 62 61 61 60 60 59 58 58 57 56 54 54 55 57 57
21 17 13 10 10 19 43 47 46 46 49 47 48 51 55 62 63 64 64 63 66 66 66 66 66 65 64 64 65 65 64 64 63 62 62 62 61 60 60 58 57 57 57 57 56 56 54 54 57
21 17 13 11 11 11 35 48 44 44 46 46 51 51 56 61 63 62 61 61 62 64 63 63 62 62 64 65 65 65 64 64 63 63 62 62 61 60 58 58 57 57 57 55 54 55 55 55 53
22 19 14 11 9 10 37 47 49 45 47 55 55 50 53 59 60 60 60 60 59 58 59 59 60 62 63 64 64 64 64 64 63 63 62 60 60 58 57 56 57 57 57 57 55 55 54 54 53
18 17 14 13 14 16 46 44 47 55 53 55 56 55 58 59 59 57 57 58 57 56 55 57 59 60 61 62 63 64 64 63 62 61 61 59 58 57 53 55 55 56 56 55 53 51 49 49 49
19 16 15 16 14 21 45 44 45 49 52 53 54 58 59 58 57 55 55 55 56 55 57 58 57 57 60 60 62 62 62 61 60 60 58 58 57 55 57 55 53 57 55 55 52 48 45 40 39
16 15 15 14 17 37 43 45 45 48 47 52 52 56 57 57 56 55 54 54 54 55 53 54 53 55 60 59 60 59 59 58 58 58 57 57 56 57 56 52 51 50 48 45 43 41 39 37 36
17 17 16 15 37 43 43 44 42 43 44 53 55 57 56 56 56 55 55 55 55 53 53 54 54 53 58 59 58 58 57 57 56 57 58 57 53 54 53 51 50 46 46 43 42 39 36 35 34
15 15 29 36 42 41 42 41 46 50 52 55 55 55 55 55 56 57 56 56 55 55 56 55 55 59 60 58 57 57 56 56 56 56 57 58 53 51 51 52 47 46 45 42 40 37 34 34 34
32 39 39 41 40 40 39 44 45 53 54 54 54 54 54 54 56 56 55 54 55 54 56 58 60 60 59 58 57 57 56 56 58 57 57 58 56 52 52 50 46 46 43 41 39 35 33 32 32
27 35 38 39 38 36 38 33 42 53 54 53 53 54 54 55 54 55 55 54 54 55 56 59 61 59 58 57 56 57 57 59 59 58 59 59 57 54 49 47 46 45 42 39 37 35 34 32 32
26 32 32 37 36 33 30 27 44 54 53 52 53 53 55 55 54 53 54 55 54 56 58 59 60 57 57 56 57 58 59 59 57 57 56 55 54 51 47 46 46 43 42 39 37 35 34 33 31
20 20 26 32 35 33 30 25 40 53 52 52 52 53 54 55 54 53 54 54 55 55 56 58 59 57 56 57 57 58 59 58 57 56 54 52 50 47 46 47 46 44 42 40 38 37 35 33 31
21 20 20 27 29 33 31 29 39 51 50 52 51 52 53 55 54 54 56 55 54 55 57 57 58 57 56 57 57 57 58 57 56 54 53 51 49 47 46 47 46 43 42 39 38 36 36 34 32
24 23 21 24 26 29 30 30 31 46 49 50 53 53 54 55 55 57 57 57 55 55 56 56 57 57 56 56 56 56 56 55 54 52 51 50 49 47 47 47 44 43 41 39 36 36 35 35 34
25 23 22 23 24 26 27 28 27 39 48 48 52 53 54 55 55 56 57 57 55 55 55 56 57 56 56 57 55 55 54 54 54 52 50 49 48 48 46 44 43 41 39 38 37 36 36 36 34
24 23 22 22 24 27 25 23 25 27 39 46 48 51 52 53 54 55 55 56 56 55 55 56 57 56 56 56 54 53 52 52 51 50 49 48 49 48 45 43 41 39 38 37 36 36 35 34 35
23 25 24 23 22 19 23 17 19 23 31 38 44 48 49 50 53 54 54 55 55 54 54 56 56 56 56 55 54 52 52 50 51 50 48 48 48 47 45 42 39 39 39 38 38 38 37 36 33
24 26 25 25 23 22 21 18 18 23 22 27 39 46 47 47 50 53 54 53 54 54 54 56 56 56 56 55 54 52 51 51 50 48 48 48 46 44 42 41 40 40 38 36 34 34 35 37 35
27 26 26 28 24 19 20 19 19 19 20 22 28 41 46 45 47 50 53 52 52 53 54 55 56 56 56 55 54 53 52 51 49 48 46 46 44 43 41 40 38 35 34 31 31 33 32 31 33
26 23 19 17 18 17 25 24 23 23 25 25 25 32 41 43 44 48 49 49 50 52 54 55 56 56 56 55 55 54 53 52 50 48 46 44 41 39 38 36 34 33 34 37 35 31 30 32 33
25 23 20 15 15 15 26 20 19 26 32 33 30 27 38 40 42 45 47 49 50 53 55 56 56 56 56 56 55 55 54 53 51 49 46 43 39 37 36 35 37 40 37 33 33 32 34 34 34
26 23 25 24 28 24 21 23 21 27 30 34 33 33 35 39 41 44 47 49 51 54 55 56 56 56 57 57 56 55 54 53 50 49 45 40 38 37 37 41 41 34 32 37 35 33 34 33 32
26 27 22 23 17 15 17 19 17 21 25 33 34 34 38 41 44 45 49 52 53 54 55 56 57 56 57 57 56 54 52 51 49 46 44 40 38 37 41 41 34 34 38 35 33 32 33 31 31
26 24 23 23 20 15 15 16 19 20 26 25 32 36 39 44 44 48 50 54 55 55 56 56 56 57 56 54 53 52 50 48 47 46 45 42 39 41 40 35 36 38 34 32 32 32 31 31 30
26 24 23 20 18 24 21 17 23 20 23 28 30 36 41 46 47 49 51 53 54 55 56 56 56 56 55 51 49 48 46 46 46 44 41 40 40 37 36 40 38 33 30 30 32 31 30 31 30

GFSSGP_sfc_30mbdewp_051.txt.gz
Dewpoint
52 41 39 25 15 18 13 14 20 21 36 55 56 54 52 54 51 47 63 65 67 67 67 67 68 67 67 65 65 64 64 63 63 64 64 62 62 62 62 61 63 65 64 64 62 64 64 62 61
43 40 29 20 12 8 7 16 19 36 48 50 53 55 55 54 58 60 62 65 67 67 66 66 67 66 65 65 64 64 63 63 63 63 62 62 62 62 61 61 63 65 65 63 63 64 64 62 62
36 28 26 17 11 5 9 14 27 50 51 49 51 56 56 55 60 60 63 67 68 67 66 66 66 65 64 63 63 63 64 64 63 63 62 62 62 62 61 60 60 62 64 64 64 64 62 60 61
31 25 16 12 7 9 10 14 45 48 48 49 50 52 57 62 62 64 66 67 67 67 66 66 66 65 64 63 64 64 64 63 62 62 62 62 62 61 61 59 59 59 61 62 62 58 58 60 60
23 21 16 12 9 9 15 42 48 46 47 49 50 52 54 60 65 66 67 66 66 66 67 66 66 65 64 64 65 65 64 63 62 62 62 61 61 61 60 60 59 58 58 58 57 58 58 57 57
21 18 14 10 11 12 32 47 46 47 47 48 50 52 55 62 62 63 64 64 66 66 66 66 65 65 64 64 65 64 64 63 63 63 62 62 61 60 60 60 59 58 57 56 57 59 59 56 55
22 17 13 12 11 12 31 49 45 45 47 47 51 49 56 61 61 61 61 61 62 62 63 65 64 64 64 65 65 65 64 64 64 63 63 62 61 59 59 59 59 58 58 57 56 56 56 57 54
22 20 15 13 11 12 36 47 48 46 50 56 55 48 51 59 60 59 58 58 58 60 59 59 60 58 57 62 64 65 64 64 64 62 61 60 59 59 59 59 59 57 57 57 57 57 55 52 50
20 18 16 14 13 16 45 44 49 54 52 54 55 54 58 59 59 58 56 55 55 57 58 57 56 55 57 61 64 64 64 63 62 60 59 56 53 52 52 56 59 58 57 56 55 52 51 50 47
20 18 17 17 16 18 41 44 48 49 51 52 55 58 58 57 57 56 55 53 54 54 54 56 56 57 58 60 61 63 63 61 59 59 58 57 56 54 52 56 58 58 56 54 50 47 43 37 35
18 16 17 16 16 34 39 44 45 48 47 50 53 56 57 55 55 55 55 53 53 54 55 55 54 54 55 56 61 61 60 58 59 59 58 58 56 56 53 55 53 52 50 44 42 39 37 38 35
18 18 17 17 34 40 42 45 43 47 46 51 56 57 56 55 54 54 55 55 54 53 55 55 55 57 59 60 59 59 58 58 58 57 58 57 56 56 52 51 50 48 45 44 41 39 39 37 36
17 17 27 31 40 42 43 41 43 49 54 55 56 56 56 55 53 54 54 54 54 52 53 54 54 52 55 58 59 58 57 56 57 57 58 55 54 55 53 52 49 47 45 43 40 38 36 36 35
24 39 39 41 41 41 41 46 46 53 54 54 55 54 55 55 55 54 53 52 51 52 52 53 53 53 57 59 58 58 58 57 57 58 59 58 54 54 53 50 48 46 44 42 39 37 35 34 33
28 35 38 39 38 36 40 36 39 52 54 53 53 53 53 54 56 55 53 52 53 53 52 52 52 56 59 59 57 57 56 57 57 58 59 59 57 54 53 49 48 45 44 41 39 37 37 34 32
28 31 30 36 37 34 30 26 45 53 52 51 52 52 53 54 55 54 54 53 54 54 53 55 56 58 59 59 57 56 58 58 59 60 60 60 59 55 53 49 48 46 43 41 40 38 36 35 33
22 21 26 32 36 32 32 27 44 53 51 50 52 53 53 55 54 55 55 54 54 53 54 55 58 60 59 58 58 58 58 59 59 59 59 58 57 55 52 50 47 45 43 42 40 39 38 35 34
21 20 21 24 31 34 31 30 44 52 51 50 51 52 54 54 54 53 54 54 53 54 55 57 59 60 58 58 58 58 58 59 59 58 56 55 54 52 50 50 47 45 43 42 41 39 39 36 35
24 23 20 22 28 26 28 30 32 50 51 50 50 51 53 53 54 53 53 54 53 54 55 56 58 59 58 57 56 56 56 58 58 57 56 54 51 50 49 48 47 45 43 42 41 40 39 37 38
26 24 23 24 25 26 26 25 29 45 49 49 50 50 51 52 54 54 54 54 53 53 55 55 57 58 58 57 56 56 57 58 58 56 54 53 51 49 49 48 46 45 43 42 40 40 38 38 37
25 24 22 22 25 27 25 22 26 31 45 49 50 51 51 52 53 55 55 55 55 54 54 55 56 57 58 57 56 55 56 56 55 54 54 52 51 49 48 48 46 44 43 40 40 40 39 37 38
24 25 25 23 22 19 23 17 21 25 31 41 48 49 51 52 54 55 56 56 56 56 55 55 56 57 58 57 55 54 54 55 55 54 53 51 50 49 47 46 45 43 41 40 40 40 40 38 34
24 26 26 25 24 23 21 19 20 23 22 28 38 47 48 50 52 53 55 55 57 57 56 56 57 57 57 57 56 55 55 55 54 53 52 51 50 48 46 45 43 42 41 42 41 40 38 36 33
28 27 26 27 25 21 21 19 19 20 21 23 26 36 45 48 49 52 54 55 55 57 56 57 56 56 57 57 56 55 54 54 53 52 51 50 48 48 46 43 43 42 41 39 38 38 39 35 35
27 24 20 19 21 19 26 24 23 24 26 27 29 29 38 47 48 49 52 54 54 55 55 56 56 56 57 56 56 55 55 54 52 52 51 48 47 45 44 43 42 39 37 37 40 37 34 32 33
26 24 20 16 16 17 26 19 17 26 28 34 35 32 31 44 47 48 50 52 53 54 55 55 55 56 56 56 56 56 56 55 53 53 51 48 47 45 43 41 38 36 39 41 37 37 35 36 36
26 24 26 24 28 24 21 22 22 25 28 34 34 33 32 38 43 45 48 51 52 52 54 55 55 55 56 56 56 56 56 55 55 54 52 49 46 42 41 39 37 41 39 36 39 37 35 36 37
27 28 23 24 18 17 18 19 15 19 25 27 32 34 35 39 42 43 46 48 51 52 54 55 56 55 56 56 56 56 56 56 55 54 51 47 44 41 40 39 41 37 37 40 37 35 35 35 35
27 25 25 24 22 17 16 17 22 19 25 26 31 35 37 40 42 45 47 49 51 53 54 55 55 55 56 56 57 57 55 55 54 51 49 46 43 40 41 42 37 36 41 39 34 33 33 34 33
27 26 25 22 20 24 22 18 22 23 22 25 29 34 38 43 45 47 49 51 53 53 54 54 55 55 56 56 56 55 53 52 51 49 47 44 41 41 42 38 37 41 36 33 33 35 32 33 32

GFSSGP_sfc_30mbdewp_054.txt.gz
Dewpoint
51 38 28 27 14 10 9 10 15 17 28 46 52 48 43 53 51 46 62 64 66 65 65 66 68 68 67 66 66 65 65 65 65 65 64 64 63 64 64 65 65 65 65 64 63 60 59 60 60
34 35 29 19 10 7 6 11 14 29 41 49 52 54 50 50 56 58 61 64 66 65 64 63 68 67 66 65 65 65 64 64 65 64 64 63 63 63 66 66 66 65 65 64 63 59 60 60 61
32 31 23 14 10 6 6 13 17 42 49 47 49 53 53 53 58 58 61 64 66 66 64 64 67 66 65 65 65 64 65 64 64 63 63 63 63 63 64 66 65 65 66 64 62 59 60 61 62
25 23 18 10 6 9 8 13 33 44 46 48 48 49 55 60 61 63 63 65 66 65 65 66 66 65 65 65 64 65 64 63 63 63 63 63 62 62 62 64 66 66 65 63 59 58 59 60 60
21 16 12 9 8 8 8 19 39 42 43 44 47 49 52 61 64 66 65 66 66 65 66 66 65 65 64 65 65 64 63 63 63 63 63 63 62 61 61 62 64 65 63 59 57 56 57 58 57
17 16 8 6 7 6 13 29 42 45 43 45 45 46 53 62 63 63 64 65 65 66 66 65 65 65 64 65 64 64 63 63 63 63 63 62 62 62 61 60 61 61 61 60 59 57 56 55 53
18 13 8 9 7 9 23 41 41 42 41 42 47 43 57 60 61 61 62 62 63 64 65 63 62 64 65 64 64 64 64 64 63 63 62 62 62 62 60 59 58 58 59 60 58 57 56 53 51
19 16 13 10 6 12 27 38 46 44 45 51 52 44 52 59 60 60 59 60 60 61 63 62 62 63 63 64 64 64 64 64 64 63 62 61 61 61 60 59 59 58 57 57 56 56 54 50 49
21 13 10 10 10 15 34 29 45 51 49 51 53 54 58 59 59 58 57 58 58 58 59 58 57 55 57 58 62 63 63 62 61 60 59 55 51 51 51 56 59 59 58 56 54 53 50 47 46
17 15 11 14 14 15 23 31 38 47 48 49 53 58 58 59 57 56 56 54 55 55 56 56 54 51 55 59 58 60 60 56 55 54 52 49 50 49 53 57 58 58 56 53 51 47 44 42 37
18 13 15 15 16 17 21 30 42 44 43 46 51 55 57 57 56 55 55 55 54 54 54 54 54 56 57 58 57 56 59 57 56 56 53 52 51 52 52 54 50 49 48 42 41 42 40 40 37
19 19 19 19 25 26 28 40 41 42 45 49 54 57 55 55 56 55 54 54 53 53 53 55 56 56 57 56 56 55 53 56 54 54 54 54 51 50 51 49 50 48 46 45 44 43 42 40 38
21 21 30 27 33 35 42 40 40 45 51 55 56 55 55 53 54 54 54 54 54 53 54 53 54 53 56 56 56 56 56 54 51 53 53 52 51 50 49 51 49 47 47 45 44 42 40 39 38
24 32 38 36 37 40 39 42 43 50 53 54 54 53 53 52 52 54 53 52 53 54 54 53 53 53 54 53 52 54 57 54 54 52 53 53 52 54 51 50 49 47 46 45 43 42 40 38 37
25 31 36 37 38 37 40 37 35 50 52 52 52 52 53 54 52 51 53 51 50 50 49 48 49 53 53 54 54 54 52 50 50 52 57 55 54 53 52 51 49 47 47 45 44 42 41 38 35
24 31 20 35 37 34 36 24 38 49 50 49 50 52 53 54 53 52 51 51 50 49 48 49 50 52 53 56 55 53 50 50 50 56 60 60 57 54 54 51 50 49 47 45 43 42 41 38 35
22 18 20 27 32 31 32 25 37 49 48 46 49 51 52 53 54 54 52 50 49 50 50 50 50 50 53 57 57 53 54 53 52 56 58 59 60 59 54 52 51 51 45 43 43 43 42 39 35
15 17 17 23 27 32 29 28 30 46 45 44 49 50 51 53 52 53 53 52 51 51 49 49 51 53 56 57 58 55 52 53 55 58 60 60 59 60 57 54 52 47 44 44 43 43 41 38 34
21 20 16 21 27 25 23 24 25 42 46 44 47 49 51 51 52 52 52 52 51 51 52 52 53 55 57 56 54 53 51 53 55 57 59 58 57 58 57 54 52 47 45 45 46 43 42 38 38
25 20 17 22 26 25 21 20 26 36 43 45 44 46 47 50 51 50 51 51 50 50 52 53 53 55 57 55 54 51 49 51 55 58 59 58 56 55 54 52 50 48 47 45 45 43 40 39 39
25 21 19 19 23 23 22 18 24 31 40 43 46 45 45 47 50 51 49 51 52 50 52 54 55 56 57 56 55 52 53 54 56 57 58 57 56 53 52 52 50 49 47 45 44 44 41 38 39
20 24 24 23 21 16 22 16 18 24 31 38 42 46 46 43 47 51 52 51 50 51 51 51 52 53 56 57 54 51 49 49 53 56 58 56 55 53 52 51 50 49 46 45 44 43 41 40 38
22 27 25 24 21 21 20 17 16 22 21 25 34 41 45 46 45 48 52 53 53 52 52 52 52 53 55 57 57 54 51 49 52 58 57 55 54 54 51 50 49 49 46 45 44 42 42 40 38
28 27 26 26 23 18 18 18 15 16 19 22 24 31 40 44 47 46 49 53 54 55 55 55 54 53 55 56 58 57 55 54 55 56 56 56 54 53 50 48 48 47 45 45 44 44 40 41 39
27 24 20 20 19 18 23 20 17 19 23 25 27 30 30 39 45 47 47 50 53 54 57 58 57 55 55 56 57 58 58 57 56 55 55 55 53 51 49 48 47 46 45 45 42 39 41 37 37
25 23 21 17 18 17 23 18 16 24 26 27 33 34 33 33 39 45 47 49 51 53 57 58 57 56 56 57 58 58 58 58 57 56 55 55 52 51 51 49 47 45 42 40 40 41 37 36 35
26 23 25 24 28 23 18 18 18 23 25 28 30 34 31 32 37 41 44 47 50 52 55 57 56 56 55 57 58 58 58 58 57 56 56 54 52 51 48 47 45 43 40 41 38 40 39 39 36
27 26 22 23 19 17 16 15 11 19 17 22 24 27 35 37 37 39 42 46 49 52 53 56 57 56 56 57 58 58 58 58 57 57 56 53 50 47 46 45 44 42 41 40 42 41 39 38 39
27 25 25 23 22 17 15 15 20 18 20 22 28 31 34 39 40 42 42 44 47 50 52 54 55 55 55 56 57 57 57 57 57 57 56 52 48 45 45 44 44 40 40 42 41 39 37 37 39
26 24 25 22 22 24 24 19 19 21 24 25 28 31 36 41 44 44 46 48 48 50 51 52 53 54 54 56 57 57 57 56 56 54 52 49 45 45 44 43 41 39 42 41 38 37 38 39 34

GFSSGP_sfc_30mbdewp_057.txt.gz
Dewpoint
50 45 31 21 15 11 6 6 6 16 19 26 38 32 33 31 46 47 64 63 64 64 63 67 70 70 69 68 67 67 66 66 66 65 65 65 65 65 65 66 66 66 64 60 60 59 59 60 60
41 27 24 19 12 3 4 4 13 13 28 40 42 42 42 40 54 59 62 64 64 64 63 65 69 69 68 67 66 66 65 65 65 65 64 65 65 66 66 66 66 66 64 60 59 60 60 60 61
35 27 23 17 9 4 4 16 13 24 38 37 37 44 46 48 55 58 59 63 66 64 63 65 68 67 67 66 66 65 65 65 64 64 65 65 67 67 67 66 66 65 63 60 60 60 60 60 60
24 20 17 9 6 6 5 10 16 29 36 38 37 41 53 59 59 62 62 63 65 65 63 66 67 66 66 66 65 65 65 64 64 64 64 65 66 67 67 66 66 65 62 59 59 58 58 59 59
21 15 10 10 6 6 8 8 20 30 36 37 39 38 51 60 63 65 65 63 65 65 66 66 66 66 66 65 65 65 64 64 64 64 64 64 65 66 67 66 66 64 60 58 57 56 56 56 56
18 12 8 3 5 6 8 16 25 35 38 39 38 39 54 60 63 64 66 66 66 66 66 66 66 65 65 65 65 64 64 64 64 64 63 63 63 65 66 65 63 61 60 59 57 56 54 53 53
16 13 8 6 6 7 12 32 32 36 37 36 41 39 56 59 61 62 64 65 65 66 65 65 64 65 65 64 63 63 64 64 64 64 63 63 62 62 63 63 62 61 60 58 57 55 54 51 51
17 13 9 7 7 13 26 30 38 38 37 45 46 41 48 59 60 60 61 61 62 64 63 63 63 64 62 63 62 63 62 63 64 63 63 62 61 60 60 60 61 61 59 57 55 53 51 50 48
18 11 8 9 9 15 23 25 35 43 41 42 51 56 58 59 60 59 59 59 58 60 61 62 62 62 62 62 62 61 63 63 62 61 59 55 54 52 50 58 59 58 58 57 54 51 49 43 39
15 11 10 12 12 13 16 20 28 39 41 43 53 58 58 59 59 58 58 57 57 56 57 59 60 59 59 57 58 58 59 58 56 55 54 52 52 51 53 58 59 58 56 55 52 47 43 44 37
14 11 12 12 14 15 16 17 29 36 36 34 46 55 57 56 56 56 56 56 56 56 55 54 55 55 58 58 57 56 56 56 55 55 53 53 55 55 54 54 52 51 49 43 43 43 44 43 40
15 14 14 15 17 23 24 29 34 35 42 46 55 56 56 56 55 55 55 54 54 54 53 54 58 58 57 56 56 55 56 56 54 55 55 55 54 54 53 50 49 48 46 44 46 45 45 43 41
17 15 18 24 23 27 32 35 35 38 46 53 55 54 54 55 55 53 54 54 53 53 54 55 56 56 55 54 55 53 48 48 49 54 55 53 52 54 53 51 49 48 48 48 46 46 44 43 40
20 20 25 28 24 29 33 33 35 42 50 52 52 52 53 52 52 53 53 52 53 53 54 54 55 56 56 54 55 55 52 50 50 52 54 55 54 54 51 52 50 48 48 47 46 45 44 41 40
21 21 27 32 28 29 33 35 37 45 50 49 49 51 52 49 50 52 52 51 52 52 53 53 54 56 55 54 53 52 54 52 51 51 55 53 52 54 51 51 50 49 48 48 47 46 44 42 38
19 20 21 39 39 29 29 35 43 43 44 44 45 45 51 52 49 52 52 52 52 52 51 53 53 54 52 52 52 56 51 50 46 49 52 55 53 54 52 52 51 50 49 48 47 45 44 43 39
16 16 23 30 32 29 27 32 35 41 40 41 43 44 48 53 50 50 51 50 49 49 49 50 50 52 52 53 53 53 51 51 49 49 54 59 57 54 54 52 52 52 50 49 46 46 46 43 39
10 17 17 26 32 24 27 26 27 38 39 40 42 46 48 49 50 51 48 47 47 47 48 49 51 52 53 54 54 51 51 52 49 49 54 58 58 59 56 53 53 53 51 47 46 46 45 44 39
17 16 15 28 33 26 22 20 24 34 38 38 43 45 46 49 50 51 49 48 47 48 49 50 51 52 50 50 50 49 48 49 49 51 55 60 59 58 60 57 55 55 49 48 47 46 45 43 40
17 16 14 16 21 22 20 21 26 28 37 38 41 46 45 46 49 49 50 49 49 48 48 48 48 48 49 48 48 47 47 47 51 52 55 59 59 57 58 58 56 54 50 48 48 47 46 44 41
20 18 16 16 22 22 19 17 22 22 34 37 39 42 43 47 47 48 49 49 50 49 49 48 49 50 50 50 49 48 47 46 47 50 54 59 59 57 57 57 55 53 51 49 48 46 46 43 42
19 20 19 21 18 14 24 16 24 21 27 34 37 38 41 42 47 48 49 49 49 49 50 51 50 50 51 52 50 49 47 45 46 50 53 58 58 58 58 56 57 54 52 50 49 47 47 44 41
20 25 21 20 18 18 20 15 20 18 16 23 31 36 38 40 44 46 47 48 49 50 51 52 52 52 52 52 52 51 50 47 47 50 53 57 58 57 56 56 56 54 52 49 48 47 47 44 42
23 24 23 23 21 17 17 19 19 23 15 19 21 31 37 39 40 44 47 48 48 50 52 52 51 51 50 51 53 54 52 51 48 48 58 57 57 57 56 55 54 54 52 50 49 48 46 44 41
25 21 20 22 17 16 19 17 16 25 18 19 21 23 30 37 41 40 43 48 49 50 51 52 52 51 51 52 53 54 55 55 54 54 57 56 56 56 55 54 52 52 51 52 49 46 42 42 41
24 21 21 20 20 19 23 15 16 19 20 20 22 27 31 31 37 41 42 44 48 51 53 54 53 53 52 53 55 56 57 57 58 57 56 56 56 56 55 52 52 52 48 44 45 45 43 40 38
20 22 22 22 25 22 19 16 19 19 21 22 23 28 30 31 32 38 42 43 46 50 53 56 56 55 54 55 56 59 60 59 59 59 58 57 57 56 54 53 51 47 47 47 46 43 40 40 39
23 26 22 22 22 20 15 15 14 17 16 18 19 23 31 33 32 36 38 43 45 48 52 55 57 56 56 57 57 58 59 60 59 59 58 57 57 54 52 50 48 47 46 46 43 43 41 39 41
24 24 23 22 21 23 18 13 18 17 17 17 19 23 26 33 37 37 39 40 44 47 51 55 56 56 56 56 58 58 59 59 58 58 58 57 54 51 49 47 47 45 45 43 43 41 39 39 40
25 23 23 21 22 24 21 23 21 19 19 22 21 23 29 34 36 40 41 41 44 48 50 52 54 55 55 55 57 58 58 58 58 57 56 54 51 48 47 46 46 43 43 43 41 38 38 39 37

GFSSGP_sfc_30mbdewp_060.txt.gz
Dewpoint
51 40 41 34 16 15 11 7 6 6 27 42 46 44 45 42 34 38 59 60 60 64 68 69 70 70 70 69 68 68 67 67 67 66 66 66 67 68 68 66 64 63 61 60 60 59 59 58 59
45 40 35 20 14 11 7 8 12 17 39 39 39 43 38 31 51 57 57 57 56 64 67 69 70 69 69 68 67 67 66 66 66 66 65 66 66 67 67 66 64 63 61 60 60 59 59 58 60
44 36 23 20 16 9 7 9 12 16 31 34 37 35 43 49 57 58 60 63 65 64 65 69 69 69 68 67 67 66 66 65 65 65 66 66 66 67 67 66 63 63 61 60 59 59 58 58 58
30 22 18 13 8 9 7 12 13 16 24 34 32 45 48 53 61 63 63 63 66 64 66 68 68 68 67 67 66 66 65 65 65 65 66 67 67 67 67 66 63 62 61 59 58 57 57 57 55
26 17 13 11 9 8 6 9 8 11 33 42 40 47 48 52 63 64 66 66 64 65 67 67 67 67 67 66 66 65 65 65 65 66 67 67 67 67 66 65 63 62 60 57 56 55 55 54 52
22 17 9 5 6 12 10 9 14 20 43 46 45 45 46 60 61 64 65 65 67 66 67 66 67 66 66 66 65 65 65 65 65 66 66 67 67 67 66 63 62 61 60 58 56 55 54 53 48
17 14 11 8 5 11 18 23 24 34 44 43 50 47 55 58 60 62 63 65 66 65 62 62 64 65 65 65 64 65 65 65 65 64 65 66 66 65 64 62 62 60 59 57 54 53 52 49 44
15 11 10 8 7 12 25 25 34 35 45 47 49 46 48 53 60 61 61 63 64 63 63 63 62 62 62 62 59 61 64 64 64 63 63 63 63 63 63 62 61 59 58 55 53 52 50 45 41
15 12 9 12 13 12 19 20 39 34 44 49 54 56 58 60 60 60 59 60 61 62 62 62 62 62 61 60 61 60 60 63 62 61 60 59 59 59 58 61 60 59 58 55 52 48 43 37 34
14 11 10 12 11 10 15 18 20 32 40 45 53 57 57 59 58 58 58 56 56 57 60 61 61 59 59 56 55 57 59 59 58 56 54 53 55 55 59 60 59 58 56 53 50 46 42 40 37
13 12 11 11 13 14 13 16 17 21 41 43 45 54 56 56 56 56 56 57 55 55 57 58 59 58 57 58 58 57 57 57 56 56 55 57 56 56 57 55 54 54 51 45 46 47 46 46 42
14 13 13 13 14 16 18 23 28 42 45 44 49 55 55 54 55 54 54 54 54 54 55 57 58 57 57 56 56 56 56 56 55 56 57 57 56 55 54 53 52 49 49 44 47 49 46 44 42
15 16 13 16 20 18 20 26 41 47 51 51 55 54 54 54 53 54 54 54 54 53 55 56 56 55 55 55 56 55 56 55 56 55 56 56 56 55 53 52 51 49 51 49 49 48 46 44 42
17 17 17 31 33 32 22 38 40 46 47 51 50 51 53 52 52 52 53 53 53 53 54 55 55 54 54 53 54 53 53 52 51 55 55 54 55 57 53 55 52 52 51 50 50 48 46 46 41
19 17 20 31 30 32 33 35 40 46 48 48 48 50 48 52 52 52 52 52 52 53 54 54 55 54 54 53 53 53 53 51 51 55 55 55 55 56 54 54 54 53 51 50 50 49 47 44 43
19 17 17 33 30 28 35 30 38 42 43 45 45 48 49 47 51 51 52 51 51 52 51 54 55 54 53 53 52 53 51 50 51 54 55 55 56 56 56 54 54 53 52 51 50 47 47 46 43
15 14 15 30 34 34 35 31 40 42 42 43 42 43 50 49 51 51 51 51 50 51 51 52 54 53 52 53 53 52 54 54 53 52 56 57 56 57 56 55 54 54 52 51 51 48 49 47 43
13 12 16 22 32 33 27 26 39 48 47 41 40 37 49 50 47 51 52 51 50 51 51 52 53 52 52 51 50 53 55 53 53 52 55 58 58 55 56 56 55 55 53 51 49 48 49 48 44
18 16 15 26 26 25 27 21 29 34 41 36 42 41 45 49 49 48 51 50 49 51 51 51 52 54 53 51 52 53 53 54 54 52 53 59 59 59 58 56 56 56 54 51 50 50 47 46 43
19 12 11 17 25 26 21 18 22 38 41 35 38 43 44 46 49 48 47 48 48 50 50 51 52 52 53 53 53 53 51 52 53 52 53 58 60 60 59 59 58 57 55 52 50 49 47 46 46
17 16 14 17 26 23 20 17 18 25 31 32 38 44 42 47 48 49 48 48 48 48 49 51 52 52 53 53 51 51 50 50 50 52 53 59 60 60 59 60 59 58 56 53 51 50 48 46 47
20 19 18 16 20 14 22 17 24 24 26 30 34 41 43 45 48 49 49 49 50 50 51 51 51 51 52 51 49 48 48 48 49 51 53 58 60 59 58 58 57 57 56 55 54 51 49 48 44
20 23 23 21 17 17 17 22 24 23 24 26 33 35 44 45 47 49 49 50 50 51 51 50 50 50 51 51 52 52 50 49 48 50 52 59 59 59 58 58 58 57 58 57 53 51 50 49 47
22 21 22 22 18 18 18 20 17 23 26 24 30 34 38 43 47 48 49 50 50 51 52 52 52 52 52 52 53 54 53 52 50 51 53 58 59 58 58 58 57 57 56 53 52 53 51 52 47
23 21 20 24 22 20 17 15 21 28 29 26 26 28 35 41 43 46 48 49 50 50 51 53 53 52 53 53 55 55 54 56 52 52 55 57 58 58 57 57 56 56 54 53 53 52 49 47 45
22 21 21 20 26 26 30 19 16 26 28 23 20 21 31 36 41 42 45 47 48 50 52 52 52 52 53 53 54 56 56 56 57 57 56 57 58 58 58 58 55 53 53 51 49 47 48 47 44
19 23 22 22 31 29 27 26 21 21 19 20 21 24 28 30 36 42 42 47 48 50 52 54 53 53 52 52 54 56 57 58 58 58 58 58 58 58 57 55 53 51 49 49 49 49 44 40 40
19 18 23 22 24 22 18 14 21 18 17 16 18 25 31 31 32 34 41 44 49 51 53 54 54 53 54 55 56 57 58 59 58 60 60 59 57 56 55 54 51 49 49 48 46 43 43 41 42
18 19 25 25 23 21 22 23 31 23 16 16 19 22 26 32 35 35 37 43 46 50 52 56 56 56 56 56 58 58 59 60 60 59 59 58 56 54 53 51 48 48 47 45 44 42 41 39 39
20 22 22 24 22 26 26 24 23 24 21 22 22 21 28 31 34 38 38 39 45 47 51 55 57 57 57 57 58 59 60 60 59 58 57 55 53 51 49 48 47 46 44 44 42 40 39 39 39

GFSSGP_sfc_30mbdewp_063.txt.gz
Dewpoint
50 46 39 39 27 19 15 15 16 30 35 42 45 36 35 43 47 46 60 60 59 56 56 65 69 70 70 69 68 68 67 67 67 67 67 68 68 67 65 64 63 62 60 59 58 56 58 59 60
46 45 39 36 18 14 14 15 13 28 37 42 44 41 37 52 54 57 57 59 60 60 55 53 67 68 69 69 68 67 67 67 67 67 67 68 67 66 65 64 63 63 61 59 57 56 59 59 59
45 44 36 23 19 16 13 14 12 20 39 38 37 46 53 53 54 55 64 62 60 58 65 66 68 68 69 68 67 67 67 66 66 66 67 68 67 65 64 63 63 62 60 58 56 56 58 57 56
37 30 26 16 15 17 17 15 12 18 38 45 46 46 51 51 62 64 66 66 62 62 67 67 67 68 68 68 67 67 66 66 66 66 67 68 67 65 64 63 63 62 58 56 55 55 54 53 52
38 30 18 16 16 15 13 13 33 38 43 46 46 48 47 59 61 64 65 66 65 67 68 68 68 68 68 67 67 66 66 66 66 66 67 68 67 65 64 63 62 60 58 56 54 52 51 51 49
32 23 18 15 13 13 16 24 37 42 43 46 45 47 49 59 60 62 64 66 66 65 64 65 67 67 67 67 66 66 66 67 67 67 67 67 67 65 64 63 61 60 59 56 54 53 51 47 46
23 19 16 13 11 12 21 26 40 42 39 44 47 44 47 49 60 62 63 65 64 62 63 63 61 62 62 65 65 65 66 66 66 67 67 67 66 64 63 62 61 60 58 55 53 51 47 45 44
21 18 12 12 10 13 22 25 38 37 41 49 48 45 43 54 60 61 63 63 63 62 62 62 62 61 60 60 61 60 63 64 65 66 66 65 64 63 62 61 60 58 56 54 51 46 41 40 36
22 15 12 13 13 14 19 20 33 47 50 51 52 56 56 59 60 60 60 61 61 61 62 61 61 60 59 60 60 60 61 63 63 63 62 62 62 60 60 60 59 58 55 53 48 43 40 37 36
18 14 13 14 12 12 14 17 25 47 45 46 50 54 59 59 59 58 57 57 58 59 60 61 60 58 58 58 59 60 61 59 58 57 58 58 59 59 60 60 59 56 54 51 49 43 41 41 40
19 12 13 11 12 15 16 36 43 42 40 43 46 55 57 57 57 57 56 56 55 57 60 60 59 58 57 57 56 55 56 58 56 55 57 57 59 58 57 56 55 54 50 48 47 45 44 44 40
18 15 15 14 27 26 17 44 46 45 45 50 51 56 56 55 55 55 54 54 54 55 57 58 57 56 53 55 54 57 57 57 57 56 57 56 55 54 53 52 50 46 45 44 47 48 44 41 39
18 18 17 23 27 29 34 40 43 45 45 47 52 54 55 54 54 54 54 54 54 55 55 56 57 57 57 56 57 57 56 56 57 57 57 56 54 52 53 51 49 47 48 45 49 46 44 41 40
19 21 18 24 28 30 33 38 39 44 48 48 53 54 54 53 52 53 53 53 53 54 54 55 55 55 55 55 56 56 55 55 55 56 56 57 55 53 52 51 48 49 50 50 48 46 45 43 38
25 22 21 24 27 26 34 35 35 43 46 50 50 51 52 52 51 51 53 53 53 54 54 54 54 54 54 53 53 53 52 52 53 56 55 56 56 54 53 52 52 52 52 50 48 47 47 43 40
24 21 18 20 29 30 32 27 38 44 45 45 49 51 52 51 51 51 52 52 53 54 53 54 54 53 52 53 53 52 49 48 49 53 55 54 55 56 54 55 54 54 53 50 50 48 47 44 42
23 19 17 22 31 31 33 30 41 44 45 41 43 48 51 51 51 51 51 52 52 53 54 54 54 53 52 52 52 51 48 51 46 54 55 54 55 56 55 54 54 53 52 51 50 48 47 47 45
20 19 17 23 30 32 33 32 37 42 44 44 46 47 49 51 50 51 51 51 51 51 53 53 53 52 52 51 50 50 52 54 53 53 54 55 55 57 55 55 55 54 52 51 50 49 48 49 45
22 19 18 22 29 31 31 31 37 41 45 44 46 45 50 50 51 51 51 50 51 50 52 52 52 51 51 50 49 48 50 53 53 54 53 57 57 56 56 56 56 55 52 52 49 48 47 47 46
22 20 16 20 27 26 25 25 35 43 44 42 44 48 50 49 51 51 51 50 50 50 51 52 51 51 50 50 49 49 51 53 54 54 53 57 58 58 57 56 57 57 55 51 50 49 48 47 47
21 19 18 18 24 24 25 22 34 40 38 40 42 44 47 47 49 51 50 50 50 51 51 51 51 51 49 49 49 52 53 53 53 53 52 57 58 59 59 59 58 58 56 53 51 50 48 46 47
19 21 22 21 21 19 22 18 22 32 35 37 42 44 46 48 48 49 49 49 50 50 50 50 51 52 51 51 50 51 52 50 50 52 53 56 59 59 59 59 59 58 57 55 53 51 50 48 47
20 23 23 24 23 20 18 20 23 26 25 31 43 44 45 49 48 47 47 47 48 49 50 50 51 51 51 52 53 52 50 49 50 50 52 54 59 59 58 58 57 57 57 55 54 53 51 52 51
23 22 24 23 23 20 19 21 21 23 24 26 36 44 43 47 49 48 47 48 47 48 49 50 51 50 50 51 52 52 49 50 50 50 51 55 59 59 58 58 57 57 57 57 55 53 53 52 49
23 22 21 21 22 20 27 28 22 25 26 28 33 45 45 45 49 49 48 48 49 48 49 50 50 50 50 51 51 51 53 52 50 50 52 57 58 58 58 58 57 57 56 54 53 53 52 50 47
23 22 22 19 21 23 29 26 22 27 26 29 28 35 46 45 47 49 49 49 49 50 50 50 50 50 50 50 51 51 54 56 54 52 54 56 57 58 58 58 57 56 54 53 52 50 49 47 46
23 21 24 24 31 27 28 25 28 28 27 25 21 23 40 44 46 48 49 50 50 50 50 51 50 50 51 51 53 54 54 55 56 55 56 56 58 58 57 58 56 54 52 50 49 48 47 46 43
22 23 23 26 23 23 25 26 25 28 22 19 21 28 31 37 43 47 48 49 50 50 51 51 52 52 52 52 54 54 57 56 56 58 58 59 59 59 57 55 52 50 50 49 48 46 44 42 42
22 20 20 24 27 23 21 23 30 29 27 17 24 25 32 32 33 40 45 49 49 50 51 52 52 52 52 53 53 54 56 57 58 59 59 56 57 56 54 52 50 49 48 47 46 44 42 41 41
22 21 21 20 24 28 26 23 30 28 25 23 20 25 29 33 35 37 40 44 48 48 49 52 53 53 54 54 54 57 59 59 58 58 58 56 54 53 51 50 48 48 46 45 43 42 41 40 40

GFSSGP_sfc_30mbdewp_066.txt.gz
Dewpoint
50 46 38 38 21 20 18 16 19 17 25 41 44 37 46 53 50 46 60 61 62 66 69 69 70 69 69 69 68 68 67 67 67 68 68 67 66 66 65 64 63 61 59 59 60 60 60 61 62
45 44 40 33 21 13 12 15 15 16 27 43 43 44 51 52 53 57 58 59 61 61 61 68 69 68 68 68 68 68 67 67 67 68 68 67 66 65 64 63 62 61 58 57 59 60 59 57 58
39 43 36 28 18 15 14 16 16 39 42 43 40 49 52 51 56 57 61 66 60 59 59 60 68 68 68 68 67 67 67 66 67 68 67 66 65 65 64 63 62 60 58 57 59 58 56 55 59
36 30 26 18 16 17 19 19 19 37 43 45 46 46 49 57 61 63 64 66 62 60 61 64 67 67 67 63 67 67 67 66 68 68 67 66 65 65 64 63 62 59 57 56 56 55 54 56 59
37 28 20 17 16 17 17 17 39 41 44 44 46 44 47 59 60 62 63 65 64 66 67 67 66 63 66 68 68 67 67 66 68 67 66 65 65 65 64 62 61 59 56 53 52 52 53 54 59
31 25 19 16 17 18 15 30 42 42 44 44 45 45 46 57 56 61 63 65 66 63 62 62 61 60 60 67 66 65 65 66 68 67 66 65 65 64 63 61 60 59 57 54 52 51 52 52 57
28 22 17 16 15 12 15 38 39 40 42 42 46 38 44 51 59 61 63 64 63 63 61 62 61 60 60 60 66 66 66 66 67 66 65 65 64 63 62 61 60 57 56 53 50 48 48 47 51
24 20 18 17 12 12 15 32 43 42 44 48 49 45 45 54 59 61 63 62 62 62 62 62 61 60 59 59 60 61 62 66 65 65 65 64 63 63 61 60 58 57 54 50 48 46 46 46 53
21 19 17 16 12 13 20 25 48 50 49 50 52 55 56 59 60 60 60 61 61 60 61 61 60 59 59 60 59 58 59 64 65 64 63 62 62 60 58 59 58 55 52 50 47 45 43 42 49
19 16 17 15 14 13 39 35 45 43 41 43 48 57 58 59 58 58 57 57 58 59 59 60 59 59 59 60 59 57 60 62 62 62 61 61 59 58 58 58 57 55 52 48 44 44 45 41 38
20 18 19 18 16 22 37 41 45 40 39 43 42 54 58 58 58 57 57 55 56 58 59 59 58 58 58 57 57 59 61 60 59 58 60 59 59 59 58 56 54 53 48 45 43 45 43 40 37
17 19 19 17 26 31 34 44 40 43 40 48 45 56 57 56 56 56 55 55 56 57 59 58 57 57 57 57 57 57 58 57 57 57 58 57 56 55 54 51 48 46 45 45 46 45 42 40 37
18 20 21 21 26 34 43 42 39 41 49 51 54 55 56 55 55 55 55 54 55 55 57 57 57 56 56 55 54 56 58 57 57 57 56 55 53 52 51 49 46 45 45 48 47 44 42 40 37
22 25 24 23 26 31 32 40 39 42 48 51 54 54 55 54 53 53 53 53 54 54 55 57 55 56 57 55 55 57 57 57 57 56 55 53 52 52 49 47 46 46 46 49 47 45 42 39 35
24 22 23 21 24 27 37 37 36 42 49 51 53 54 53 53 52 52 53 53 54 54 54 55 56 57 56 56 56 56 56 56 56 56 55 54 52 51 50 48 48 48 50 50 48 46 45 41 38
22 23 19 20 24 27 29 24 37 43 48 49 50 54 53 52 51 52 53 53 54 54 54 55 56 55 55 55 54 54 52 52 55 56 56 55 53 52 52 50 50 52 51 50 48 47 47 43 40
23 16 19 21 26 28 31 29 40 43 43 46 49 52 52 51 51 51 52 53 54 53 54 54 54 53 53 52 52 51 50 49 51 55 55 55 55 55 53 54 54 54 52 50 49 48 47 44 43
15 20 20 18 25 31 32 33 39 43 42 41 42 49 51 51 50 50 51 52 53 53 53 54 53 52 52 52 52 50 50 51 52 52 54 54 54 56 55 55 54 53 52 50 50 48 48 48 46
22 22 21 21 25 29 29 32 35 41 42 42 41 45 50 50 51 51 51 52 51 53 53 53 52 51 51 50 50 48 45 49 50 52 53 55 55 57 55 55 55 53 51 51 49 49 48 47 48
22 21 20 20 25 30 26 25 29 40 41 44 44 46 50 50 50 51 50 50 50 52 52 52 52 51 50 49 49 47 46 50 52 51 52 54 56 56 56 55 56 55 53 52 50 49 48 48 47
22 21 21 19 20 25 24 23 30 39 42 44 44 46 50 50 50 50 50 50 50 50 52 52 52 51 51 50 49 48 49 51 50 51 51 54 57 57 56 56 57 56 56 53 51 50 48 47 48
22 23 22 22 22 20 23 17 27 36 36 40 41 46 49 50 50 50 49 49 49 49 51 52 51 51 51 50 48 47 47 47 47 47 49 53 56 58 58 57 57 57 57 55 52 52 50 48 47
23 25 22 23 23 22 21 18 19 30 33 37 39 43 48 49 50 50 50 49 50 49 50 51 51 50 50 49 48 47 48 49 51 52 52 52 55 58 58 58 58 58 58 57 55 52 51 50 49
25 23 24 25 24 19 21 21 19 21 25 31 39 41 46 48 50 50 50 50 50 50 50 51 50 50 49 49 48 48 49 51 52 51 51 52 54 58 58 58 58 58 57 56 55 54 52 51 51
23 22 18 18 19 19 22 26 26 25 24 28 40 43 44 49 48 50 49 48 49 49 49 49 49 49 50 49 49 50 51 52 51 50 50 50 53 56 58 58 57 57 57 56 55 53 52 51 50
22 22 20 17 18 20 29 25 24 28 29 30 42 44 45 48 48 47 48 48 48 47 48 48 48 49 49 49 49 51 52 53 52 51 51 52 53 55 58 58 57 57 56 55 54 53 52 50 48
23 21 24 22 31 27 25 26 27 28 28 27 32 43 43 46 49 48 47 47 47 46 47 48 48 48 48 48 49 51 52 52 53 53 53 54 56 57 57 57 57 56 55 53 52 51 49 48 48
22 25 22 27 21 21 24 25 25 25 23 21 24 37 41 45 44 49 49 48 48 48 48 48 49 48 47 48 49 50 51 52 55 56 55 56 58 58 57 57 56 54 52 51 50 49 47 46 44
21 21 22 24 28 25 22 22 28 27 23 23 23 31 33 42 45 46 49 50 49 49 50 50 50 50 49 50 50 50 52 55 56 57 58 58 59 59 58 56 53 52 50 49 49 47 45 44 43
21 21 22 20 23 27 25 24 28 30 29 27 24 28 33 38 44 45 47 49 50 50 50 50 52 51 51 52 53 54 57 58 58 58 58 58 57 56 55 53 51 50 49 47 46 44 43 42 41

GFSSGP_sfc_30mbdewp_069.txt.gz
Dewpoint
50 48 38 35 19 20 16 14 20 15 16 42 44 41 47 52 48 41 60 62 63 69 69 70 69 69 68 68 68 68 68 69 68 68 67 67 66 65 64 63 62 63 62 61 61 60 61 61 61
47 41 39 27 19 11 8 15 15 17 31 43 45 48 51 49 54 56 58 62 62 65 69 69 69 69 68 65 65 67 67 68 68 67 67 66 65 65 63 62 62 63 63 61 60 60 61 62 63
41 41 32 25 18 13 14 16 16 36 42 44 42 51 51 51 56 56 59 65 64 62 61 69 69 68 67 65 65 65 66 68 68 67 66 65 65 64 63 61 62 63 62 60 58 56 59 61 63
34 29 23 20 16 18 18 17 18 23 40 44 46 44 49 56 60 62 63 63 65 62 60 61 67 65 66 66 65 66 66 67 68 67 66 65 65 64 63 61 61 62 61 57 54 57 61 61 60
36 26 19 17 16 17 18 18 23 37 40 40 46 40 47 58 60 61 62 63 65 62 63 63 62 60 60 60 64 67 65 67 67 66 65 65 65 64 62 61 60 60 59 54 57 61 61 60 59
29 23 19 15 16 18 17 29 41 42 44 44 43 44 46 57 55 60 62 65 64 63 64 62 60 59 60 59 61 65 63 67 67 66 65 65 64 63 62 60 59 58 57 55 56 60 60 59 58
26 23 19 17 16 16 14 40 40 41 41 40 47 40 45 51 59 61 63 63 62 62 61 60 60 60 59 59 59 65 62 63 66 65 65 65 64 62 61 60 58 56 53 53 52 57 60 58 57
26 22 18 17 15 14 19 40 42 41 38 48 48 42 42 52 60 62 62 61 61 61 60 60 60 59 59 59 59 62 62 66 65 65 65 64 63 62 60 58 56 52 52 52 52 55 57 58 57
21 19 17 17 15 13 24 32 47 49 48 50 52 54 55 58 60 60 60 60 60 60 61 60 59 59 59 59 59 58 60 65 65 65 64 62 61 60 56 56 55 53 53 51 51 53 57 57 57
21 17 16 17 16 16 26 38 42 43 41 43 47 52 57 59 58 57 57 57 58 58 59 60 59 59 59 59 59 57 59 61 63 63 62 60 58 57 57 57 55 52 51 52 52 48 52 54 54
20 18 19 19 19 18 29 40 45 41 37 39 39 46 56 58 57 56 55 56 57 58 58 59 59 58 58 58 58 58 59 61 61 61 60 58 58 58 56 54 53 49 46 45 44 41 39 44 47
17 19 19 19 20 28 35 41 42 41 37 44 44 53 56 56 56 55 54 55 56 58 57 58 59 58 58 56 56 57 60 60 60 60 58 57 56 55 53 50 47 44 46 44 42 41 38 40 46
18 17 22 23 24 28 41 40 38 40 43 50 50 56 56 56 55 55 55 55 56 56 57 57 58 58 57 56 56 58 58 59 60 59 57 55 53 51 50 48 45 45 47 46 43 40 39 37 40
19 23 23 24 23 38 37 39 41 37 47 51 54 55 55 55 54 52 53 53 55 56 56 57 57 57 57 56 56 58 58 58 58 58 55 54 52 51 48 46 45 46 48 46 44 41 39 36 36
24 20 21 21 22 26 37 36 37 39 47 48 54 54 54 54 53 52 52 53 54 54 55 56 56 57 55 55 56 57 58 58 57 55 54 53 52 49 47 46 46 47 48 47 46 43 41 37 36
20 21 18 20 23 24 30 19 27 42 45 48 53 54 53 53 52 52 53 53 54 54 55 56 57 57 56 56 56 56 55 57 56 55 53 52 51 50 47 46 47 49 49 48 47 46 43 40 37
23 13 17 17 23 28 29 24 31 42 47 49 49 53 52 52 51 52 53 53 54 54 55 55 56 56 55 55 55 53 53 55 55 56 53 52 51 51 48 48 49 50 50 50 48 47 46 43 40
16 17 21 20 21 28 31 30 32 41 42 45 48 51 51 51 50 51 52 53 54 54 54 54 55 55 54 53 53 51 52 52 54 55 54 53 52 53 51 52 52 52 52 50 49 48 48 45 43
21 20 20 20 22 24 27 29 29 37 42 41 43 48 50 50 51 51 52 51 52 53 53 53 53 53 53 52 53 50 49 49 52 53 55 55 55 55 53 54 54 54 52 50 50 48 47 47 47
22 21 20 21 22 26 27 28 30 37 40 40 42 43 48 50 50 50 51 51 51 53 53 53 52 52 51 51 51 50 47 48 51 51 52 54 55 56 56 55 55 53 52 51 50 49 48 47 48
22 21 20 20 22 26 27 24 25 35 40 42 43 44 48 49 50 50 50 50 51 52 52 52 51 51 50 50 50 48 47 47 47 49 50 51 53 55 55 56 55 55 53 51 51 50 48 47 49
19 23 22 22 22 19 23 19 20 27 35 41 41 45 47 49 50 50 50 49 49 51 52 52 52 51 50 50 48 48 46 43 43 44 47 48 52 54 56 56 56 56 55 54 52 52 50 49 48
22 24 24 24 23 22 21 20 20 28 29 34 39 41 46 49 50 50 50 50 50 50 51 52 52 51 51 50 49 48 47 46 45 46 47 48 51 54 56 57 56 56 56 56 54 52 51 51 49
25 25 24 26 24 19 21 21 20 22 24 28 38 40 43 49 50 50 50 49 49 49 50 51 51 51 51 50 50 48 47 47 47 49 49 50 51 53 56 57 57 57 57 56 55 54 52 51 50
26 23 20 19 18 17 22 22 21 23 23 24 28 37 41 47 49 50 50 49 49 49 49 50 51 50 50 50 49 49 47 48 48 49 50 49 49 52 54 56 57 57 57 57 56 54 53 51 51
23 22 20 17 17 17 27 25 25 29 30 29 29 34 40 47 49 50 50 50 49 49 49 49 50 50 50 50 49 49 48 48 50 52 52 52 51 52 54 57 57 57 57 56 55 54 53 52 51
23 22 23 21 29 25 24 25 26 26 27 28 33 38 41 44 48 49 50 50 49 49 49 49 49 50 49 49 49 49 49 49 50 52 53 53 53 53 55 56 57 57 57 57 56 54 53 51 50
23 25 22 26 19 20 22 25 23 23 25 24 29 41 43 44 47 48 49 50 49 49 49 49 49 48 49 49 49 49 49 51 52 53 54 54 54 55 56 57 57 56 56 54 53 52 50 49 48
23 21 23 24 24 20 22 22 27 27 28 24 22 34 44 44 47 49 48 48 49 49 48 48 48 47 47 48 48 49 49 51 53 53 54 55 57 57 57 57 57 56 54 53 51 50 48 47 46
23 21 22 20 22 27 25 23 27 29 29 30 28 27 33 43 45 47 49 49 48 48 48 48 49 48 49 47 48 49 50 51 52 53 56 57 57 58 58 57 56 53 52 51 50 48 46 46 45

GFSSGP_sfc_30mbdewp_072.txt.gz
Dewpoint
49 44 39 30 16 18 12 12 20 15 17 37 46 42 42 49 45 37 60 62 63 69 69 69 69 69 69 68 68 68 68 68 68 68 68 68 67 66 65 65 64 64 63 61 61 60 60 61 61
46 40 36 25 13 7 9 15 14 16 20 43 48 48 49 47 54 56 60 63 63 66 68 68 69 68 68 68 68 69 68 68 68 68 67 67 66 65 64 64 64 63 62 60 59 61 61 60 61
43 40 29 22 17 12 13 16 16 21 40 43 42 50 50 48 55 56 61 64 65 63 64 67 68 67 67 68 68 68 68 68 68 67 67 66 65 64 64 64 64 63 63 63 62 62 62 61 61
32 28 22 19 16 18 18 18 19 19 35 44 46 42 49 56 60 61 62 62 63 64 61 64 65 64 66 65 64 65 68 68 67 67 66 65 64 63 64 64 63 63 61 60 61 62 63 62 61
32 24 18 17 16 17 18 18 33 34 38 41 46 39 46 57 59 59 61 62 63 64 62 63 62 62 62 62 62 62 65 67 67 66 65 64 64 63 63 63 63 61 58 58 62 62 61 61 59
28 23 19 14 15 18 18 19 41 41 42 44 41 42 44 57 55 60 62 63 64 64 63 61 61 60 61 60 59 62 64 66 66 66 65 65 64 62 62 63 61 58 61 62 62 61 60 59 58
25 21 17 17 16 16 14 40 39 39 38 38 45 40 44 50 58 61 62 62 62 62 60 60 61 60 60 59 58 62 64 65 65 65 65 64 63 62 61 60 59 58 62 62 61 60 59 58 57
25 21 19 18 16 14 19 38 42 40 35 48 48 40 42 52 59 61 61 60 60 60 60 60 60 60 60 60 59 59 63 65 64 64 64 64 63 62 60 58 56 57 60 61 60 59 59 58 57
22 20 18 17 15 14 24 27 44 48 46 48 49 53 54 58 60 60 59 59 59 59 59 60 59 59 58 58 59 60 63 64 63 63 64 62 61 59 57 54 55 55 57 59 60 59 58 57 57
21 19 18 19 17 17 19 28 36 43 43 42 46 50 57 59 59 58 58 57 58 58 59 60 59 59 59 59 59 62 63 62 61 61 61 60 58 56 57 55 54 55 55 58 59 59 57 56 55
20 18 19 19 19 19 20 34 44 41 36 38 38 46 55 57 57 57 57 58 58 59 59 59 59 59 58 58 57 60 61 62 62 59 60 57 57 57 55 52 52 52 50 51 56 54 51 53 52
19 19 19 19 20 24 27 39 40 43 38 45 43 51 54 55 55 55 55 56 57 58 58 59 58 58 58 58 56 58 60 61 59 60 57 56 55 53 51 48 45 45 44 41 45 47 47 49 49
18 17 20 22 23 24 33 32 38 38 43 49 48 54 55 54 55 55 55 55 57 57 57 58 58 58 57 57 56 58 60 60 60 58 56 54 51 50 48 46 45 45 45 41 39 42 46 47 48
18 20 22 23 20 26 33 36 41 38 46 49 51 52 55 55 54 53 53 54 56 57 57 58 58 58 57 55 56 58 59 60 60 58 55 52 50 49 46 44 46 46 44 42 40 38 43 44 45
23 21 20 18 20 22 38 32 35 40 46 49 53 53 54 54 53 52 52 52 54 56 57 57 57 58 57 56 57 58 58 59 59 57 54 52 49 48 46 45 46 47 46 44 41 39 37 37 38
21 20 14 16 24 26 31 21 25 36 44 46 50 53 53 53 53 52 52 52 53 55 56 56 57 57 56 56 57 58 58 58 58 55 54 52 50 48 46 46 47 48 48 46 43 40 38 36 36
21 12 14 15 22 28 31 25 27 42 44 42 48 52 53 53 52 52 53 52 53 54 55 56 57 56 56 56 56 56 57 57 57 55 53 51 50 48 46 46 47 49 50 48 45 44 42 39 37
15 18 19 17 21 23 23 26 28 36 42 43 48 50 52 51 51 51 53 53 53 54 55 56 56 56 56 55 55 55 56 57 57 55 52 50 50 48 48 48 49 50 50 49 48 46 47 44 41
18 19 19 20 21 20 19 22 24 31 40 41 43 47 50 51 51 51 52 52 53 54 54 55 55 55 55 53 52 54 54 55 56 55 53 51 51 49 49 50 50 52 50 49 49 48 47 47 45
21 19 19 20 21 22 21 22 26 32 34 39 40 42 47 50 50 50 51 50 52 52 53 54 54 54 54 54 53 53 52 52 53 54 54 54 53 53 52 52 53 53 52 51 50 48 47 47 46
21 19 20 18 21 23 24 24 24 26 36 40 41 42 44 48 50 49 49 49 51 52 53 53 53 53 53 53 53 52 51 51 51 51 52 54 55 55 55 55 54 54 53 52 50 49 48 47 48
18 22 21 20 20 18 25 20 21 22 25 35 40 42 44 47 50 50 49 48 49 52 52 52 51 52 50 50 50 49 48 49 48 49 50 51 54 55 55 55 55 55 54 52 52 51 49 49 47
18 22 21 21 22 22 22 20 21 23 22 23 30 39 43 47 49 50 49 49 49 51 52 52 51 51 50 49 50 49 48 47 44 45 46 47 49 52 53 55 55 56 55 55 53 52 51 50 49
26 24 25 26 25 21 22 21 20 21 22 23 28 33 40 45 49 50 50 50 49 50 51 51 51 50 50 50 49 48 47 47 45 44 45 47 49 50 52 53 55 56 56 56 55 55 53 52 51
25 23 20 20 21 20 22 21 20 22 23 24 25 27 36 43 49 50 50 49 49 49 50 51 51 51 50 50 49 48 48 47 47 46 46 46 47 49 51 53 54 55 56 56 56 55 54 52 51
25 24 21 17 17 18 27 21 22 28 28 30 29 28 32 41 48 50 50 49 49 49 49 50 51 50 50 50 49 49 48 48 48 48 48 49 49 49 50 52 55 55 56 56 55 55 54 54 53
23 23 25 21 27 24 22 25 26 26 26 26 28 31 32 40 47 49 50 49 49 49 49 49 50 50 50 50 50 49 49 48 48 49 51 51 51 52 52 52 53 55 56 56 55 55 55 53 52
24 25 21 24 18 18 22 24 20 22 22 27 26 32 37 41 46 49 50 50 49 49 49 49 50 50 50 50 50 50 49 49 49 49 50 52 53 53 53 53 54 55 56 56 56 56 55 53 51
23 22 23 24 24 18 17 20 27 22 26 28 27 24 37 42 43 47 49 50 50 50 50 49 49 50 50 50 50 49 49 49 50 50 52 53 54 53 54 54 55 56 56 55 54 54 52 51 49
24 23 23 21 20 27 23 20 27 27 29 29 29 30 28 40 44 46 48 49 50 49 50 50 50 50 50 49 49 49 49 49 50 50 51 52 53 55 55 55 56 56 56 53 53 51 50 50 48

GFSSGP_sfc_30mbdewp_075.txt.gz
Dewpoint
49 41 40 29 16 15 9 10 20 17 17 29 45 43 40 45 42 37 60 63 64 68 68 67 69 69 69 69 70 69 69 69 69 68 68 68 68 68 67 66 65 65 64 63 62 62 63 61 62
44 40 34 25 11 10 11 14 14 17 19 44 50 48 48 43 53 56 61 64 64 68 68 67 69 69 69 69 69 69 69 69 69 68 68 68 67 66 66 65 64 64 62 60 60 60 61 62 62
43 37 29 21 17 12 12 16 16 17 25 39 42 49 50 47 55 56 62 63 65 64 67 66 69 68 66 67 68 69 69 69 68 68 68 67 66 66 65 64 64 63 62 60 59 60 61 62 62
33 29 23 20 15 18 17 18 19 20 30 43 45 41 49 55 58 61 62 62 64 63 65 66 66 66 65 65 66 66 68 68 68 67 67 66 66 65 65 64 63 62 61 62 60 61 61 61 61
30 25 19 17 17 18 19 19 23 32 37 41 46 40 45 56 60 59 61 62 63 64 65 65 65 64 64 63 63 63 65 66 67 67 66 65 65 65 65 64 63 64 64 64 63 61 60 60 60
28 25 19 14 15 18 19 20 37 40 41 43 42 42 43 56 56 59 62 62 64 64 64 64 64 64 63 62 60 61 65 64 66 65 65 65 65 64 64 64 62 61 62 63 64 61 60 59 59
26 22 17 17 16 17 16 36 37 37 38 38 45 38 44 52 57 62 61 62 63 63 63 63 63 63 62 61 59 58 62 65 65 65 65 64 64 64 64 62 60 61 64 64 63 61 60 59 58
26 22 19 19 16 15 17 36 41 38 34 48 46 38 41 50 59 61 61 61 61 60 61 62 62 62 61 61 60 60 63 64 65 65 64 63 64 64 62 60 63 64 63 62 61 60 59 59 58
23 21 18 18 17 16 18 27 41 47 43 46 48 49 53 58 60 60 59 59 59 60 60 60 60 60 60 60 60 60 63 64 65 65 64 62 62 61 59 58 63 63 62 61 59 59 59 58 57
23 21 19 20 19 18 19 23 27 39 42 43 47 54 57 58 59 58 58 57 58 58 59 60 60 60 59 59 60 61 61 64 63 63 62 60 59 57 55 58 60 62 61 60 59 59 58 54 53
22 19 20 19 19 19 20 27 38 39 32 37 39 47 54 56 57 57 58 58 58 59 59 60 59 59 59 58 59 61 62 61 63 62 60 57 56 55 55 56 57 59 60 56 56 55 52 52 51
20 21 20 19 20 23 22 34 36 41 32 45 43 50 54 55 55 57 57 58 58 59 59 60 59 59 58 57 58 61 60 61 61 60 57 56 54 53 52 51 52 55 57 57 55 53 53 53 51
20 19 19 20 21 24 28 28 30 35 44 48 51 53 53 54 55 56 55 56 57 58 58 59 59 58 58 57 58 60 60 59 59 58 55 53 50 50 49 48 47 47 51 53 52 51 51 50 50
20 19 19 23 22 23 24 29 39 37 42 47 50 53 54 54 55 55 55 55 56 58 58 59 58 58 57 56 57 60 60 59 58 57 54 51 48 47 46 47 46 45 46 48 50 50 50 49 48
22 21 21 20 19 20 33 28 30 39 46 48 50 52 55 54 54 53 53 53 54 57 58 58 58 58 57 56 58 59 60 58 58 56 53 50 47 45 46 47 46 46 44 45 46 49 49 48 47
22 21 16 16 24 29 30 19 25 34 42 43 50 52 54 54 54 54 53 52 53 55 57 58 58 58 57 57 58 59 60 59 58 54 52 50 47 46 48 48 48 48 46 44 43 44 44 44 44
21 12 14 14 20 30 29 21 25 42 43 42 46 51 53 54 54 53 53 52 52 54 56 57 57 56 56 57 58 58 59 58 56 54 51 50 48 48 48 49 50 51 49 47 42 41 40 39 39
15 17 18 14 22 26 24 21 23 29 37 38 43 48 52 53 52 52 53 52 52 54 56 56 57 56 57 57 57 57 58 58 57 53 51 50 48 49 48 50 50 51 49 48 46 44 45 41 39
18 18 14 19 22 21 17 18 21 26 37 38 42 46 50 52 53 52 52 52 52 54 55 56 56 56 56 56 55 56 56 57 57 54 52 50 48 49 48 49 50 52 50 49 50 49 48 47 45
20 19 18 19 22 22 19 20 21 27 30 33 36 42 47 51 52 52 52 52 52 52 53 55 55 55 55 55 55 55 56 57 57 55 53 51 49 49 49 50 52 52 52 52 51 50 50 50 47
23 21 19 16 21 21 22 19 23 25 31 36 40 41 43 48 50 50 51 49 52 50 51 53 54 55 55 54 54 54 54 55 55 54 54 52 51 50 51 52 54 54 54 53 53 51 50 49 49
22 23 22 20 19 11 25 15 22 23 23 27 30 41 42 46 50 51 50 49 50 51 52 54 54 54 55 54 53 53 52 52 54 54 54 53 53 52 51 54 54 55 56 55 54 53 51 51 49
20 22 21 20 19 19 17 19 21 23 22 23 24 32 43 45 49 50 50 50 49 50 52 52 53 53 53 54 53 52 53 53 54 54 53 53 53 52 53 55 55 56 56 56 55 54 53 53 51
24 23 25 27 24 21 22 21 20 22 22 23 25 29 39 45 48 50 50 51 50 50 52 52 52 52 51 52 52 51 51 51 50 51 51 51 53 54 55 55 56 56 57 57 56 56 55 54 52
24 23 19 21 21 18 23 22 21 24 23 24 25 27 31 44 48 49 50 50 50 50 51 50 51 51 51 51 52 51 51 50 48 49 49 49 49 51 52 53 54 55 56 57 57 57 56 55 55
25 23 21 13 18 19 24 21 20 26 29 29 30 31 31 40 47 49 49 50 50 50 50 50 51 51 51 51 50 51 51 50 49 48 48 48 48 50 51 53 53 54 55 56 56 56 57 56 56
26 24 25 22 26 23 22 25 25 25 25 27 28 29 32 35 45 48 49 50 50 50 50 51 51 51 51 51 50 50 50 50 49 50 50 50 51 51 51 52 52 53 54 55 56 56 56 56 56
25 27 23 24 18 16 20 23 20 21 22 25 27 28 28 40 44 48 49 50 50 50 50 51 51 50 51 51 51 50 50 50 50 50 50 51 51 51 51 51 52 52 53 55 56 56 56 56 54
24 23 25 24 24 17 16 20 27 24 25 25 28 30 30 36 44 48 49 50 50 50 50 50 50 50 50 51 51 51 51 50 50 50 50 51 52 52 52 52 53 53 54 55 56 56 56 55 55
24 23 24 22 21 27 23 20 26 27 28 30 29 30 32 31 41 46 49 50 50 50 50 50 50 50 51 51 51 51 51 51 50 50 50 51 51 51 52 52 52 54 55 56 56 55 55 54 52

GFSSGP_sfc_30mbdewp_078.txt.gz
Dewpoint
45 35 33 31 16 5 -4 4 14 14 16 19 30 33 35 40 34 33 61 64 65 66 65 66 70 69 70 71 70 70 70 70 69 68 69 69 69 69 69 68 67 66 65 65 64 64 63 63 63
36 38 35 23 11 3 4 12 15 16 18 27 35 43 42 35 49 54 60 63 64 67 66 64 69 69 69 70 70 70 70 69 69 69 69 69 69 69 68 67 66 66 64 64 63 63 63 62 62
41 40 27 18 12 6 8 14 17 19 21 25 37 43 43 38 52 55 61 63 65 66 67 65 69 68 68 67 69 70 69 69 69 69 69 68 68 67 67 66 65 64 64 63 63 63 62 62 62
34 28 24 16 10 14 14 17 20 24 24 32 37 36 47 51 55 58 61 62 63 64 68 68 68 67 66 65 67 65 68 69 68 68 68 68 67 67 66 65 64 63 62 61 61 62 62 62 62
30 24 14 8 12 15 17 19 21 30 30 36 41 31 40 51 59 60 60 61 61 65 67 66 67 65 65 65 65 66 66 67 67 68 67 67 67 66 65 64 63 62 62 62 61 62 61 61 61
25 23 10 5 11 14 17 21 28 32 33 37 37 35 38 52 56 58 61 61 63 64 66 66 65 65 65 65 64 64 65 65 67 64 66 67 66 66 65 64 63 64 63 62 62 61 61 60 60
22 16 10 7 10 14 16 26 27 25 27 30 38 33 38 47 54 59 61 62 64 65 66 66 65 65 63 62 63 65 65 65 66 65 64 65 65 65 64 64 64 64 64 63 62 61 60 60 59
22 17 14 10 10 12 17 22 30 30 25 43 40 27 32 47 56 59 61 62 62 63 63 64 65 64 62 61 60 62 65 63 64 64 64 64 64 64 63 63 64 65 64 63 61 60 60 59 58
24 15 11 9 12 14 18 20 26 35 32 38 42 40 47 53 57 57 59 60 60 60 61 62 62 63 63 62 61 61 62 64 64 64 64 64 63 62 61 60 64 64 63 62 60 60 59 58 58
19 12 11 13 15 16 18 20 22 28 25 33 40 48 54 55 55 55 57 57 59 59 60 60 60 61 61 60 61 61 61 62 62 63 64 63 62 60 59 64 64 63 61 60 60 59 58 53 50
17 12 13 17 17 18 17 19 24 25 20 22 26 33 51 53 52 54 55 57 58 60 60 60 60 61 60 61 60 62 63 62 62 62 62 62 60 60 60 63 61 60 57 52 54 54 48 47 46
15 16 14 15 18 19 17 19 23 23 25 38 34 41 48 50 51 53 54 55 58 59 60 60 60 60 60 59 59 61 62 62 63 62 60 59 59 57 59 59 57 55 52 52 51 49 49 48 47
20 14 17 19 19 19 20 20 20 21 25 40 42 45 47 48 50 52 53 56 58 58 59 60 60 60 59 59 59 61 61 61 60 60 58 57 55 54 55 58 57 55 54 53 51 50 50 48 48
18 18 16 16 16 19 20 16 29 20 34 41 46 44 46 48 51 52 54 55 56 57 58 59 60 59 58 57 60 60 59 59 58 58 56 55 53 51 52 52 53 56 56 53 51 50 46 44 45
18 17 15 15 16 15 18 16 20 24 39 39 42 44 48 50 51 52 53 54 55 54 57 59 59 59 57 57 59 59 59 58 57 56 54 53 52 51 49 48 49 51 52 51 50 49 46 44 44
19 18 15 15 14 15 25 11 21 28 37 36 42 44 49 52 52 52 54 54 54 53 56 58 58 58 57 57 59 59 58 58 57 54 51 50 49 49 47 46 47 48 50 50 50 48 46 45 43
19 14 15 14 17 21 25 14 21 33 32 32 39 43 47 50 52 53 54 53 53 52 55 57 58 58 57 58 59 59 58 57 57 54 50 49 48 49 46 46 47 47 45 46 46 45 44 42 41
15 16 16 14 14 17 19 19 16 21 27 29 35 40 44 48 51 53 53 53 52 52 54 56 58 57 57 58 58 58 57 56 56 53 49 46 45 48 45 44 47 45 43 43 41 42 41 40 39
17 17 15 14 15 18 15 15 14 15 24 29 33 37 41 45 49 53 53 53 52 53 54 56 56 56 57 56 57 56 56 55 54 52 49 46 46 47 49 51 50 47 47 46 46 44 45 43 42
20 16 15 15 18 18 13 11 12 16 21 25 25 34 39 44 49 52 53 53 52 52 53 55 56 56 56 56 55 57 56 56 54 53 50 49 49 51 52 51 51 51 52 50 50 48 48 49 46
21 18 17 16 17 18 15 14 9 12 23 26 31 33 36 42 48 51 52 52 52 52 52 54 56 56 56 56 55 57 57 57 54 53 51 51 50 49 51 52 52 53 53 52 52 51 50 49 51
17 19 20 20 18 14 18 10 10 17 19 20 23 32 36 39 46 49 51 51 52 51 52 53 55 55 55 55 55 55 55 54 54 53 52 52 51 50 51 52 53 53 52 52 53 52 52 50 50
19 18 20 19 18 17 16 13 11 18 20 20 21 24 34 38 44 47 50 51 51 51 52 54 55 55 55 54 54 54 54 54 55 54 53 52 52 52 51 52 52 51 54 53 54 54 54 53 51
23 21 21 21 19 17 18 13 14 13 18 20 20 22 30 38 42 46 49 50 50 51 52 53 53 54 55 54 54 54 54 54 54 54 53 52 51 51 50 51 54 53 55 54 56 57 56 55 54
21 20 18 19 19 16 18 17 16 20 21 22 23 24 29 37 42 45 48 49 50 50 51 52 52 53 54 54 54 54 54 54 54 53 53 51 51 50 50 52 52 54 55 55 55 55 56 56 55
22 22 18 14 16 17 22 17 18 23 25 27 28 27 29 34 41 44 47 49 50 50 51 51 51 52 53 53 54 54 54 53 54 54 53 51 51 50 51 53 52 53 52 53 53 54 54 55 55
25 23 23 18 22 19 18 21 23 22 21 22 26 27 28 32 39 43 46 48 50 50 51 51 50 51 52 53 53 53 54 53 52 53 53 52 51 51 52 53 53 53 53 52 53 53 53 54 55
23 24 23 23 20 18 17 17 17 21 20 23 26 29 29 34 36 42 45 48 49 51 51 51 51 50 51 52 53 52 52 53 52 53 53 52 52 51 52 52 53 52 52 52 51 51 52 52 54
23 22 22 21 21 17 16 17 22 21 22 23 26 28 30 34 40 42 45 47 49 50 51 51 50 49 50 51 52 51 51 52 53 53 53 52 52 51 50 51 51 50 50 50 51 51 52 52 54
23 22 22 20 19 21 20 19 22 26 29 30 30 29 29 32 38 43 45 47 48 50 50 51 51 49 49 50 52 52 52 51 53 54 53 54 53 52 51 50 49 50 50 50 51 52 54 55 55

GFSSGP_sfc_30mbdewp_081.txt.gz
Dewpoint
45 35 27 26 17 10 3 -2 5 9 12 16 24 27 27 31 25 33 58 62 65 65 67 66 69 69 71 71 70 70 70 70 70 69 68 69 69 69 69 68 67 66 66 66 66 65 64 64 64
34 26 28 23 10 7 4 6 10 12 15 19 28 29 28 27 37 45 54 61 63 66 64 65 69 69 70 71 70 70 70 70 69 68 69 69 69 69 69 67 66 66 65 65 64 64 64 63 64
39 32 28 18 12 8 8 11 11 16 19 19 26 32 32 32 45 51 60 61 64 65 67 66 68 69 69 70 70 70 69 69 69 68 69 69 69 68 68 67 66 66 65 64 64 64 63 63 63
32 27 21 8 9 12 12 13 17 18 19 22 24 23 36 46 50 55 60 61 62 66 67 68 68 68 68 69 68 68 67 67 68 69 69 69 69 68 67 66 66 65 65 63 63 63 62 63 61
31 23 15 13 9 12 14 15 19 19 22 25 29 23 29 46 55 57 59 60 61 65 67 68 68 68 67 66 64 64 65 67 67 69 69 68 68 67 66 65 65 64 64 64 63 62 62 61 60
22 19 15 8 7 13 14 17 20 22 23 27 26 24 26 50 52 56 60 60 62 64 66 67 67 66 64 63 63 64 62 59 66 66 66 67 67 66 65 64 64 63 64 64 63 62 61 61 59
21 19 14 10 8 11 14 19 21 21 20 21 28 26 29 43 52 58 59 61 62 63 65 67 66 65 64 62 62 64 62 61 65 64 65 65 65 65 64 64 64 64 63 63 62 62 61 60 59
21 18 14 11 9 8 14 17 21 22 19 33 27 20 24 46 53 57 59 60 62 64 65 66 65 65 64 63 63 63 65 65 64 64 65 65 65 64 63 63 64 64 63 62 62 61 61 60 58
23 15 13 11 10 9 15 16 17 22 22 22 29 32 39 48 54 54 58 59 60 62 63 64 64 65 63 63 62 61 62 64 65 63 64 64 65 62 62 61 64 63 63 62 61 61 60 58 57
20 13 11 12 11 11 14 16 17 17 17 22 29 37 47 48 50 51 53 56 58 60 61 62 63 63 63 62 61 61 60 62 63 63 63 63 63 62 61 63 64 63 62 61 61 60 58 53 50
19 15 13 12 13 12 14 15 16 17 18 17 24 25 34 47 47 49 51 55 57 59 60 61 61 62 62 61 61 61 62 63 64 63 63 63 63 63 59 63 63 62 59 55 55 55 48 46 45
16 17 14 13 13 14 14 15 14 16 18 20 27 30 33 43 45 46 49 52 57 58 59 60 61 61 61 61 60 60 61 62 62 63 63 63 62 61 61 61 60 58 52 50 50 48 48 47 45
16 15 13 14 13 14 15 14 16 15 17 20 29 36 37 40 43 46 49 52 55 56 59 60 60 60 60 60 59 59 61 61 62 63 63 62 60 60 59 57 58 53 51 51 48 48 47 47 47
17 16 17 15 15 13 13 13 14 14 18 26 34 37 38 41 43 45 50 52 53 54 55 60 60 60 59 59 60 61 61 62 63 61 62 61 60 59 58 58 55 53 52 50 48 49 48 47 47
17 16 16 16 15 14 14 12 12 14 18 27 33 39 39 42 44 46 48 51 53 53 52 56 59 59 58 58 60 60 60 59 58 58 59 58 58 59 58 57 55 56 54 53 53 49 46 44 45
18 18 16 16 16 15 14 9 11 14 29 28 31 36 39 43 45 46 49 51 52 52 51 56 59 58 58 57 60 59 58 57 57 57 56 55 54 54 54 56 56 56 55 53 51 48 45 43 43
18 15 16 17 16 13 12 11 15 23 26 28 29 35 38 43 46 47 50 51 52 52 51 55 58 57 58 58 60 59 57 56 56 55 54 55 54 53 53 52 53 54 52 53 52 49 47 44 43
15 15 17 16 16 15 16 18 18 21 22 23 24 30 36 41 45 48 50 51 52 51 52 54 57 58 58 58 59 58 57 56 55 53 53 54 54 53 51 50 51 50 50 49 49 47 46 45 42
18 16 16 17 16 16 16 13 14 17 15 17 22 23 32 37 42 48 51 51 52 52 52 54 57 58 57 57 57 56 55 54 53 51 51 51 50 49 48 48 47 46 45 46 48 47 45 43 42
19 18 17 18 17 17 17 15 14 13 12 13 18 20 28 33 39 47 51 52 52 52 52 53 56 57 57 57 57 56 55 54 52 50 47 48 48 45 46 47 50 46 46 47 47 47 47 44 45
21 21 20 19 18 18 17 17 17 16 15 14 17 22 23 30 37 46 50 52 53 52 52 53 56 56 56 56 57 56 54 55 52 51 46 47 50 49 49 52 51 50 51 51 52 51 49 48 48
22 23 20 19 18 16 18 14 15 14 11 12 20 22 24 26 35 44 50 51 52 52 52 53 55 56 56 56 57 55 52 51 51 51 50 48 50 52 53 53 54 54 54 53 53 52 51 51 51
22 21 20 18 19 20 18 16 16 17 14 15 18 19 21 28 32 42 48 51 51 52 52 53 55 54 55 56 56 55 53 52 53 51 49 48 49 50 51 53 54 54 54 54 54 52 53 53 52
23 19 20 19 18 17 18 18 17 16 16 18 19 19 21 27 33 41 47 49 50 51 51 53 54 55 55 55 56 55 54 55 54 52 50 50 49 51 52 52 54 54 53 55 55 55 55 55 54
22 19 18 17 17 17 19 18 18 18 19 20 21 21 20 25 34 39 45 48 49 50 51 52 53 53 55 55 54 55 55 54 54 52 51 50 50 51 52 52 53 53 54 54 56 55 55 56 56
20 20 17 16 19 19 20 16 17 19 21 20 21 22 24 28 32 36 43 47 48 50 51 51 52 53 54 55 54 54 55 55 54 53 51 51 50 49 50 51 50 52 53 53 55 55 54 57 56
25 20 20 24 24 21 23 21 23 22 21 21 23 24 24 25 28 36 41 47 48 49 50 50 51 52 53 54 55 55 55 55 54 53 53 52 51 50 49 50 51 51 52 53 54 54 53 55 54
25 26 22 23 21 19 19 19 20 21 20 21 24 27 27 28 30 36 40 45 47 49 51 51 50 50 52 53 55 54 55 55 55 55 55 54 53 52 50 52 51 52 51 51 52 52 53 54 54
23 22 28 28 24 22 22 22 24 22 22 21 25 27 28 31 35 36 40 43 47 49 50 51 51 48 50 52 53 54 54 55 55 55 56 56 55 54 52 52 52 52 52 52 52 52 53 53 53
22 21 23 25 25 24 23 25 23 25 28 28 29 27 27 29 32 39 40 43 46 48 50 51 51 48 49 50 52 53 54 54 55 55 55 56 55 54 53 53 53 52 52 53 53 53 52 52 52

GFSSGP_sfc_30mbdewp_084.txt.gz
Dewpoint
47 39 32 28 21 18 11 6 3 8 10 15 19 22 25 25 22 41 58 63 64 66 67 67 69 69 70 71 70 70 70 70 70 69 69 69 70 69 69 68 67 67 67 66 66 65 65 65 66
37 29 25 22 21 11 9 7 9 11 15 18 19 21 23 23 37 50 59 61 63 66 66 67 68 69 71 71 70 70 70 70 70 69 69 69 70 69 69 68 67 66 67 66 65 65 64 65 66
42 35 25 25 20 13 10 11 11 15 18 16 17 26 26 36 47 51 59 61 63 65 66 68 67 69 70 71 70 70 70 70 69 68 69 70 70 69 68 67 67 66 67 65 65 64 64 64 64
33 29 26 19 12 9 12 13 15 16 18 17 18 19 32 44 44 54 59 59 62 65 67 67 67 67 69 70 70 69 69 69 69 68 69 69 69 68 67 67 66 66 66 65 65 64 63 62 61
30 27 21 18 15 13 14 14 16 16 18 21 23 23 29 47 55 56 57 59 60 65 66 68 67 68 68 67 68 66 65 64 61 65 68 69 68 67 67 66 65 65 65 65 63 63 62 60 59
25 23 17 15 14 10 14 15 17 18 19 23 25 23 33 50 52 56 60 60 62 63 67 67 67 67 65 65 64 63 63 62 61 60 64 67 68 67 66 65 65 65 65 64 63 63 61 60 59
24 20 17 17 15 11 13 16 18 20 20 18 25 25 29 47 54 60 60 61 62 63 65 66 67 66 63 62 62 63 62 59 61 60 61 66 67 66 65 65 65 65 64 64 62 62 60 59 57
21 20 17 16 14 11 12 17 18 20 19 28 24 18 26 50 55 57 60 60 61 63 65 66 66 66 65 63 62 63 63 62 60 61 64 64 65 64 63 64 65 64 64 63 62 61 60 58 56
20 17 16 16 13 11 14 15 16 17 19 19 22 25 30 50 54 54 59 59 60 61 62 64 65 65 64 64 63 63 64 63 64 62 63 63 64 65 62 64 64 63 63 63 62 61 59 56 54
18 18 17 15 13 12 12 15 15 15 18 18 22 26 41 45 50 51 56 57 58 60 60 63 64 64 64 64 62 62 63 64 64 62 65 64 64 63 62 63 63 63 62 62 61 59 57 54 52
17 18 18 16 14 13 11 12 15 14 14 17 18 25 34 45 45 47 48 54 57 59 60 61 62 63 62 62 63 62 62 65 65 64 64 63 63 64 63 62 62 62 61 60 59 57 53 50 50
17 17 18 18 15 13 13 13 13 13 15 18 19 23 29 29 42 43 46 51 56 58 58 61 61 62 63 63 62 62 62 63 63 63 63 62 62 62 61 61 62 59 58 56 55 52 50 49 48
16 16 15 16 16 13 12 14 14 14 18 17 17 25 31 32 38 43 45 55 56 56 60 60 61 61 61 61 61 61 62 62 62 63 62 62 62 61 62 62 61 57 53 52 51 50 49 49 47
16 15 15 16 15 14 14 14 14 14 14 15 18 28 31 35 38 41 46 49 54 55 60 61 60 61 60 61 60 60 60 62 62 63 63 63 62 60 61 61 60 53 51 50 49 51 50 49 49
17 16 17 16 16 17 16 15 14 15 16 15 20 29 36 37 39 41 46 50 53 53 60 61 61 61 60 60 60 61 61 61 62 63 63 62 62 60 60 59 57 53 52 50 52 51 50 50 49
20 18 15 17 16 16 16 13 16 16 14 14 20 28 35 38 39 43 45 49 53 52 55 60 60 59 59 60 60 59 58 58 59 60 62 60 60 59 58 57 57 57 56 53 52 50 49 49 49
19 17 16 16 17 16 16 15 15 15 14 21 27 28 33 37 40 44 47 49 51 52 53 58 59 58 58 60 59 57 57 57 57 57 57 59 58 57 56 57 58 58 56 54 51 49 48 46 48
20 18 17 17 17 17 15 14 15 17 22 24 25 26 29 35 40 45 47 50 51 52 52 58 58 58 58 59 58 57 56 56 55 55 55 55 56 57 56 56 56 55 54 53 51 48 49 47 46
21 19 18 17 18 18 17 15 16 18 19 22 22 24 23 31 39 45 48 51 52 53 53 57 57 57 58 58 56 55 54 54 54 54 54 54 53 54 55 55 55 54 52 51 49 47 46 44 45
22 20 19 21 20 19 17 16 17 17 15 16 16 18 23 27 34 45 50 51 52 53 53 57 56 57 57 57 57 55 54 54 53 53 53 53 52 53 53 53 53 52 51 50 50 47 47 46 47
16 21 19 19 20 20 18 17 18 19 18 18 16 15 19 23 32 46 50 52 53 53 53 56 56 57 57 57 57 55 54 53 50 50 51 52 52 51 49 50 48 49 48 48 50 49 46 46 47
20 21 20 21 21 20 21 17 18 19 19 20 19 17 19 22 30 44 50 52 53 53 53 53 55 56 57 57 56 54 52 50 49 48 49 50 51 50 47 48 48 51 50 51 49 51 50 51 47
28 24 27 27 24 21 19 18 18 18 17 16 15 16 23 25 27 40 50 51 53 54 54 54 55 56 56 57 55 54 52 49 49 47 46 48 50 51 51 50 52 51 54 54 53 53 52 53 53
34 32 30 27 24 21 19 19 19 19 19 17 16 19 22 25 29 34 50 50 52 53 53 53 54 55 56 57 55 54 52 50 50 48 45 46 50 51 51 54 55 55 55 54 54 54 54 53 53
25 28 28 26 22 20 19 18 19 20 21 19 19 20 21 24 30 35 48 50 50 53 53 54 54 54 55 56 56 54 52 51 50 49 47 47 48 49 51 53 54 54 54 55 55 55 54 55 52
25 23 28 23 23 21 19 17 19 21 21 20 21 21 22 24 32 36 45 49 50 52 53 53 53 54 55 56 56 56 54 52 51 51 49 48 48 48 50 52 53 53 54 54 55 54 53 52 54
30 25 24 25 27 30 29 20 22 21 21 20 21 23 23 26 31 34 41 48 49 51 53 52 52 53 54 54 55 55 55 54 53 52 51 49 48 48 49 52 52 51 52 53 53 54 52 53 53
29 30 28 30 25 27 24 21 20 21 20 21 23 27 27 26 27 31 35 48 49 51 53 53 52 52 53 54 54 55 55 55 54 54 52 50 49 48 49 51 51 52 52 52 52 52 53 53 55
27 31 34 33 29 30 28 26 32 27 27 26 27 28 28 31 34 33 37 47 49 50 52 53 52 52 53 55 54 54 55 56 55 55 54 52 50 50 49 50 50 50 50 50 51 51 50 52 53
29 28 30 31 32 30 32 31 31 31 27 29 30 28 29 29 32 37 38 42 48 49 51 52 52 50 52 54 55 54 55 55 55 55 55 54 52 50 50 49 49 49 50 51 51 50 49 49 51

GFSSGP_sfc_30mbdewp_087.txt.gz
Dewpoint
48 45 41 31 25 23 18 15 12 10 17 21 23 23 23 24 34 43 62 64 66 67 68 69 69 71 70 70 70 70 71 70 69 70 70 70 69 68 68 68 67 67 67 66 66 64 65 66 67
43 39 31 26 21 20 20 16 12 17 18 19 19 20 22 43 54 59 60 64 67 67 67 68 68 70 71 70 70 70 70 70 69 70 70 70 69 69 68 68 68 67 67 66 66 66 65 66 66
41 38 29 24 23 19 17 13 17 18 18 16 17 20 26 45 52 58 62 63 65 66 67 68 68 69 71 70 70 70 70 70 69 69 70 70 69 69 69 68 67 67 67 66 66 65 66 66 65
36 35 29 23 24 22 20 16 16 17 17 17 16 25 41 48 51 59 61 64 64 67 68 67 67 69 71 71 70 70 70 69 67 65 67 70 69 69 68 67 67 66 66 66 65 65 66 66 65
31 29 24 22 20 19 19 16 17 16 19 18 21 22 43 55 58 60 59 62 64 67 67 67 67 68 69 70 70 70 69 64 61 60 59 65 68 68 68 67 66 66 66 66 65 65 64 64 63
26 27 22 19 19 19 16 17 18 18 19 24 24 24 44 55 57 60 61 62 64 66 68 67 67 68 68 68 69 66 64 64 63 62 61 62 66 67 67 66 66 66 66 65 64 63 63 62 60
26 25 21 20 18 18 18 18 18 18 19 22 26 26 49 54 60 61 61 62 62 64 64 67 67 66 66 65 64 64 64 62 62 61 59 61 62 65 66 66 66 66 65 64 64 62 62 59 57
26 24 21 20 18 17 18 19 20 20 21 27 24 21 45 56 59 60 60 61 61 62 64 66 66 64 62 63 63 63 63 62 61 61 62 61 61 64 64 65 65 65 64 63 63 62 60 57 54
26 22 18 17 17 17 17 17 18 21 20 21 23 22 40 57 59 59 59 60 59 60 61 64 66 64 63 62 63 63 63 62 62 62 62 61 64 65 63 65 65 64 63 63 62 61 58 55 52
23 20 19 19 19 18 16 16 16 17 19 20 21 29 53 56 57 58 58 57 58 59 60 63 65 64 64 64 63 62 63 63 63 61 63 62 64 64 64 63 64 64 63 62 61 59 57 52 51
21 19 19 19 19 20 17 13 16 14 13 15 17 35 50 53 53 54 58 58 58 59 60 62 63 64 64 63 62 62 62 63 63 62 63 64 64 63 63 63 63 63 62 60 59 57 54 51 51
21 20 19 18 19 19 17 14 13 15 16 19 19 24 43 46 49 49 50 58 58 59 60 60 62 62 62 62 62 62 62 64 64 61 64 63 63 62 63 62 62 61 60 58 56 54 51 50 51
21 19 19 18 18 18 18 15 13 14 17 18 18 19 29 33 42 46 52 57 58 58 60 60 61 61 62 62 61 61 61 62 64 63 63 63 62 61 61 62 61 59 58 56 54 51 49 49 50
23 21 20 18 17 16 16 15 15 14 17 16 16 17 31 32 34 44 55 56 57 59 59 60 60 61 60 61 61 60 61 62 63 63 63 62 62 61 60 61 60 56 55 53 51 51 48 47 48
25 22 20 19 18 18 17 16 16 17 17 15 15 19 30 34 36 42 51 55 56 59 60 60 60 60 60 60 60 60 61 62 62 63 62 62 61 61 60 61 58 54 52 50 50 50 49 48 48
25 23 18 20 20 18 17 15 17 19 17 16 16 19 32 36 38 41 49 53 54 59 60 60 61 60 60 60 59 59 59 59 61 62 63 62 61 60 61 60 58 53 52 47 51 51 49 49 49
25 22 20 19 19 18 17 15 17 18 17 17 17 21 32 36 38 43 50 53 53 59 60 60 59 59 59 60 58 58 58 58 59 60 62 62 61 60 60 59 57 54 53 50 52 50 50 49 49
24 23 20 18 20 19 17 16 17 17 17 19 24 26 28 35 38 44 49 53 53 59 59 59 58 58 59 58 57 57 56 56 56 56 60 61 61 60 59 58 58 57 55 53 50 49 49 49 48
26 26 23 22 21 20 19 20 18 15 17 22 25 27 28 33 38 45 49 51 52 56 58 58 58 58 58 57 55 54 54 54 54 55 56 59 58 58 57 57 56 55 53 51 49 48 47 48 47
24 28 29 26 24 23 21 21 18 17 18 20 24 25 26 28 39 46 50 51 52 56 57 57 57 57 57 57 56 55 54 54 54 54 55 57 57 57 56 56 56 55 52 50 48 46 46 46 47
25 22 23 22 23 24 25 20 23 19 20 20 20 22 24 25 39 48 50 51 52 54 56 56 56 57 57 57 56 55 54 53 52 52 53 55 56 57 56 56 56 55 52 49 47 46 45 44 47
23 25 24 29 32 30 28 23 22 21 20 20 20 20 17 20 41 49 50 52 52 54 56 56 56 56 56 57 55 53 52 51 51 51 52 52 54 54 54 53 53 52 52 49 49 48 47 46 44
27 30 31 35 34 31 28 26 23 22 21 21 20 21 20 20 46 49 51 52 53 53 55 56 56 56 56 57 55 53 52 51 50 50 50 51 51 50 51 51 50 50 51 50 49 50 49 49 47
35 38 37 35 34 30 31 28 23 20 20 21 22 21 21 23 47 50 51 53 53 53 54 55 55 56 57 56 55 53 52 50 49 48 49 50 50 50 49 49 48 51 51 52 50 51 50 52 51
39 36 29 27 28 26 26 26 25 22 22 22 23 21 19 25 41 49 51 53 53 53 53 54 54 55 56 56 55 53 52 50 49 47 48 48 49 49 50 51 49 51 53 54 53 53 53 53 54
34 36 31 23 25 28 25 21 20 22 22 23 22 23 25 28 45 50 51 52 53 53 53 53 54 53 56 56 55 54 52 50 49 47 46 47 48 48 51 53 54 53 54 55 55 54 54 55 54
34 33 32 31 31 30 29 30 23 22 22 23 21 22 25 33 46 49 50 51 53 53 53 53 53 53 54 56 55 54 53 51 50 49 47 46 48 48 50 52 54 54 54 54 55 54 53 54 53
34 38 30 32 24 25 27 28 25 25 22 22 25 28 30 31 35 47 50 50 52 53 53 53 53 53 54 55 56 55 54 52 51 50 49 48 47 48 48 51 52 53 53 53 53 54 54 53 53
31 34 36 34 32 29 29 32 38 34 28 29 28 29 30 33 35 36 49 50 51 53 53 53 53 53 54 53 55 55 55 53 53 51 50 50 49 49 48 49 51 51 51 52 52 51 52 53 52
35 34 36 31 28 32 33 32 41 41 36 28 26 26 29 28 36 39 48 49 51 52 53 52 52 53 54 54 54 54 54 55 54 53 52 51 50 49 48 49 50 51 51 51 51 50 50 51 52

GFSSGP_sfc_30mbdewp_090.txt.gz
Dewpoint
51 47 38 30 23 23 20 17 17 14 18 22 23 18 32 37 31 33 61 66 67 68 70 71 70 70 70 70 70 70 70 69 70 70 69 69 69 69 68 68 68 68 68 67 66 67 67 66 68
44 39 30 26 21 18 17 21 18 17 19 21 21 23 41 49 57 60 62 66 66 67 68 70 71 70 70 70 70 70 70 69 70 70 69 69 69 69 68 68 67 67 67 66 64 66 66 67 67
40 38 31 22 22 17 17 16 16 17 18 16 18 21 41 48 59 61 62 66 67 67 68 68 70 71 70 70 70 70 70 69 70 70 69 69 69 68 68 68 68 68 67 65 64 65 66 66 66
33 35 31 24 23 24 21 22 22 18 17 16 17 35 43 51 59 60 64 67 66 66 67 67 68 70 70 70 70 70 70 69 70 70 70 69 69 68 68 68 68 67 67 66 65 66 66 66 65
30 29 25 23 22 23 22 20 19 17 17 17 22 29 47 58 59 62 64 65 67 67 67 67 67 69 71 71 70 70 70 68 66 65 65 64 65 65 67 67 67 67 67 66 65 65 65 65 65
25 28 24 21 22 23 21 20 19 18 20 20 22 40 49 58 59 60 63 64 67 66 66 66 67 68 70 71 70 70 68 64 64 62 62 62 63 66 65 66 67 66 66 66 65 66 65 65 61
26 25 23 21 21 22 22 21 18 18 19 22 26 39 53 56 60 62 62 63 65 67 66 67 67 67 68 69 69 68 66 64 64 64 62 62 63 62 64 64 66 66 65 65 65 64 64 61 58
25 25 23 22 21 21 20 19 20 19 20 29 27 42 50 54 61 61 62 62 62 64 65 66 66 65 65 65 66 65 65 64 63 64 62 62 62 61 59 64 64 66 65 64 64 63 61 58 57
27 24 22 21 20 20 20 18 19 21 21 25 24 39 42 58 60 59 60 59 60 61 63 66 64 63 63 63 64 64 63 63 62 62 62 61 61 61 61 64 64 64 64 63 63 61 58 57 59
27 22 23 23 21 19 19 19 18 18 19 20 21 50 58 59 58 57 58 57 57 58 60 64 64 63 62 62 63 63 63 62 62 62 62 61 61 61 62 63 64 64 63 62 62 59 57 55 56
24 24 23 22 21 20 20 20 18 15 18 18 19 49 57 57 57 56 57 58 57 58 60 62 64 64 63 63 62 61 62 63 62 62 63 63 62 63 64 63 63 63 62 61 59 57 54 52 52
25 23 21 21 21 20 18 19 17 15 15 19 19 49 55 55 56 56 56 57 58 58 59 61 62 63 63 63 61 61 61 63 61 62 62 63 63 63 63 63 63 61 60 58 57 55 52 51 52
26 25 25 23 21 20 19 18 18 17 17 19 19 47 52 53 53 54 56 58 59 58 59 60 62 62 62 62 62 62 62 62 62 62 63 63 62 61 62 62 61 60 59 57 55 53 51 49 51
25 24 24 23 21 20 18 17 17 16 17 17 18 23 45 48 49 49 55 57 58 59 59 60 61 61 62 61 60 61 61 63 62 62 62 63 62 61 61 61 60 59 57 56 53 51 50 49 51
26 24 25 24 23 20 19 17 17 18 19 17 16 16 23 35 39 49 54 57 58 58 59 59 59 60 61 60 60 60 60 62 63 62 63 62 62 61 61 60 59 57 56 54 52 51 49 48 50
26 26 23 24 23 21 19 17 19 19 19 18 18 17 19 29 36 51 56 56 58 58 59 60 60 60 59 59 60 60 59 60 62 63 63 62 61 61 61 60 58 55 53 51 50 50 48 48 50
26 23 23 23 23 21 18 17 18 19 18 18 18 18 20 28 36 48 55 56 58 59 59 59 60 59 59 59 59 58 58 58 59 61 62 62 61 60 61 60 57 53 51 49 50 50 47 47 50
23 24 23 22 21 23 21 19 19 19 19 18 18 18 19 29 34 44 54 55 58 60 60 60 59 58 59 58 57 57 57 57 57 58 61 62 61 61 60 60 57 54 50 49 52 50 49 49 49
25 25 25 26 29 29 26 23 23 23 23 22 19 19 20 29 35 46 52 53 59 60 59 59 58 58 57 56 55 55 54 55 55 56 57 61 62 61 60 59 57 54 47 50 52 50 48 49 49
21 22 24 28 28 28 29 28 28 29 27 22 20 24 24 27 37 48 52 53 58 58 58 58 57 57 57 56 56 55 54 54 54 55 56 60 60 60 60 58 57 56 49 52 50 49 48 48 49
20 22 22 23 28 29 32 29 28 29 28 23 21 24 27 28 36 48 51 53 57 57 57 57 57 57 56 56 56 55 54 53 53 53 55 58 59 59 58 58 56 55 52 51 49 48 47 47 48
23 24 24 23 33 28 32 27 30 30 29 28 22 21 23 26 35 48 51 52 56 57 57 57 57 56 57 56 55 53 52 51 52 52 53 56 57 57 57 57 56 55 53 50 48 48 47 47 46
29 25 25 29 34 33 32 31 30 30 27 26 26 23 22 21 35 48 50 52 54 56 56 56 56 56 57 55 55 53 52 52 52 51 52 53 55 57 57 56 56 55 54 51 48 48 48 47 47
34 31 34 33 35 28 28 30 28 28 27 26 25 23 23 23 35 48 50 51 54 55 56 56 55 55 56 55 54 53 52 51 51 50 51 51 51 53 54 54 55 55 54 53 50 50 49 48 48
37 35 27 26 27 23 27 29 29 28 28 25 24 24 24 28 43 48 50 52 53 54 55 55 55 55 56 55 54 53 52 51 50 50 51 51 50 50 51 52 51 53 53 54 52 51 49 51 49
31 35 30 21 24 24 27 24 25 29 29 27 26 25 24 27 46 49 51 52 52 53 54 54 54 55 56 55 54 54 52 50 50 49 50 51 50 50 50 50 49 50 52 52 52 51 51 51 52
33 31 36 31 33 28 27 29 30 29 30 29 25 23 26 35 48 50 52 52 52 53 53 54 54 54 55 55 54 53 52 51 50 49 49 50 50 50 50 51 50 50 52 54 53 52 51 53 53
33 39 32 32 24 24 26 27 33 36 34 28 28 30 31 44 48 50 52 52 53 53 53 53 53 53 55 55 55 54 53 51 51 50 47 48 49 50 50 52 52 52 52 53 54 53 53 53 53
34 33 33 35 32 27 27 33 41 40 40 38 36 30 34 41 49 50 51 52 53 53 53 53 53 53 54 55 55 54 54 52 51 50 48 47 48 49 49 50 52 53 53 53 53 53 54 53 52
34 36 35 31 29 32 32 30 45 43 42 39 37 34 30 31 37 46 50 51 53 53 53 53 53 53 53 54 55 55 54 53 52 51 50 49 47 48 48 49 50 51 52 52 52 51 51 53 52

GFSSGP_sfc_30mbdewp_093.txt.gz
Dewpoint
55 45 36 29 23 23 20 17 17 15 17 21 23 23 23 35 26 24 60 64 66 68 70 70 70 70 70 70 69 69 70 70 69 70 70 70 70 70 69 69 69 69 67 66 67 68 67 67 68
44 38 29 25 20 16 14 21 19 18 17 21 27 42 40 41 57 57 61 66 67 68 70 70 70 70 70 70 70 70 69 70 70 69 69 69 69 69 69 69 69 68 67 66 66 66 67 67 67
40 37 30 22 21 13 14 18 17 19 19 20 18 28 44 45 57 60 62 66 67 68 69 70 69 70 70 70 70 70 70 70 70 69 69 69 69 69 69 68 68 68 67 67 66 67 66 67 66
33 33 30 24 18 23 20 19 24 21 19 17 23 32 46 55 59 61 65 66 66 67 68 69 70 69 70 70 70 70 70 70 70 69 69 69 69 68 68 68 68 68 66 65 67 66 66 66 65
30 30 24 23 20 23 25 24 22 21 20 18 25 35 45 56 60 63 66 66 65 66 67 67 69 70 70 70 70 70 70 70 70 69 68 68 68 68 68 67 67 67 66 66 66 66 66 65 64
22 28 24 15 16 22 23 23 21 21 21 19 24 42 50 59 62 64 65 66 67 66 66 67 67 69 70 70 70 70 70 69 68 67 65 66 65 64 64 64 66 66 65 65 65 65 65 65 64
24 25 24 22 19 20 21 23 20 20 19 21 32 39 52 58 61 63 64 66 66 66 66 66 67 68 69 70 70 69 67 66 65 64 65 65 63 63 63 64 64 64 65 65 65 64 64 63 62
26 26 24 23 19 18 21 20 19 20 19 27 41 35 44 57 61 62 64 65 66 66 65 66 66 66 66 67 69 68 65 64 64 64 64 65 64 65 64 63 64 64 64 65 64 64 62 60 61
27 22 20 20 21 19 21 19 19 20 21 26 28 46 47 59 61 61 61 61 63 64 64 64 64 64 64 65 67 66 65 64 64 64 63 63 62 62 63 63 63 64 63 64 64 63 59 59 61
27 23 22 23 22 20 21 21 21 19 19 19 23 51 57 59 60 59 59 59 60 61 62 64 63 63 63 64 64 63 64 63 63 62 62 62 62 60 61 61 63 64 64 62 63 60 59 60 58
28 23 24 24 24 23 21 21 22 19 17 18 20 41 57 58 58 58 58 57 57 59 60 63 63 62 61 61 62 62 62 61 61 62 62 61 61 61 61 62 62 64 64 62 61 57 57 57 56
25 24 25 25 24 23 21 21 19 18 19 20 19 41 57 57 57 57 56 56 56 56 58 62 63 63 62 62 61 61 61 61 60 61 62 62 60 60 62 62 63 62 62 60 59 54 54 53 53
28 27 26 25 24 23 22 21 20 19 21 21 21 48 53 56 56 56 56 57 57 57 58 60 62 63 63 62 61 60 61 61 61 62 62 62 62 60 62 62 62 61 59 58 56 52 52 52 53
25 27 27 27 26 24 22 21 20 20 20 19 21 41 52 54 55 55 56 56 57 58 58 59 61 62 62 62 62 61 61 62 62 61 62 62 62 61 61 62 61 60 58 57 55 51 50 52 52
25 23 25 25 24 23 22 21 19 20 20 19 18 23 47 52 53 53 54 56 58 58 58 59 60 61 61 61 60 61 61 62 62 61 62 63 62 61 61 61 61 60 57 55 54 51 50 51 52
27 26 24 25 25 24 23 20 21 21 19 19 19 19 24 42 49 51 52 56 58 58 58 59 60 60 60 60 59 59 60 62 62 61 62 62 62 61 61 61 59 58 56 54 52 50 49 50 52
26 23 23 24 24 23 20 19 20 20 20 19 19 19 19 20 35 45 50 55 58 58 58 59 59 59 59 59 59 59 59 60 61 62 62 62 62 62 61 60 59 56 55 53 51 49 48 50 52
24 24 24 23 23 26 25 25 26 26 24 26 26 23 20 19 27 38 51 55 58 58 59 59 59 59 59 58 57 57 57 58 57 59 61 62 61 61 61 60 57 55 53 51 51 48 49 50 52
25 25 25 26 27 29 28 27 29 30 31 30 30 28 24 21 22 37 53 56 58 58 58 59 58 58 58 57 55 55 55 56 56 56 57 60 61 61 61 60 57 55 50 50 51 48 48 50 52
18 21 21 25 28 27 28 27 28 29 31 30 30 27 26 23 32 42 53 55 58 58 58 58 58 58 56 56 55 54 54 55 55 55 56 57 60 61 60 60 57 54 48 49 51 47 48 49 52
13 14 19 22 24 28 28 24 24 25 28 29 30 30 28 23 32 47 52 55 58 58 58 58 57 57 56 55 55 54 54 54 53 54 55 56 59 60 60 59 57 56 49 51 51 47 47 48 49
24 24 24 24 25 20 32 20 22 24 28 30 31 30 28 26 37 48 51 54 57 57 58 57 57 56 55 55 54 53 53 51 52 53 54 56 58 60 60 59 57 56 51 51 51 50 47 48 48
30 31 29 25 30 32 30 26 21 28 28 29 30 29 28 26 32 46 50 53 56 57 57 57 56 56 55 55 54 53 53 52 52 52 53 55 57 58 59 58 58 56 51 53 52 50 49 49 49
35 32 31 33 32 25 26 28 24 25 27 29 29 30 29 26 25 44 49 52 55 57 56 56 55 55 54 55 54 53 52 52 52 52 52 53 55 55 57 57 56 55 53 54 53 51 51 51 49
36 32 25 25 24 22 26 28 27 28 28 29 29 29 28 26 25 42 49 51 55 55 55 55 54 54 55 54 54 53 52 51 51 52 52 52 52 53 55 56 55 53 52 54 54 52 51 51 50
34 32 26 20 22 25 25 22 26 30 30 31 31 30 29 28 29 42 49 51 54 55 55 55 54 54 54 54 54 53 52 51 51 51 52 52 52 53 53 54 54 54 54 54 53 53 51 51 50
32 30 36 30 31 29 28 28 31 39 40 39 36 34 31 28 27 43 49 51 53 54 54 55 54 54 53 53 54 53 53 52 50 51 52 52 52 51 52 52 52 53 53 54 54 52 51 52 52
34 37 30 31 24 23 25 26 31 39 41 41 40 32 32 39 42 46 50 51 53 54 54 54 54 54 53 53 54 53 53 51 51 50 50 51 51 51 51 51 50 50 52 53 54 53 52 51 51
33 33 33 33 31 26 25 30 42 42 42 42 43 40 37 37 49 50 51 52 52 53 54 54 54 54 54 53 52 53 53 51 51 50 49 50 50 50 50 50 51 50 50 52 52 51 52 51 50
35 33 35 29 29 32 32 28 45 44 43 41 43 43 40 40 46 51 52 52 52 53 53 53 53 53 55 54 53 53 54 52 51 51 49 48 49 50 50 50 50 50 51 51 51 52 52 51 50

GFSSGP_sfc_30mbdewp_096.txt.gz
Dewpoint
56 41 34 28 21 23 18 17 19 15 16 20 23 25 25 32 36 22 58 64 65 67 69 70 70 70 70 70 69 69 71 71 71 71 71 70 70 70 70 70 69 68 68 67 68 68 67 67 68
48 34 28 25 19 12 9 20 19 19 18 23 34 42 37 34 55 55 60 64 66 67 69 70 70 70 70 70 70 70 70 70 70 71 71 70 70 70 70 70 69 68 68 67 67 67 67 68 68
40 35 27 22 20 10 6 19 18 21 20 20 20 30 40 41 56 56 62 65 67 68 69 69 70 70 70 70 70 70 70 70 70 70 70 70 70 70 69 70 68 66 66 67 67 67 68 68 67
35 33 29 21 15 21 17 18 24 22 21 19 19 26 45 55 57 60 65 66 66 68 69 69 69 70 70 70 70 70 70 69 69 70 70 69 69 69 69 69 68 67 67 67 66 67 68 67 66
30 30 20 20 19 22 24 23 24 21 21 20 27 29 42 56 61 63 65 66 64 66 68 69 69 69 70 70 70 70 70 70 69 69 69 67 65 65 66 67 66 65 66 66 67 67 67 66 65
26 28 21 7 10 22 23 23 23 22 22 22 21 34 44 58 61 65 66 65 65 65 66 67 69 69 70 69 69 69 69 69 69 68 68 66 65 64 65 65 64 64 65 66 67 67 66 65 64
18 26 22 21 15 19 20 22 21 20 20 20 31 29 47 57 61 65 66 66 66 65 66 66 67 69 70 69 69 69 68 68 68 67 67 66 65 65 64 64 63 63 64 66 66 66 65 64 63
25 26 23 22 14 16 20 21 20 20 19 30 43 31 34 55 62 64 65 65 65 65 65 65 66 67 68 69 69 69 67 66 66 66 66 63 63 62 61 60 62 63 64 65 66 65 64 63 62
27 19 17 20 18 18 21 20 21 21 20 20 29 40 48 59 62 62 63 63 64 64 64 65 65 65 65 66 67 67 66 65 65 65 65 63 63 63 62 62 62 64 63 63 65 64 63 62 61
25 21 17 21 21 20 21 21 22 20 20 19 20 49 58 60 61 61 61 61 62 63 64 64 64 63 64 65 66 65 65 64 64 64 64 63 63 62 63 62 64 62 63 64 64 62 62 61 60
29 22 23 22 23 24 22 23 23 21 19 19 18 24 56 59 60 60 60 61 61 62 62 63 63 62 63 63 64 64 64 64 63 63 63 62 62 61 61 62 63 64 62 63 63 60 60 59 58
26 26 25 23 24 24 23 23 22 21 20 21 21 25 55 57 58 59 59 59 59 59 61 62 62 61 61 61 62 63 62 62 61 61 61 61 61 61 60 61 62 62 62 63 59 58 58 57 55
28 28 26 26 25 24 23 22 22 21 22 23 23 31 43 55 58 58 58 58 57 57 58 61 62 62 61 61 60 61 61 61 60 60 61 61 60 60 60 60 62 62 62 62 57 55 55 55 54
23 26 26 27 26 26 25 24 24 23 22 22 22 25 40 52 55 57 56 56 56 56 56 59 61 62 62 61 60 60 60 61 61 61 61 62 62 61 61 61 61 60 61 60 55 54 54 53 53
23 19 20 23 25 24 23 22 22 23 24 22 22 21 31 47 55 56 56 56 56 57 57 58 60 61 61 61 61 61 61 61 61 61 61 62 62 61 61 61 60 60 60 59 54 52 53 53 53
26 27 25 25 24 25 23 19 22 23 22 21 21 21 23 39 51 54 55 56 56 57 57 58 60 60 60 60 60 60 61 62 62 61 61 62 61 61 61 61 60 60 58 56 52 51 52 52 52
25 22 23 23 25 23 23 20 20 23 24 25 22 22 22 22 36 50 53 54 57 57 58 58 60 60 60 59 59 59 60 62 62 61 61 62 62 61 61 61 60 58 57 55 52 50 51 52 52
20 24 24 23 23 24 22 22 25 27 28 26 29 30 29 27 23 25 44 52 56 58 58 58 59 59 59 58 58 58 58 59 60 62 62 61 62 61 61 61 59 58 55 53 52 49 51 52 52
20 23 24 26 26 27 27 27 28 30 29 30 31 30 30 29 28 25 29 48 56 58 58 58 58 58 58 58 57 56 56 57 57 58 60 61 62 61 61 60 57 57 55 53 51 49 50 52 52
17 18 19 22 24 26 26 25 27 28 27 27 29 29 29 29 29 28 33 53 56 57 58 58 58 58 58 58 57 55 56 55 55 55 56 57 59 61 61 59 57 56 54 52 50 49 50 51 52
13 12 13 14 21 24 24 17 17 22 25 27 30 30 30 30 30 30 42 53 56 56 57 58 57 58 58 57 55 54 54 54 53 54 54 55 57 59 61 59 57 56 54 52 50 49 49 50 52
18 24 22 23 23 19 31 17 19 20 21 22 25 30 31 31 29 30 44 53 56 57 58 58 57 57 57 56 54 53 53 51 52 53 54 55 56 58 60 59 57 57 55 54 52 49 48 50 50
30 32 30 30 27 30 30 24 21 23 25 26 27 29 31 31 29 34 45 51 56 57 57 57 57 57 56 55 54 53 52 52 52 53 53 55 56 57 60 59 58 56 53 53 52 49 48 50 51
35 32 30 32 31 24 24 25 20 20 21 25 27 30 32 31 29 34 47 52 56 57 57 57 56 56 55 55 54 53 52 52 51 52 52 54 56 57 59 59 58 57 54 53 53 51 48 51 50
33 27 19 20 23 19 25 25 24 26 27 31 32 30 31 30 28 31 46 51 55 56 56 56 55 55 55 54 54 53 52 52 51 52 52 53 53 54 56 58 57 56 54 54 53 52 52 52 51
33 28 22 19 21 24 28 25 26 37 42 42 42 37 34 33 30 27 42 50 54 55 55 55 54 55 54 54 53 53 52 51 51 52 53 53 54 54 56 56 55 55 54 54 54 52 52 53 52
32 29 32 29 26 26 26 27 29 41 41 42 41 42 42 42 38 30 39 49 54 55 55 55 54 55 54 54 53 53 52 51 51 51 52 53 53 54 54 55 54 52 53 54 53 52 51 53 53
33 36 29 30 22 21 25 26 28 39 41 41 40 40 43 43 41 43 41 50 54 55 54 55 54 54 54 54 53 53 52 52 51 51 52 52 53 53 53 53 53 53 52 54 54 53 52 52 51
31 30 33 33 30 25 23 26 43 42 42 41 40 40 43 45 45 49 50 52 53 54 53 54 54 53 53 53 54 53 52 52 51 50 51 51 51 51 52 52 52 52 53 54 54 53 53 51 51
33 31 31 28 27 30 30 27 42 44 43 41 41 41 44 47 51 51 51 52 53 53 53 53 54 54 53 53 53 53 53 52 51 50 50 50 51 51 51 51 51 51 51 52 53 53 53 53 52

GFSSGP_sfc_30mbdewp_099.txt.gz
Dewpoint
53 41 33 29 19 22 15 15 20 16 16 22 23 27 30 36 41 27 56 64 66 67 68 69 69 70 69 69 70 71 72 71 71 71 71 71 71 70 70 70 70 69 69 69 69 69 68 68 68
48 32 29 26 15 7 6 20 18 19 19 22 34 41 39 32 50 52 59 64 66 67 68 68 70 70 70 69 69 71 71 71 71 71 71 71 71 70 70 70 69 69 69 69 68 68 68 68 68
39 34 26 22 19 4 1 15 21 21 22 20 22 32 38 39 55 52 61 65 66 66 68 69 70 70 70 69 69 70 71 69 71 71 71 71 70 70 70 69 68 68 68 68 67 68 68 68 68
36 33 28 20 13 19 12 19 21 23 22 21 20 22 44 53 56 58 62 65 66 67 67 69 70 70 70 70 70 69 70 70 69 70 71 70 70 70 68 66 66 68 68 67 67 68 68 68 67
32 30 17 19 16 20 22 22 24 22 22 21 28 24 41 55 60 63 65 66 66 67 68 68 69 70 69 69 70 70 69 70 70 70 70 70 65 66 65 65 64 65 66 67 67 68 68 67 66
24 28 18 6 4 21 23 23 22 23 22 23 22 27 38 57 61 64 65 65 66 67 68 69 69 69 69 69 69 69 69 69 69 68 68 66 66 66 64 65 65 65 65 65 66 67 67 66 66
21 25 17 17 13 17 19 22 19 20 21 21 27 25 41 55 61 65 65 66 66 67 67 68 69 69 69 69 69 68 69 69 68 67 67 66 66 65 65 65 65 64 64 65 65 67 66 66 65
21 25 21 21 10 11 21 23 22 20 20 29 42 28 28 53 62 65 65 65 66 66 66 66 69 69 69 69 69 68 68 68 68 66 66 66 65 65 64 65 64 63 64 65 65 66 65 64 63
28 16 16 14 15 13 22 20 21 22 20 21 26 39 52 60 63 64 64 65 65 65 66 66 66 67 69 69 69 68 68 67 67 66 66 65 63 62 64 63 64 64 64 64 64 65 64 63 62
24 20 17 21 18 17 20 21 21 19 20 20 21 48 58 61 62 62 62 62 63 64 65 66 66 66 67 67 67 67 67 66 66 66 65 65 64 64 62 61 62 63 63 64 65 65 63 62 61
26 20 21 20 19 22 19 20 23 19 17 19 20 23 51 59 61 61 61 62 63 63 64 65 65 65 65 65 65 65 65 65 64 65 64 64 63 63 63 64 63 63 62 63 64 63 62 61 60
25 27 23 22 23 24 22 22 22 22 22 24 24 23 39 52 58 60 60 60 61 62 64 63 64 64 64 65 63 64 65 65 64 64 63 63 62 62 62 63 63 64 63 62 63 63 61 60 59
29 27 26 26 25 25 24 24 23 23 24 24 25 25 29 40 50 57 59 60 60 60 62 63 63 63 63 63 64 64 64 63 63 62 62 63 62 62 62 62 62 63 63 62 61 60 59 59 58
22 25 23 27 26 26 24 23 25 23 25 25 25 24 26 37 45 53 58 58 59 59 60 63 62 63 63 62 63 62 63 63 62 62 62 62 61 61 60 61 61 62 63 60 59 59 59 57 57
21 20 19 19 21 21 25 22 23 26 27 25 25 25 25 29 42 50 53 56 58 58 58 60 62 62 62 62 62 62 62 62 61 61 61 61 61 61 61 60 60 61 62 59 58 58 57 56 56
26 27 24 26 23 22 20 16 22 24 24 24 24 23 24 24 37 46 52 55 56 57 57 58 61 61 61 61 62 62 61 61 61 61 61 61 62 61 62 60 61 61 59 57 57 56 55 55 54
24 21 24 24 25 23 22 17 20 24 24 25 26 25 26 28 28 32 49 54 56 56 57 57 60 61 61 62 62 62 61 60 61 62 61 61 62 62 61 61 60 60 58 56 56 56 55 54 54
15 21 24 23 23 24 23 23 24 25 28 29 30 30 31 31 30 31 31 44 53 56 58 58 59 60 60 62 61 61 61 61 61 62 62 62 62 61 61 61 60 59 57 55 55 55 55 54 53
21 23 23 25 26 26 25 25 26 28 28 29 29 30 30 31 32 32 33 34 49 56 58 58 59 59 59 59 58 58 58 59 60 60 61 62 62 61 60 60 59 58 56 55 54 54 54 54 54
18 17 17 21 22 23 22 22 23 26 27 27 27 27 29 30 30 31 30 33 46 53 57 58 58 58 59 59 59 58 58 58 58 59 59 61 61 62 61 59 59 58 57 55 53 53 53 53 53
16 15 16 15 17 23 22 19 17 18 19 21 24 27 27 28 29 31 33 36 46 52 56 57 58 58 59 59 58 56 55 55 55 56 57 57 59 61 61 60 59 58 57 54 52 52 52 52 53
15 16 14 18 22 18 29 18 17 20 21 22 23 24 28 29 31 32 33 37 48 52 56 57 58 58 58 58 56 55 54 53 54 55 55 56 56 58 60 60 59 57 56 55 53 52 52 52 51
22 30 25 27 26 28 26 22 17 18 16 24 28 32 32 30 30 31 32 35 46 53 56 57 58 58 58 57 57 55 54 54 54 54 54 55 56 56 57 59 58 57 56 55 54 52 51 52 52
34 31 31 32 29 22 24 20 17 21 24 31 37 41 39 34 33 34 34 38 49 55 56 57 57 57 57 56 56 54 54 53 52 53 53 54 55 56 56 59 58 57 56 56 55 53 51 51 52
33 26 21 20 23 16 23 24 22 26 34 40 40 41 42 44 43 38 33 45 53 55 56 57 57 56 56 56 55 54 55 53 52 53 52 53 54 56 56 59 58 57 56 56 55 53 53 53 53
30 26 19 12 19 23 28 23 24 40 42 41 40 41 42 44 46 44 38 46 53 55 56 56 56 56 55 55 54 55 54 53 53 53 52 53 54 54 57 58 58 57 56 55 55 54 53 53 53
32 27 32 26 27 23 22 26 29 41 41 41 40 41 43 46 48 48 44 42 53 55 56 56 56 55 55 54 54 55 54 53 52 52 53 54 55 55 57 57 57 56 55 55 54 53 52 52 53
32 34 28 29 22 20 23 25 25 35 39 41 39 40 44 47 50 49 47 41 52 54 56 56 55 54 54 54 54 54 54 53 53 53 53 54 54 55 55 55 54 54 54 54 54 53 52 52 53
32 31 31 30 29 24 22 25 39 39 41 42 40 42 45 46 51 51 51 52 53 54 55 55 54 54 54 54 54 54 53 53 53 53 53 53 53 54 54 54 54 53 53 54 53 52 52 50 49
32 31 30 25 27 28 28 22 41 40 41 42 41 45 45 45 48 52 53 53 53 53 54 54 54 53 54 54 55 54 54 53 52 52 53 53 53 53 54 53 53 53 52 53 53 53 52 51 50

GFSSGP_sfc_30mbdewp_102.txt.gz
Dewpoint
50 43 30 26 14 9 3 2 13 15 16 19 20 26 26 28 28 21 51 60 64 64 65 67 68 70 69 70 71 72 71 71 71 71 71 71 71 71 70 70 70 70 69 69 69 69 69 68 69
40 32 24 21 6 0 -1 5 14 13 18 23 24 27 26 23 37 42 54 60 63 63 65 66 68 70 69 70 71 72 72 71 71 71 71 71 71 71 70 70 70 69 69 69 69 69 69 69 69
38 28 17 11 6 -1 -3 3 10 19 21 20 25 30 27 26 41 42 52 60 62 62 64 66 68 70 69 69 70 71 72 72 71 71 71 71 71 70 70 69 68 68 68 68 67 68 68 69 68
30 22 19 9 1 6 6 8 16 20 21 20 19 20 35 44 43 46 55 60 60 62 63 68 69 69 69 69 69 71 71 70 71 71 71 71 70 68 67 66 65 65 66 66 68 68 69 68 68
28 19 8 7 1 2 13 17 22 21 19 19 19 19 30 47 52 53 56 61 61 63 64 68 69 69 70 69 69 70 70 69 69 70 71 70 68 66 64 64 64 64 64 65 66 67 67 67 67
19 19 6 -1 0 6 13 11 20 20 16 17 19 20 25 48 54 55 58 61 64 66 67 67 69 69 69 69 69 69 69 70 68 70 69 66 66 66 66 64 63 62 63 63 65 64 66 67 66
20 13 3 -1 -2 1 8 12 13 11 12 17 21 21 25 45 53 58 60 61 65 67 68 68 68 69 69 68 69 69 69 69 69 69 67 65 67 66 65 65 65 63 64 63 66 66 66 66 65
20 13 8 2 5 3 9 14 13 11 14 26 26 21 24 46 57 61 60 62 65 67 67 67 67 68 68 68 68 68 68 68 68 67 67 66 66 66 66 66 65 65 64 63 64 66 65 65 64
24 15 9 6 8 5 16 16 18 19 19 21 24 27 42 51 58 60 59 60 62 65 65 67 66 67 67 67 68 68 68 68 67 67 66 65 64 64 64 62 65 65 64 64 64 64 62 64 63
23 18 14 12 12 11 13 14 16 17 15 19 20 39 45 49 55 57 58 57 60 63 64 65 66 65 67 66 68 68 68 68 67 65 64 63 62 62 60 61 65 64 64 63 61 60 63 63 62
23 18 18 18 18 15 13 12 15 14 9 15 16 21 21 35 44 51 55 53 56 60 63 64 65 66 65 64 67 68 68 68 67 67 65 65 64 63 61 61 62 61 63 63 60 62 63 62 62
23 21 21 18 19 16 16 15 14 15 15 13 16 18 20 21 31 42 48 53 55 58 62 65 65 65 66 63 66 66 66 67 66 66 66 66 65 65 64 63 61 62 61 62 62 63 62 62 61
25 23 21 22 20 18 18 17 16 16 17 18 18 19 22 20 23 32 41 47 53 58 61 65 65 64 64 64 63 65 65 65 65 65 65 65 64 63 62 62 62 61 64 63 63 63 62 62 61
24 25 23 22 21 21 20 20 20 21 23 22 23 23 20 20 22 27 35 44 50 55 58 63 64 64 63 62 62 61 63 64 64 64 64 64 64 63 63 62 62 63 63 63 63 62 62 61 60
21 19 19 20 22 22 23 21 21 23 23 22 21 21 21 19 20 26 33 40 47 52 57 61 63 64 63 62 62 61 59 63 64 64 64 64 63 63 62 62 62 62 63 61 61 61 61 60 59
20 21 20 22 22 21 20 18 20 22 23 24 24 23 24 23 20 24 32 39 43 48 54 59 62 62 63 62 62 60 59 62 62 63 63 63 63 62 61 61 61 61 62 61 59 59 59 60 58
22 20 22 22 25 23 21 18 20 21 21 20 22 23 24 24 25 26 29 37 43 47 52 57 61 62 63 63 62 61 62 62 62 62 62 62 61 61 61 61 61 62 59 60 59 58 58 58 56
18 18 20 21 22 23 22 21 22 23 24 24 24 26 27 27 27 27 29 31 37 46 52 56 59 61 62 62 62 60 62 61 61 62 62 62 61 61 61 61 60 59 57 57 58 57 57 58 56
16 14 15 17 22 24 21 21 22 23 25 26 26 27 26 26 27 27 28 33 35 42 51 55 57 60 61 62 61 60 60 60 61 62 61 61 62 61 61 61 59 58 56 56 56 56 56 56 56
14 13 14 15 18 19 18 17 18 20 21 23 24 25 26 27 28 28 29 31 34 38 49 54 56 59 61 60 59 59 60 60 60 60 61 61 62 62 61 60 60 58 57 56 56 56 55 55 56
14 13 14 15 16 16 16 15 14 16 18 19 21 22 23 24 25 27 29 30 32 38 46 52 54 57 59 58 58 58 59 59 59 59 59 61 61 62 61 60 59 59 57 56 56 56 56 54 55
12 16 17 15 13 11 24 7 13 15 17 19 22 24 24 25 27 27 27 29 31 36 44 50 53 56 59 59 58 57 56 56 56 57 57 59 60 61 61 61 60 58 57 56 56 56 56 54 52
15 20 16 16 17 20 19 19 13 16 14 25 34 37 38 40 39 35 32 30 31 33 44 50 53 55 58 59 58 57 55 55 55 56 57 57 57 59 60 60 60 59 58 57 56 56 56 55 53
28 27 28 27 23 20 17 17 11 18 24 30 37 38 40 41 42 42 38 35 33 32 43 52 53 55 57 59 58 57 56 55 54 55 54 55 55 55 56 58 59 59 58 57 56 54 55 54 54
28 25 21 22 23 15 19 19 15 27 37 37 37 38 41 43 44 44 42 38 34 36 49 53 54 55 58 58 57 57 57 56 55 54 53 53 53 54 55 57 59 58 58 57 56 55 55 55 54
27 22 17 9 13 14 25 19 22 37 39 38 38 39 42 43 47 48 45 42 37 44 52 54 54 54 57 57 57 57 56 56 54 54 52 53 53 54 55 56 58 58 58 57 56 55 55 55 54
27 27 28 26 26 22 15 20 27 34 35 37 37 40 42 44 47 50 49 45 40 47 52 54 54 55 56 56 56 56 57 55 54 53 54 53 54 54 56 57 58 58 57 57 57 56 55 54 54
28 30 26 26 21 17 16 19 22 32 35 36 37 38 42 45 46 48 52 47 41 49 54 56 56 56 55 56 56 57 56 56 54 54 54 54 55 55 56 57 57 57 56 56 56 55 55 54 54
30 28 29 28 28 21 17 23 35 32 32 35 36 39 43 45 44 45 50 52 48 51 54 56 56 55 55 55 56 56 56 55 54 54 54 54 55 55 55 55 56 55 55 55 55 54 53 53 53
28 27 27 24 25 26 26 20 35 30 30 35 37 42 42 42 42 42 46 51 52 52 54 55 55 55 55 55 56 56 56 55 54 54 54 54 53 54 55 55 55 54 54 55 55 54 53 52 52

GFSSGP_sfc_30mbdewp_105.txt.gz
Dewpoint
52 44 33 20 14 9 -1 1 1 9 13 15 17 20 21 23 25 28 45 58 59 59 64 67 70 70 70 70 71 72 72 71 71 71 71 71 71 71 71 71 71 70 70 69 69 68 69 69 69
40 36 24 16 11 -1 -0 0 3 7 17 20 20 24 22 23 29 40 48 56 55 56 64 65 69 70 70 71 71 71 72 72 72 71 71 70 71 71 71 70 70 69 68 69 69 68 69 69 69
45 29 17 10 7 -2 -5 1 3 8 17 19 21 21 21 22 31 35 47 51 52 54 60 65 68 69 69 70 71 72 72 72 72 71 71 71 71 70 69 70 69 67 68 67 67 67 69 69 68
34 25 18 12 5 2 0 2 4 12 18 18 18 20 25 35 36 39 47 50 52 53 57 68 68 69 69 70 71 72 72 72 71 71 71 71 70 68 68 68 68 67 66 67 67 66 67 68 68
30 18 9 3 2 0 3 6 14 14 15 16 17 18 23 37 39 43 49 52 52 55 59 68 69 69 69 69 70 71 71 71 70 70 71 71 69 68 68 67 66 66 66 65 66 67 68 68 67
23 17 9 3 1 2 -0 7 10 18 16 16 18 17 21 34 44 47 51 53 56 59 62 68 69 69 69 69 69 70 70 69 69 70 70 69 68 68 66 66 66 66 65 64 67 67 68 67 66
21 13 6 4 -0 -1 0 9 7 13 14 13 16 18 20 33 42 48 52 55 60 63 65 68 68 68 69 69 68 68 69 69 69 69 69 67 67 66 66 66 64 64 65 65 65 65 67 67 66
22 17 12 8 4 -1 1 6 10 7 7 20 20 17 20 43 48 55 54 56 61 65 66 67 67 67 67 67 68 68 68 69 69 68 68 67 66 65 66 65 64 64 62 65 64 65 66 66 65
25 18 13 10 7 5 5 8 11 10 6 16 20 22 38 41 47 55 53 56 60 63 65 66 66 66 66 67 67 67 68 68 68 68 67 66 65 65 65 63 63 64 64 65 64 64 64 64 64
24 21 18 13 11 8 10 12 10 13 13 14 20 26 34 39 45 52 52 54 55 59 62 63 64 64 65 66 67 67 66 66 66 64 65 66 63 64 63 63 64 64 65 64 63 61 63 63 64
23 22 22 20 17 15 12 10 11 10 12 10 14 18 28 28 36 45 49 51 52 55 59 61 63 63 65 65 66 65 66 67 66 66 64 64 63 64 63 63 62 62 64 62 60 61 62 62 62
22 23 23 22 20 18 17 16 12 11 12 13 10 15 18 21 23 33 41 47 49 52 57 59 61 63 64 61 65 66 65 66 65 66 66 65 65 64 64 62 62 62 62 61 62 62 62 62 62
22 23 23 23 21 20 19 18 17 16 17 16 16 14 15 17 20 22 31 40 44 49 54 59 61 63 63 63 62 62 63 65 66 65 65 65 64 64 64 63 62 60 62 62 63 63 62 61 61
24 23 24 24 23 22 21 20 19 19 21 20 18 17 15 14 19 19 25 31 38 45 52 58 62 63 63 63 62 62 63 63 65 65 64 65 64 64 63 63 62 62 63 64 63 63 61 61 61
25 23 24 23 24 22 22 20 20 22 22 22 22 22 21 18 16 18 22 27 34 39 47 58 63 63 63 62 62 62 60 61 64 65 64 64 64 63 63 63 62 62 63 63 63 63 62 62 63
21 22 20 21 20 21 21 19 19 21 21 22 22 23 23 22 19 17 20 24 29 34 43 54 61 63 63 61 61 61 58 59 63 63 64 64 64 63 63 62 62 62 63 63 63 62 60 61 61
21 18 18 18 20 20 20 18 19 20 20 20 22 23 23 23 23 20 19 22 27 31 39 50 59 63 63 62 61 61 59 59 58 61 62 63 63 63 62 62 62 62 61 62 61 61 60 60 60
19 18 18 18 21 21 22 22 21 21 22 21 21 21 22 22 23 23 19 20 26 31 39 47 57 62 63 62 61 60 59 62 60 60 60 61 62 63 61 61 61 61 61 61 60 59 60 59 59
20 19 18 18 19 21 22 22 21 21 21 22 23 24 24 25 26 26 26 23 25 31 41 48 54 61 62 62 60 59 60 61 61 62 61 61 60 61 61 61 61 60 59 58 59 58 58 59 59
19 19 17 15 14 20 20 20 18 17 18 20 22 24 25 25 26 26 26 28 29 32 38 48 52 58 61 62 59 57 61 60 60 61 60 60 58 60 60 61 60 58 57 57 57 57 57 57 59
19 17 15 10 12 14 15 13 11 12 14 16 17 19 21 23 24 25 27 28 30 32 36 42 50 54 60 60 59 59 60 59 59 60 60 60 60 61 61 61 60 58 57 56 56 57 57 56 57
16 19 13 9 12 11 11 6 10 13 13 14 16 19 23 24 24 24 25 26 29 33 36 39 47 51 56 59 58 58 57 57 58 59 59 59 60 60 61 61 60 59 57 57 57 57 57 56 55
14 12 10 13 14 12 8 10 10 12 11 20 28 36 37 38 38 38 38 35 29 31 36 41 43 49 54 59 58 58 57 57 57 57 58 58 59 59 61 61 60 59 58 57 57 57 58 57 55
14 16 16 15 13 13 13 11 9 12 18 23 33 35 37 39 41 42 41 40 35 33 34 39 44 47 52 58 58 58 57 56 55 55 56 57 58 58 58 61 60 59 59 58 58 58 58 57 56
16 19 18 18 16 13 11 11 9 23 32 33 34 35 38 40 43 45 46 45 40 36 35 39 45 47 51 57 58 58 57 56 55 55 54 54 56 56 57 59 60 60 59 58 57 57 57 57 55
21 21 15 12 11 9 17 11 13 27 35 35 34 37 38 40 43 45 49 50 45 41 36 37 41 48 50 56 57 58 57 57 56 55 53 52 54 55 55 57 59 59 59 58 57 57 57 57 57
28 22 20 25 24 21 19 18 30 31 34 36 35 35 39 40 43 46 48 50 52 45 37 40 48 50 50 57 58 58 58 57 55 55 53 53 53 55 55 55 56 59 59 58 57 56 55 56 56
28 24 23 24 16 11 4 10 29 34 30 31 32 35 41 40 42 44 45 47 50 47 42 50 52 51 56 58 58 58 57 57 56 55 53 54 54 54 55 56 57 58 58 58 57 56 56 55 56
27 26 28 26 26 20 10 24 31 28 27 29 32 42 41 41 41 42 41 43 47 51 49 53 54 54 57 57 57 57 58 57 56 54 54 55 55 54 55 56 57 57 57 57 57 56 56 55 55
22 22 24 20 22 22 24 24 29 26 25 29 39 42 41 40 39 39 38 38 42 46 55 55 56 56 56 56 56 57 58 57 55 54 54 55 55 54 54 55 56 56 56 56 55 54 54 54 53

GFSSGP_sfc_30mbdewp_108.txt.gz
Dewpoint
51 46 41 31 16 14 7 5 4 0 6 13 16 14 17 23 32 35 54 57 64 63 67 68 70 70 70 70 71 71 72 72 72 71 72 71 71 72 72 71 71 71 69 70 69 69 69 69 70
41 37 34 22 12 7 4 4 -2 2 15 19 19 19 22 22 37 43 52 56 60 63 65 68 70 69 70 71 71 72 72 72 72 71 72 71 71 71 71 71 70 69 68 68 68 69 69 69 69
43 38 28 16 10 9 7 -0 2 7 18 19 18 18 18 19 29 41 53 52 56 62 63 68 69 69 70 71 72 72 72 72 72 71 72 71 71 70 70 70 70 68 68 68 67 68 69 69 69
36 37 27 13 8 4 5 6 4 5 15 17 16 18 20 37 35 45 48 49 52 58 64 68 69 69 70 71 72 72 72 71 71 71 71 71 70 69 70 69 69 68 67 68 68 68 69 68 68
35 27 18 10 5 6 8 6 9 8 10 14 15 15 23 35 35 46 47 49 53 64 68 68 68 69 69 70 71 72 71 71 71 71 71 71 70 69 69 69 68 67 67 68 68 68 68 68 68
27 25 16 10 7 4 3 4 3 14 15 15 16 14 22 34 39 47 50 53 58 68 69 68 69 69 68 69 70 71 71 71 70 69 70 71 70 69 68 68 68 67 67 67 67 68 68 67 67
28 22 16 12 7 6 3 5 3 8 13 14 15 14 19 37 42 48 53 57 62 66 70 69 68 68 68 68 68 70 70 69 68 68 69 69 69 68 68 67 67 67 66 66 67 68 67 67 66
28 22 17 14 9 5 5 4 7 7 6 14 18 14 19 36 44 48 55 60 64 67 70 69 68 68 68 68 68 68 69 69 69 69 69 68 68 67 67 66 66 65 65 65 65 66 67 66 65
29 23 19 16 13 11 10 7 7 9 8 7 17 17 37 42 50 50 53 59 64 66 67 69 68 68 68 68 68 68 68 68 68 68 68 68 67 67 66 65 64 64 63 65 66 66 65 63 63
29 25 23 21 18 13 11 10 9 9 9 8 12 20 36 39 43 51 52 55 61 64 66 67 67 67 68 66 68 67 68 67 68 68 68 68 67 67 65 64 64 64 63 64 65 65 64 63 64
27 26 26 23 21 20 16 13 10 10 10 11 13 18 21 29 36 45 49 54 58 62 64 64 66 67 67 65 68 67 67 67 67 66 67 67 66 66 65 65 64 64 64 65 64 63 63 62 62
25 26 25 24 23 22 21 19 13 11 11 13 14 16 18 28 28 35 43 49 53 57 60 62 65 67 66 65 67 66 66 67 67 67 66 66 65 64 65 64 64 63 63 63 62 62 63 62 61
23 25 24 23 23 23 22 21 18 17 19 15 14 15 15 17 22 23 31 41 48 53 58 60 63 65 67 66 65 66 66 66 66 66 67 66 66 65 65 64 64 63 64 63 62 62 62 61 61
21 23 23 23 22 23 22 21 20 19 20 19 19 17 16 17 16 19 23 27 39 47 55 60 61 65 66 65 66 65 66 65 65 65 65 66 66 65 64 64 63 63 64 64 64 63 62 61 61
19 19 23 23 22 23 23 21 21 22 22 21 20 21 20 20 19 15 19 25 32 39 50 61 61 66 65 65 65 64 64 64 64 64 63 66 66 65 64 64 63 63 64 64 63 63 62 61 61
21 21 19 22 24 24 24 22 23 22 22 21 22 23 23 24 23 22 20 22 26 34 38 61 62 64 65 65 65 63 64 64 63 64 65 63 64 65 64 63 63 63 63 63 63 62 62 61 61
21 20 21 21 23 23 21 21 23 22 21 20 22 23 24 24 24 25 24 21 23 28 37 62 64 64 65 65 64 64 63 63 64 64 63 64 64 64 64 63 63 63 63 63 63 62 61 60 60
18 19 20 19 20 21 20 20 19 20 20 20 20 21 23 24 25 26 27 22 21 26 33 60 64 64 65 65 64 63 63 61 61 62 63 63 63 64 64 63 62 62 62 62 62 60 61 60 59
18 17 17 19 19 19 19 18 19 22 23 20 22 22 22 24 24 25 27 28 28 28 33 53 63 64 64 64 63 62 61 61 61 61 61 62 62 63 63 63 61 62 62 61 60 60 59 59 60
12 17 19 23 25 21 22 22 22 23 22 22 22 23 24 25 26 27 29 32 29 29 36 46 61 64 64 63 62 62 62 62 62 62 61 62 62 62 63 62 61 60 59 59 59 59 58 58 60
7 13 22 23 23 18 16 18 19 20 20 19 19 20 22 26 27 28 29 31 36 35 40 41 50 63 63 63 62 61 62 61 60 61 61 61 61 60 62 62 60 59 58 57 58 58 58 56 58
5 13 20 20 20 12 13 10 13 14 15 15 14 16 19 20 28 28 28 29 33 38 42 41 46 56 62 62 61 59 60 59 59 60 59 60 61 60 62 61 60 58 58 57 57 58 57 57 56
5 15 20 19 17 14 12 11 11 13 11 13 20 34 36 37 38 38 39 39 39 39 39 45 43 50 58 62 60 59 60 60 59 59 59 59 61 61 61 61 60 58 57 57 57 57 57 57 56
9 17 20 18 16 13 14 12 7 9 11 20 33 34 36 40 43 44 46 47 45 41 41 40 45 47 53 61 61 59 60 59 58 59 59 59 58 60 61 61 60 59 57 57 57 57 57 57 57
13 15 20 20 22 18 14 10 10 25 27 30 32 37 40 42 44 44 46 48 51 52 53 42 41 44 50 59 61 60 60 59 58 58 58 58 58 58 59 60 60 60 58 58 58 58 58 57 57
13 16 24 13 15 15 15 16 13 26 32 33 37 38 40 42 42 43 45 47 48 50 52 53 40 40 48 56 60 60 61 59 58 58 58 57 57 58 59 61 60 60 59 58 58 58 58 58 57
17 18 23 25 25 24 19 28 34 31 32 35 36 38 40 40 42 42 43 44 44 47 49 52 52 40 46 53 59 59 60 59 58 58 57 56 57 56 56 58 60 60 59 58 58 57 57 58 57
26 25 26 29 25 24 23 28 31 36 33 33 39 40 40 40 40 40 41 40 41 44 47 50 51 41 48 54 58 59 60 59 58 58 57 55 57 56 56 56 57 60 59 58 58 57 57 57 57
34 31 30 28 24 25 16 31 38 36 35 39 39 39 39 39 39 38 38 38 38 41 44 47 55 51 55 59 59 59 59 59 58 57 56 57 56 56 56 56 56 59 58 58 57 56 56 55 55
34 33 31 25 18 24 30 30 40 40 40 40 39 39 39 38 38 37 36 36 36 39 41 44 53 57 58 58 58 58 59 58 58 57 56 56 56 55 55 56 57 57 58 58 57 56 56 55 55

GFSSGP_sfc_30mbdewp_111.txt.gz
Dewpoint
48 47 46 38 26 18 14 13 14 10 7 16 18 24 23 32 39 44 61 62 65 67 70 70 70 70 70 70 71 71 71 72 72 71 71 71 71 71 71 71 72 72 71 70 69 69 69 70 70
44 41 38 33 19 11 11 14 12 9 13 20 17 20 23 36 49 57 61 63 66 67 69 69 70 70 70 70 71 72 72 72 71 71 71 71 71 71 71 71 71 69 70 70 69 69 69 70 69
40 39 35 27 20 13 11 10 10 12 20 20 17 19 19 38 51 53 62 64 65 66 68 69 69 69 70 71 71 72 72 72 71 71 72 71 71 71 71 70 70 69 69 69 69 70 70 69 68
31 38 37 24 15 14 12 9 9 8 17 17 18 17 31 40 49 55 60 63 62 65 68 69 68 69 70 71 71 72 70 71 71 71 72 71 71 71 70 69 69 69 69 69 69 69 69 68 68
36 35 27 19 16 14 12 11 9 8 11 16 16 15 33 41 51 52 56 61 62 67 67 68 68 69 70 71 71 71 70 70 71 71 71 71 70 70 69 69 69 68 69 69 69 69 68 68 67
30 30 22 20 19 16 13 10 7 7 11 16 16 17 31 45 47 49 56 65 67 66 67 68 68 69 69 71 71 71 71 71 71 71 71 71 70 69 69 69 68 68 68 68 69 68 68 68 67
31 26 22 20 18 16 15 13 8 6 13 16 16 15 29 44 47 52 60 67 68 68 67 68 68 68 69 69 70 71 71 70 68 68 69 70 69 68 68 69 68 67 67 67 68 68 67 67 67
34 32 28 24 18 16 14 12 10 10 14 17 18 14 28 40 51 57 62 67 69 68 68 67 68 68 67 68 69 69 70 69 67 67 68 69 69 68 67 67 68 67 66 67 67 67 67 66 66
31 28 27 26 21 18 16 15 14 10 8 9 18 21 43 48 53 58 62 65 68 69 68 68 68 68 67 67 67 68 69 69 68 68 69 68 68 68 67 66 66 66 66 66 66 66 66 65 64
30 27 27 25 23 20 19 17 15 10 9 9 11 40 41 45 50 55 60 63 65 67 68 68 67 67 67 67 67 67 68 68 68 68 68 68 67 67 66 65 65 65 64 65 66 65 64 63 62
29 27 28 28 27 27 24 22 21 11 10 10 9 35 37 39 41 52 57 62 64 66 68 68 68 68 67 67 67 67 67 67 67 68 67 67 67 66 65 64 64 64 62 65 65 65 63 62 62
18 27 27 28 29 28 26 23 23 20 11 16 14 20 27 33 37 43 51 57 63 65 66 67 67 67 67 66 67 67 67 66 66 66 67 67 66 66 65 64 63 63 64 64 64 63 62 61 62
13 18 24 27 27 27 27 24 23 23 20 19 18 18 18 24 30 35 43 52 61 63 64 66 67 67 66 65 67 67 66 67 67 66 66 66 65 64 64 64 64 63 64 63 62 62 61 60 60
20 16 16 22 25 26 24 23 23 23 23 20 20 20 20 18 18 20 27 39 53 60 62 64 65 66 66 65 67 66 66 67 67 66 66 65 65 64 64 64 64 63 64 63 62 62 61 60 60
25 22 21 19 19 23 24 22 22 24 23 21 20 21 21 21 19 19 19 19 26 52 60 62 64 66 65 65 66 65 65 65 65 65 66 66 66 65 64 63 63 63 63 63 62 62 61 60 60
19 21 21 21 20 20 23 21 23 24 23 22 22 23 22 22 22 21 21 21 18 28 57 61 63 65 66 64 65 65 64 64 64 63 64 64 66 64 64 63 63 63 63 63 62 62 61 60 60
20 20 21 21 22 20 22 22 23 25 24 23 22 22 23 23 24 23 24 24 24 22 42 60 63 64 65 64 65 64 64 63 63 64 64 63 65 65 63 63 63 63 62 62 62 61 61 59 60
17 22 21 20 22 23 21 21 23 24 24 24 22 22 22 23 24 24 25 26 24 23 35 60 62 65 64 65 64 63 64 64 63 63 63 62 63 64 64 63 63 62 62 62 62 61 61 60 60
16 20 21 20 22 21 21 22 23 22 21 21 21 22 21 24 25 25 26 27 26 24 36 61 62 64 64 64 63 63 62 63 63 63 63 62 63 64 63 63 62 62 62 62 62 61 60 60 60
9 10 11 15 17 20 24 30 29 23 21 21 21 22 23 24 26 26 29 30 30 27 30 61 63 64 64 64 63 63 62 61 61 62 63 63 62 63 63 62 62 62 61 61 61 60 59 59 60
6 7 9 11 14 23 31 30 28 27 22 23 23 23 23 23 23 25 25 29 33 33 31 59 63 64 64 63 63 62 62 61 60 60 61 61 62 62 63 62 61 60 60 59 60 59 57 56 59
3 4 6 9 11 25 31 22 15 22 23 20 21 20 23 34 36 40 44 45 42 40 41 51 64 64 64 63 62 61 61 60 60 60 60 60 61 62 62 61 60 59 58 57 58 59 58 57 57
3 5 5 16 30 29 28 19 13 15 14 15 18 33 38 44 45 46 47 48 49 51 52 53 50 64 63 63 62 61 60 61 60 60 60 60 60 60 62 60 59 58 57 57 56 57 58 58 57
9 10 27 27 26 24 20 15 14 13 14 32 38 42 44 44 44 45 45 46 46 47 48 50 53 52 63 62 61 60 60 60 59 59 59 59 60 60 61 60 59 58 57 57 56 57 58 57 57
16 21 20 19 22 17 19 16 16 23 33 38 41 42 42 43 43 42 42 43 43 43 45 47 50 51 53 61 60 60 59 60 59 58 59 59 59 60 60 60 59 58 57 57 56 56 57 57 57
15 20 21 15 19 18 17 15 15 20 40 42 41 41 41 41 41 40 40 40 40 40 42 44 46 49 51 60 60 59 59 60 59 58 59 59 58 58 60 60 59 58 57 57 57 57 57 57 57
15 16 25 27 27 24 16 28 32 37 38 41 39 39 38 38 38 38 38 37 38 39 40 42 45 48 53 54 61 60 60 60 59 59 59 59 58 58 59 60 60 59 57 57 57 57 57 57 57
17 19 20 28 21 21 21 30 32 35 41 40 38 37 38 38 37 36 36 36 36 38 39 42 45 48 57 53 61 60 61 60 59 59 58 57 57 58 58 60 59 59 58 58 57 56 57 57 57
28 25 29 33 30 25 24 29 38 35 39 38 37 36 35 35 36 36 36 35 36 37 38 40 42 46 57 58 60 60 60 59 60 59 58 57 57 57 56 58 59 59 58 58 57 57 57 56 56
36 31 30 28 28 30 29 26 38 36 36 35 35 34 34 34 34 34 35 35 35 36 37 38 40 43 47 58 58 60 60 60 60 58 57 57 56 56 56 56 57 59 58 58 57 56 56 56 55

GFSSGP_sfc_30mbdewp_114.txt.gz
Dewpoint
50 48 44 36 20 19 14 13 16 11 11 10 18 25 28 38 36 35 62 63 66 68 69 70 71 71 71 70 70 71 71 71 71 71 71 71 71 71 71 72 72 72 71 70 70 70 70 70 70
43 43 38 32 21 9 9 15 10 12 14 16 20 25 29 47 55 60 59 65 67 68 69 69 70 70 71 71 71 71 71 71 71 71 71 71 71 71 71 71 72 72 71 69 69 70 69 69 69
39 40 33 29 23 8 6 8 10 12 12 11 18 19 33 46 59 59 61 65 68 68 69 69 69 69 70 70 71 71 72 71 71 71 71 71 71 71 71 71 69 70 71 70 70 70 69 69 68
29 37 36 30 17 18 11 5 8 11 11 11 18 18 36 50 57 62 64 65 66 67 68 69 69 69 70 70 71 71 71 71 71 71 71 71 71 71 70 70 69 69 70 70 70 70 69 68 68
36 35 28 27 24 21 18 16 15 13 12 10 14 18 39 49 59 63 63 63 63 66 68 68 69 69 70 71 71 71 69 70 71 71 71 71 71 71 70 69 69 69 70 70 70 70 68 68 67
31 32 27 18 17 18 18 17 14 13 12 10 16 30 36 52 61 62 61 62 66 66 67 68 68 69 70 71 71 70 69 69 70 71 71 71 70 70 69 69 69 68 69 69 69 68 68 67 67
30 26 22 23 20 19 19 19 16 14 12 10 17 19 37 52 58 61 63 66 66 66 67 67 68 69 70 70 70 70 70 70 70 70 71 70 69 69 69 69 68 68 68 68 68 68 67 67 67
34 31 26 21 18 19 20 19 16 14 12 16 17 17 44 46 56 65 66 66 65 66 66 67 67 68 69 70 70 70 70 69 68 70 70 70 69 68 68 68 68 67 67 68 68 67 67 67 66
31 29 25 24 25 24 24 20 19 16 14 11 18 25 43 51 62 65 66 66 66 65 66 66 67 67 67 68 69 70 70 68 67 67 67 69 68 68 68 68 68 67 66 67 67 67 66 66 66
27 28 28 29 29 27 27 24 23 19 16 12 37 44 49 58 61 62 64 65 65 65 65 66 66 66 66 67 68 68 69 68 67 67 68 68 68 67 67 67 67 67 66 66 66 66 66 65 64
29 27 29 29 29 29 27 26 27 24 22 18 33 44 50 55 58 60 62 63 64 66 66 66 66 66 66 66 66 67 67 67 67 67 67 67 67 67 66 65 65 65 65 66 66 65 64 62 61
8 18 27 29 30 29 28 29 27 23 22 21 18 42 45 49 55 58 60 62 64 67 66 66 66 66 66 66 65 66 66 66 66 67 67 67 66 66 65 64 64 63 63 65 64 63 62 61 61
11 9 11 15 22 28 28 27 27 27 28 26 24 28 35 40 48 55 59 62 64 66 67 67 67 66 67 67 66 65 65 65 65 66 66 66 66 65 65 64 63 63 63 63 63 62 62 61 60
28 25 20 16 15 16 24 26 27 27 27 25 25 21 20 23 34 39 52 59 63 64 66 67 67 67 67 66 66 66 66 66 66 65 65 66 65 65 64 64 63 63 63 63 62 62 61 60 60
16 22 26 25 23 19 18 19 24 26 26 24 24 23 22 20 20 22 27 43 60 63 65 66 67 67 66 65 66 66 66 66 66 66 66 66 65 64 64 64 64 63 63 62 62 61 60 59 59
10 13 15 20 23 24 20 16 19 23 25 24 24 23 24 23 22 20 19 20 45 61 63 65 66 66 66 65 66 66 66 66 66 66 66 65 65 64 63 63 63 63 63 62 61 61 60 59 59
10 7 11 17 22 23 20 18 19 21 24 24 25 23 23 23 24 24 23 21 22 39 59 63 65 66 65 65 65 65 65 65 65 65 65 65 65 65 64 63 62 63 62 62 61 61 60 59 59
6 8 14 19 22 23 21 20 21 22 24 24 24 24 23 23 23 24 25 25 24 24 45 61 63 64 65 65 65 65 64 64 64 63 64 64 65 64 63 63 62 63 63 61 61 61 60 60 59
11 9 9 15 20 19 21 21 22 23 23 24 25 25 24 23 24 24 25 25 26 26 32 58 62 63 65 64 64 63 63 63 63 63 63 62 63 64 63 63 62 62 62 62 62 61 60 59 60
14 11 8 9 14 15 17 28 32 32 31 27 23 23 24 23 23 24 25 26 29 32 35 56 61 63 64 64 64 63 63 63 63 63 63 63 62 63 63 62 62 62 61 61 61 61 60 60 60
20 13 9 5 6 8 15 26 30 32 31 30 28 23 23 23 24 41 47 49 50 51 51 57 61 64 64 64 64 63 62 62 62 62 62 62 62 62 63 62 62 61 61 60 60 60 59 58 59
26 19 11 6 7 6 30 25 28 25 21 27 26 23 32 42 46 46 47 46 46 47 50 51 57 63 64 64 63 62 61 60 61 61 61 62 62 62 63 62 61 61 61 60 60 60 59 57 56
22 27 15 6 4 18 22 28 26 17 15 21 33 43 43 43 43 43 43 43 43 44 46 48 50 53 63 63 63 62 61 61 60 60 60 61 61 62 62 61 61 60 59 58 59 59 58 58 56
22 25 23 26 24 20 23 27 17 20 31 34 42 42 41 40 39 39 39 40 40 41 43 45 46 48 51 57 63 62 61 61 60 60 59 60 60 60 61 61 60 59 58 57 57 57 58 57 57
24 25 17 12 19 17 22 27 21 34 40 40 39 39 39 37 37 36 36 37 38 39 40 42 44 46 48 50 56 62 62 61 60 60 59 59 59 59 61 60 59 58 57 57 56 56 57 57 57
19 21 13 12 17 17 19 18 20 42 41 39 38 37 37 36 36 35 35 36 36 38 39 40 42 44 48 49 52 61 61 61 60 60 60 59 59 59 60 60 59 58 57 57 56 55 56 58 57
24 21 21 19 25 20 17 30 36 37 38 37 36 35 35 35 35 35 35 35 36 37 38 39 41 42 46 50 57 56 61 61 60 59 59 59 59 59 60 60 59 58 57 57 56 55 56 57 57
32 25 20 25 15 16 22 28 27 32 32 34 34 34 34 33 33 34 34 35 36 36 37 38 40 41 44 47 56 56 60 60 60 59 59 59 59 59 59 60 59 58 57 57 57 55 56 56 56
23 22 26 24 27 22 23 23 30 30 31 31 33 33 33 33 33 33 34 35 36 36 37 37 38 39 42 45 53 59 60 60 60 59 59 59 58 58 59 59 59 59 57 57 57 56 56 56 56
34 28 28 18 23 28 27 23 31 31 31 32 32 33 33 33 33 33 34 34 35 36 36 36 38 38 40 43 48 57 59 60 60 59 59 59 58 58 58 59 59 58 58 57 57 56 56 56 56

GFSSGP_sfc_30mbdewp_117.txt.gz
Dewpoint
48 46 43 33 17 19 11 9 16 9 5 10 14 15 22 37 40 34 61 64 65 67 70 70 71 71 71 71 70 70 71 70 70 71 71 71 72 72 72 72 72 71 70 70 70 70 70 69 69
41 43 36 29 12 -1 3 14 5 11 12 14 13 18 27 38 55 59 61 65 66 68 70 70 70 70 71 71 71 71 71 71 71 71 71 71 72 72 72 72 72 71 71 70 70 70 69 70 69
40 39 31 27 21 0 -6 8 9 10 12 12 10 18 30 43 58 59 63 66 67 68 69 70 70 71 70 70 70 71 71 71 70 70 71 71 71 71 72 72 72 71 71 70 69 69 69 69 68
31 36 35 28 13 21 10 9 10 9 13 13 13 9 31 52 57 60 66 67 66 67 68 69 69 70 71 70 70 71 70 70 70 70 70 71 71 71 71 70 70 71 70 70 69 69 69 68 68
36 35 20 26 22 24 19 17 17 15 15 13 13 10 32 56 60 63 65 66 66 67 68 68 68 69 70 70 71 71 70 70 70 70 70 71 71 71 70 69 69 70 71 70 70 69 68 68 67
22 32 24 11 11 18 20 21 20 17 16 15 12 14 43 54 60 62 64 64 66 67 68 68 68 69 69 70 71 70 70 70 70 70 70 71 71 70 69 69 69 69 70 70 70 68 67 67 67
25 28 20 21 19 20 19 20 19 16 15 14 13 13 37 58 60 62 61 64 65 66 67 68 68 69 70 70 70 69 69 70 70 70 70 70 70 70 69 69 68 68 69 69 68 68 67 67 67
33 29 25 20 16 17 20 20 19 16 15 17 17 15 36 54 61 63 64 65 65 66 66 67 68 69 69 70 69 68 68 69 69 70 69 69 69 69 69 69 68 68 68 68 68 67 67 67 66
33 28 23 22 21 20 23 23 21 19 18 19 15 24 40 57 64 64 64 64 64 65 66 66 67 68 68 69 69 69 69 69 69 69 69 69 68 68 68 68 68 67 68 68 67 67 67 66 65
27 27 26 27 25 24 28 28 27 25 23 21 22 34 54 62 62 62 62 61 62 63 64 65 66 66 67 68 68 69 69 68 68 68 69 68 68 67 67 68 67 67 67 67 67 66 66 65 64
30 26 27 28 29 30 29 29 28 26 25 25 24 23 56 59 61 62 62 62 60 62 64 65 65 66 66 67 67 67 67 67 67 66 67 68 67 67 66 66 67 66 66 66 66 66 65 64 63
9 16 21 26 27 26 28 29 28 28 28 27 24 22 44 58 60 61 61 62 63 63 62 64 65 65 65 66 66 66 66 66 67 67 67 67 66 66 65 65 65 65 65 65 64 64 63 62 61
11 7 8 12 12 11 13 16 26 26 29 29 29 29 26 42 58 59 60 62 64 63 63 64 65 64 65 65 65 65 65 65 66 66 66 67 66 65 65 64 64 63 63 64 63 63 62 61 60
22 13 13 13 18 23 19 15 14 17 25 28 28 28 26 31 43 53 58 60 64 64 65 65 64 64 64 65 64 64 65 65 65 65 66 66 66 65 65 64 63 63 62 63 63 62 61 60 60
13 10 10 9 12 21 22 20 18 16 20 26 27 27 25 23 33 39 50 59 62 64 66 66 65 65 64 64 64 64 64 65 64 64 65 66 65 65 64 64 63 63 62 62 61 61 60 60 59
11 10 7 9 14 16 23 20 21 23 19 20 25 25 25 24 22 24 41 53 58 63 64 67 66 66 65 64 65 65 65 64 64 65 65 65 65 64 64 64 63 63 62 62 61 61 60 59 59
10 7 7 8 9 14 16 20 22 23 22 20 21 25 25 24 23 23 22 33 50 60 63 65 66 66 66 65 65 65 65 65 65 65 65 65 65 64 63 63 63 63 62 62 61 61 60 59 59
13 7 5 6 9 15 17 19 21 23 23 22 22 22 24 25 24 24 24 23 23 48 61 63 66 66 66 66 65 65 65 65 65 65 65 65 65 64 63 63 62 62 62 62 61 61 60 60 59
17 16 15 13 12 11 9 12 15 18 27 25 22 22 25 25 25 25 25 26 26 25 42 61 64 65 66 65 64 64 64 64 64 65 65 65 65 64 63 63 62 62 62 62 61 61 60 59 60
11 19 18 17 17 15 9 7 11 15 20 26 29 28 24 26 25 37 48 49 50 50 41 48 61 63 65 65 64 64 64 63 64 63 63 64 64 64 63 63 62 62 62 62 61 61 60 60 59
10 7 13 21 20 14 8 5 3 9 23 28 32 32 30 25 40 45 44 44 45 46 48 53 59 61 64 64 64 63 62 62 62 62 62 63 63 63 63 63 62 62 62 61 61 61 60 58 59
16 16 14 24 24 13 18 11 21 25 26 26 25 40 42 43 43 42 42 42 42 43 45 47 51 60 63 64 63 62 62 61 62 62 62 62 62 62 62 62 62 61 61 61 61 61 60 59 57
22 17 17 23 24 16 8 15 18 24 23 36 39 38 38 38 38 38 38 39 40 41 42 44 47 49 53 59 63 63 62 61 61 62 62 61 62 62 62 62 61 61 61 61 60 59 59 59 58
22 23 25 26 21 13 9 16 21 33 38 37 36 36 35 35 35 35 36 37 38 39 40 43 45 46 48 51 54 63 62 61 60 60 60 61 61 61 62 62 61 61 61 60 59 59 59 58 57
22 19 17 13 13 16 19 21 23 37 37 36 35 34 35 35 35 35 35 35 36 37 39 41 42 44 46 49 51 53 62 62 60 60 60 60 60 60 60 61 61 60 59 58 58 58 58 58 57
14 19 18 11 13 13 23 24 29 36 37 36 35 34 33 33 33 34 35 35 36 36 38 39 40 42 43 45 48 51 54 62 61 59 60 60 60 60 60 60 60 60 58 58 58 57 57 57 57
22 18 20 18 20 20 23 31 33 34 33 32 33 34 34 34 33 33 34 35 36 36 37 38 39 40 41 43 45 48 55 59 61 61 60 60 60 60 60 60 60 59 58 58 57 56 56 56 56
27 30 21 21 11 14 24 24 22 27 28 31 31 31 33 34 34 34 34 35 35 36 37 37 38 39 40 41 43 47 54 57 61 60 60 60 60 60 59 60 59 58 58 57 56 56 55 55 56
27 27 27 21 21 21 20 21 29 27 29 28 30 31 32 33 33 33 33 35 35 35 35 36 37 38 39 40 42 45 49 59 61 60 60 60 59 59 59 59 59 58 57 57 56 56 56 55 55
34 27 25 16 17 26 23 21 31 30 29 30 29 31 32 33 32 32 32 33 34 35 35 35 36 37 38 39 41 43 45 49 60 60 59 59 59 59 59 59 59 58 57 57 56 55 55 55 55

GFSSGP_sfc_30mbdewp_120.txt.gz
Dewpoint
44 45 41 30 14 16 7 -0 16 10 10 11 15 12 11 27 43 37 61 64 66 67 69 70 71 71 71 70 70 70 70 71 71 70 71 71 72 72 72 72 72 71 70 70 70 70 69 69 69
40 41 35 28 5 -7 -4 13 6 9 9 14 12 15 26 32 51 58 61 64 66 68 69 70 71 71 71 70 70 70 70 70 71 71 71 71 72 72 72 72 71 71 70 70 70 70 69 69 69
39 38 27 22 17 -8 -11 2 8 10 11 12 10 15 17 39 56 59 62 65 67 68 69 70 70 71 71 70 71 70 70 70 70 71 71 72 72 72 72 71 71 71 70 70 68 69 70 69 69
34 35 33 22 10 17 3 8 10 10 13 14 13 9 14 46 56 60 65 66 66 68 69 70 70 70 70 70 70 71 70 70 70 71 71 71 72 72 72 71 71 70 70 68 68 69 69 68 68
36 33 11 22 21 23 21 17 18 16 15 15 16 10 14 50 61 63 65 66 65 68 68 69 69 70 70 70 71 70 70 69 69 70 71 71 71 71 71 71 71 71 70 69 70 69 68 68 68
18 32 18 10 10 19 18 20 21 20 19 17 13 13 30 56 60 65 66 65 66 67 68 69 69 70 70 70 70 70 69 69 69 70 70 71 71 70 69 69 70 70 70 70 69 68 67 67 67
18 24 16 20 19 19 19 20 18 17 17 15 13 13 19 47 60 63 64 65 66 67 67 68 69 69 70 70 70 69 69 69 69 69 70 70 70 69 69 69 69 69 70 70 68 67 67 67 67
32 27 24 20 17 17 19 20 20 19 17 19 17 15 17 43 62 62 64 64 65 66 67 67 68 68 69 69 69 69 69 69 69 69 69 69 69 69 69 68 68 69 69 69 68 67 67 67 66
34 27 24 22 22 21 22 24 26 24 24 22 20 23 32 49 63 62 62 63 64 65 66 67 67 67 68 68 69 68 69 69 69 69 69 69 69 69 68 68 68 68 68 68 67 67 66 66 66
27 27 25 26 25 25 28 28 29 28 27 26 26 27 47 62 61 59 59 59 61 63 64 66 66 66 67 67 68 68 68 69 69 69 69 68 68 68 68 68 67 67 67 67 67 66 66 65 64
28 25 26 27 29 30 26 24 29 27 27 27 26 27 45 59 61 59 58 58 58 61 64 65 65 65 66 66 66 67 67 68 67 68 68 68 67 67 67 67 67 67 67 67 66 66 65 64 63
8 11 16 18 14 15 15 20 17 17 21 29 29 30 31 40 55 61 60 58 58 60 62 64 65 65 66 66 65 65 66 66 66 66 67 67 66 66 66 66 66 66 66 65 65 65 64 63 62
25 20 16 15 12 12 17 20 18 17 18 20 26 28 28 29 39 56 61 61 62 60 62 63 65 65 65 65 65 64 64 66 66 66 66 67 66 65 65 64 65 65 64 64 64 64 63 62 61
16 11 12 11 11 10 8 12 20 20 18 19 21 26 27 28 29 45 58 60 62 63 61 63 64 64 64 64 64 64 64 65 65 65 66 66 66 65 64 64 64 63 64 65 64 62 62 61 60
14 11 11 9 9 10 16 15 16 16 21 21 20 20 25 27 28 33 53 58 61 64 62 63 63 64 64 64 64 64 64 64 64 64 65 65 65 65 64 64 63 63 63 63 62 61 61 60 60
12 11 6 6 7 8 9 2 10 22 23 23 22 21 22 24 27 27 44 55 59 63 64 64 63 63 63 63 63 63 64 64 64 64 64 64 64 65 64 64 63 62 62 62 61 60 59 59 59
11 7 6 7 8 8 9 7 13 17 20 21 23 23 22 24 26 26 26 43 54 61 64 66 65 63 63 63 64 63 63 63 63 64 64 65 65 64 64 64 63 62 62 61 61 60 60 59 58
14 12 12 13 14 17 16 14 12 10 10 18 19 22 23 21 22 24 25 24 40 56 62 64 66 65 64 64 64 64 64 64 64 64 64 64 64 64 64 63 62 62 62 62 61 61 61 60 59
12 13 14 14 16 17 18 16 14 15 14 10 20 23 26 25 25 31 41 45 35 34 35 61 65 66 65 65 64 63 63 63 64 64 64 64 64 64 63 63 62 62 62 61 60 61 60 59 60
11 10 11 12 15 15 17 20 17 15 12 9 13 13 23 28 33 44 45 45 45 46 47 47 58 65 66 65 64 64 64 64 64 65 64 65 64 64 63 63 62 62 62 62 61 61 60 60 60
18 16 14 11 11 13 19 21 17 13 12 8 7 27 38 40 43 42 42 42 43 43 44 46 50 61 65 65 65 63 63 62 63 63 63 64 65 64 64 63 62 62 62 62 61 61 60 58 59
20 19 18 16 15 16 24 18 19 14 14 37 36 36 35 35 36 37 38 39 40 40 42 44 47 53 60 65 64 63 62 62 62 63 63 64 64 64 64 63 62 62 62 62 61 61 61 59 57
20 23 21 21 17 19 21 20 13 16 32 34 34 35 35 35 35 35 36 37 38 39 40 42 46 48 52 57 63 63 62 62 61 62 62 63 62 63 63 62 62 62 61 61 61 61 60 60 58
24 23 23 22 22 17 18 17 17 30 32 33 34 34 34 34 34 35 36 36 37 38 39 41 43 45 48 51 53 59 62 61 61 61 61 61 61 61 62 62 61 61 61 61 61 60 60 59 59
25 22 15 13 18 15 16 12 25 29 32 33 33 34 34 34 34 35 35 36 37 37 38 39 41 42 44 46 48 51 54 58 61 60 61 61 61 61 61 61 61 61 61 61 61 60 59 59 58
20 21 13 11 14 19 24 20 24 31 32 33 34 35 34 34 34 35 35 35 36 36 37 38 39 40 41 43 45 47 50 54 58 61 61 61 61 61 61 61 61 61 61 60 60 59 59 59 58
16 17 18 15 19 18 25 27 29 30 30 30 30 32 32 33 34 34 35 35 35 35 36 37 37 38 39 40 43 45 47 51 55 59 61 60 60 56 56 61 61 60 60 59 59 59 58 58 58
23 28 22 21 17 13 23 21 20 24 26 28 28 29 31 32 33 33 34 35 35 35 35 36 36 37 38 39 41 43 45 47 50 56 61 60 60 60 60 60 60 60 59 59 59 58 57 57 57
30 27 28 26 23 20 18 19 28 25 27 26 28 29 30 31 31 32 33 34 34 34 34 35 35 36 36 38 39 41 42 44 47 56 58 60 60 60 59 60 59 60 58 58 58 57 56 56 55
35 27 26 21 16 23 21 18 30 28 28 28 28 30 30 31 31 31 32 32 32 33 33 33 34 34 35 36 38 39 40 42 43 46 51 60 59 59 59 59 59 59 58 58 57 56 56 55 54